[[{"header":{"parameterUnit":"m.s-1","parameterCategory":1,"la1":30.6,"la2":29.2853,"lo1":-89.7004,"lo2":-87.6739,"dy":0.0162,"dx":0.0183,"nx":112,"ny":82,"refTime":"2023-04-16T12:00:00:Z","depth":0,"parameterNumber":2,"parameterNumberName":"U-component_of_WINDS"},"data":[0.0,0.0,0.0,0.0,0.0,0.0,0.0,0.0,0.0,0.0,0.0,0.0,0.0,0.0,0.0,0.0,0.0,0.0,0.0,0.0,0.0,0.0,0.0,0.0,0.0,0.0,0.0,0.0,0.0,0.0,0.0,0.0,0.0,0.0,0.0,0.0,0.0,0.0,0.0,0.0,0.0,0.0,0.0,0.0,0.0,0.0,0.0,0.0,0.0,0.0,0.0,0.0,0.0,0.0,0.0,0.0,0.0,0.0,0.0,0.0,0.0,0.0,0.0,0.0,0.0,0.0,0.0,0.0,0.0,0.0,0.0,0.0,0.0,0.0,0.0,0.0,0.0,0.0,0.0,0.0,0.0,0.0,0.0,0.0,0.0,0.0,0.0,0.0,0.0,0.0,0.0,4.7249,5.4371,5.9817,6.1912,6.1732,5.853,5.1648,0.0,0.0,0.0,0.0,0.0,0.0,0.0,0.0,0.0,0.0,0.0,0.0,0.0,0.0,0.0,0.0,0.0,0.0,0.0,0.0,0.0,0.0,0.0,0.0,0.0,0.0,0.0,0.0,0.0,0.0,0.0,0.0,0.0,0.0,0.0,0.0,0.0,0.0,0.0,0.0,0.0,0.0,0.0,0.0,0.0,0.0,0.0,0.0,0.0,0.0,0.0,0.0,0.0,0.0,0.0,0.0,0.0,0.0,0.0,0.0,0.0,0.0,0.0,0.0,0.0,0.0,0.0,0.0,0.0,0.0,0.0,0.0,0.0,0.0,0.0,0.0,0.0,0.0,0.0,0.0,0.0,0.0,0.0,0.0,0.0,0.0,0.0,0.0,0.0,0.0,0.0,0.0,0.0,0.0,0.0,0.0,0.0,0.0,0.0,0.0,0.0,0.0,0.0,0.0,4.5813,5.2336,5.6166,5.9308,6.1882,6.0027,5.6585,5.1528,0.0,0.0,0.0,0.0,0.0,0.0,0.0,0.0,0.0,0.0,0.0,0.0,0.0,0.0,0.0,0.0,0.0,0.0,0.0,0.0,0.0,0.0,0.0,0.0,0.0,0.0,0.0,0.0,0.0,0.0,0.0,0.0,0.0,0.0,0.0,0.0,0.0,0.0,0.0,0.0,0.0,0.0,0.0,0.0,0.0,0.0,0.0,0.0,0.0,0.0,0.0,0.0,0.0,0.0,0.0,0.0,0.0,0.0,0.0,0.0,0.0,0.0,0.0,0.0,0.0,0.0,0.0,0.0,0.0,0.0,0.0,0.0,0.0,0.0,0.0,0.0,0.0,0.0,0.0,0.0,0.0,0.0,0.0,0.0,0.0,0.0,0.0,0.0,0.0,0.0,0.0,0.0,0.0,0.0,0.0,0.0,0.0,0.0,0.0,0.0,0.0,0.0,0.0,4.4407,4.7339,5.3563,5.6555,5.8919,6.0835,5.9877,5.6765,5.105,4.9793,0.0,0.0,0.0,0.0,0.0,0.0,0.0,0.0,0.0,0.0,0.0,0.0,0.0,0.0,0.0,0.0,0.0,0.0,0.0,0.0,0.0,0.0,0.0,0.0,0.0,0.0,0.0,0.0,0.0,0.0,0.0,0.0,0.0,0.0,0.0,0.0,0.0,0.0,0.0,0.0,0.0,0.0,0.0,0.0,0.0,0.0,0.0,0.0,0.0,0.0,0.0,0.0,0.0,0.0,0.0,0.0,0.0,0.0,0.0,0.0,0.0,0.0,0.0,0.0,0.0,0.0,0.0,0.0,0.0,0.0,0.0,0.0,0.0,0.0,0.0,0.0,0.0,0.0,0.0,0.0,0.0,0.0,0.0,0.0,0.0,0.0,0.0,0.0,0.0,0.0,0.0,0.0,0.0,0.0,0.0,0.0,0.0,0.0,0.0,0.0,0.0,0.0,4.6621,4.8865,5.3683,5.6286,5.8261,5.9727,5.886,5.5927,5.0571,4.8745,0.0,0.0,0.0,0.0,0.0,0.0,0.0,0.0,0.0,0.0,0.0,0.0,0.0,0.0,0.0,0.0,0.0,0.0,0.0,0.0,0.0,0.0,0.0,0.0,0.0,0.0,0.0,0.0,0.0,0.0,0.0,0.0,0.0,0.0,0.0,0.0,0.0,0.0,0.0,0.0,0.0,0.0,0.0,0.0,0.0,0.0,0.0,0.0,0.0,0.0,0.0,0.0,0.0,0.0,0.0,0.0,0.0,0.0,0.0,0.0,0.0,0.0,0.0,0.0,0.0,0.0,0.0,0.0,0.0,0.0,0.0,0.0,0.0,0.0,0.0,0.0,0.0,0.0,0.0,0.0,0.0,0.0,0.0,0.0,0.0,0.0,0.0,0.0,0.0,0.0,0.0,0.0,0.0,0.0,0.0,0.0,0.0,0.0,0.0,0.0,0.0,0.0,4.7519,5.0391,5.3832,5.5478,5.7094,5.9009,5.5239,5.2037,5.0361,4.6202,0.0,0.0,0.0,0.0,0.0,0.0,0.0,0.0,0.0,0.0,0.0,0.0,0.0,0.0,0.0,0.0,0.0,0.0,0.0,0.0,0.0,0.0,0.0,0.0,0.0,0.0,0.0,0.0,0.0,0.0,0.0,0.0,0.0,0.0,0.0,0.0,0.0,0.0,0.0,0.0,0.0,0.0,0.0,0.0,0.0,0.0,0.0,0.0,0.0,0.0,0.0,0.0,0.0,0.0,0.0,0.0,0.0,0.0,0.0,0.0,0.0,0.0,0.0,0.0,0.0,0.0,0.0,0.0,0.0,0.0,0.0,0.0,0.0,0.0,0.0,0.0,0.0,0.0,0.0,0.0,0.0,0.0,0.0,0.0,0.0,0.0,0.0,0.0,0.0,0.0,0.0,0.0,0.0,0.0,0.0,0.0,0.0,0.0,0.0,0.0,0.0,0.0,4.7249,5.0092,0.0,5.5388,5.6615,5.7752,5.5897,5.3054,4.9254,0.0,0.0,0.0,0.0,0.0,0.0,0.0,0.0,0.0,0.0,0.0,0.0,0.0,0.0,0.0,0.0,0.0,0.0,0.0,0.0,0.0,0.0,0.0,0.0,0.0,0.0,0.0,0.0,0.0,0.0,0.0,0.0,0.0,0.0,0.0,0.0,0.0,0.0,0.0,0.0,0.0,0.0,0.0,0.0,0.0,0.0,0.0,0.0,0.0,0.0,0.0,0.0,0.0,0.0,0.0,0.0,0.0,0.0,0.0,0.0,0.0,0.0,0.0,0.0,0.0,0.0,0.0,0.0,0.0,0.0,0.0,0.0,0.0,0.0,0.0,0.0,0.0,0.0,0.0,0.0,0.0,0.0,0.0,0.0,0.0,0.0,0.0,0.0,0.0,0.0,0.0,0.0,0.0,0.0,0.0,0.0,0.0,0.0,0.0,0.0,0.0,0.0,4.4616,4.71,4.9883,0.0,5.494,5.6107,5.6735,5.488,5.2127,4.8506,0.0,0.0,0.0,0.0,0.0,0.0,0.0,0.0,0.0,0.0,0.0,0.0,0.0,0.0,0.0,0.0,0.0,0.0,0.0,0.0,0.0,0.0,0.0,0.0,0.0,0.0,0.0,0.0,0.0,0.0,0.0,0.0,0.0,0.0,0.0,0.0,0.0,0.0,0.0,0.0,0.0,0.0,0.0,0.0,0.0,0.0,0.0,0.0,0.0,0.0,0.0,0.0,0.0,0.0,0.0,0.0,0.0,0.0,0.0,0.0,0.0,0.0,0.0,0.0,0.0,0.0,0.0,0.0,0.0,0.0,0.0,0.0,0.0,0.0,0.0,0.0,0.0,0.0,0.0,0.0,0.0,0.0,0.0,0.0,0.0,0.0,0.0,0.0,0.0,0.0,0.0,0.0,0.0,0.0,0.0,0.0,0.0,0.0,0.0,0.0,0.0,0.0,4.4047,4.7189,5.0002,5.1977,5.3982,5.5448,5.6107,5.1349,4.8327,0.0,0.0,0.0,0.0,0.0,0.0,0.0,0.0,0.0,0.0,0.0,0.0,0.0,0.0,0.0,0.0,0.0,0.0,0.0,0.0,0.0,0.0,0.0,0.0,0.0,0.0,0.0,0.0,0.0,0.0,0.0,0.0,0.0,0.0,0.0,0.0,0.0,0.0,0.0,0.0,0.0,0.0,0.0,0.0,0.0,0.0,0.0,0.0,0.0,0.0,0.0,0.0,0.0,0.0,0.0,0.0,0.0,0.0,0.0,0.0,0.0,0.0,0.0,0.0,0.0,0.0,0.0,0.0,0.0,0.0,0.0,0.0,0.0,0.0,0.0,0.0,0.0,0.0,0.0,0.0,0.0,0.0,0.0,0.0,0.0,0.0,0.0,0.0,0.0,0.0,0.0,0.0,0.0,0.0,0.0,0.0,0.0,0.0,0.0,0.0,0.0,0.0,0.0,4.4018,4.6411,4.8985,5.1887,5.3593,5.4581,5.476,5.2486,5.0062,4.7728,0.0,0.0,0.0,0.0,0.0,0.0,0.0,0.0,0.0,0.0,0.0,0.0,0.0,0.0,0.0,0.0,0.0,0.0,0.0,0.0,0.0,0.0,0.0,0.0,0.0,0.0,0.0,0.0,0.0,0.0,0.0,0.0,0.0,0.0,0.0,0.0,0.0,0.0,0.0,0.0,0.0,0.0,0.0,0.0,0.0,0.0,0.0,0.0,0.0,0.0,0.0,0.0,0.0,0.0,0.0,0.0,0.0,0.0,0.0,0.0,0.0,0.0,0.0,0.0,0.0,0.0,0.0,0.0,0.0,0.0,0.0,0.0,0.0,0.0,0.0,0.0,0.0,0.0,0.0,0.0,0.0,0.0,0.0,0.0,0.0,0.0,0.0,0.0,0.0,0.0,0.0,0.0,0.0,0.0,0.0,0.0,0.0,0.0,0.0,0.0,0.0,0.0,4.3629,4.5903,4.8476,5.1498,5.3234,5.4311,5.4581,5.2875,5.0421,4.713,0.0,0.0,0.0,0.0,0.0,0.0,0.0,0.0,0.0,0.0,0.0,0.0,0.0,0.0,0.0,0.0,0.0,0.0,0.0,0.0,0.0,0.0,0.0,0.0,0.0,0.0,0.0,0.0,0.0,0.0,0.0,0.0,0.0,0.0,0.0,0.0,0.0,0.0,0.0,0.0,0.0,0.0,0.0,0.0,0.0,0.0,0.0,0.0,0.0,0.0,0.0,0.0,0.0,0.0,0.0,0.0,0.0,0.0,0.0,0.0,0.0,0.0,0.0,0.0,0.0,0.0,0.0,0.0,0.0,0.0,0.0,0.0,0.0,0.0,0.0,0.0,0.0,0.0,0.0,0.0,0.0,0.0,0.0,0.0,0.0,0.0,0.0,0.0,0.0,0.0,0.0,0.0,0.0,0.0,0.0,0.0,0.0,0.0,0.0,0.0,0.0,0.0,4.306,4.5544,4.8147,5.084,5.2935,5.4341,5.494,5.2725,4.9942,4.6711,0.0,0.0,0.0,0.0,0.0,0.0,0.0,0.0,0.0,0.0,0.0,0.0,0.0,0.0,0.0,0.0,0.0,0.0,0.0,0.0,0.0,0.0,0.0,0.0,0.0,0.0,0.0,0.0,0.0,0.0,0.0,0.0,0.0,0.0,0.0,0.0,0.0,0.0,0.0,0.0,0.0,0.0,0.0,0.0,0.0,0.0,0.0,0.0,0.0,0.0,0.0,0.0,0.0,0.0,0.0,0.0,0.0,0.0,0.0,0.0,4.8545,0.0,0.0,0.0,0.0,0.0,0.0,0.0,0.0,0.0,0.0,0.0,0.0,0.0,0.0,0.0,0.0,0.0,0.0,0.0,0.0,0.0,0.0,0.0,0.0,0.0,0.0,0.0,0.0,0.0,0.0,0.0,0.0,0.0,0.0,0.0,0.0,0.0,0.0,0.0,0.0,0.0,4.3,4.4736,4.695,5.0122,5.2217,5.3443,5.3593,5.2606,5.081,4.8057,4.5155,0.0,0.0,0.0,0.0,0.0,0.0,0.0,0.0,0.0,0.0,0.0,0.0,0.0,0.0,0.0,0.0,0.0,0.0,0.0,0.0,0.0,0.0,0.0,0.0,0.0,0.0,0.0,0.0,0.0,0.0,0.0,0.0,0.0,0.0,0.0,0.0,0.0,0.0,0.0,0.0,0.0,0.0,0.0,0.0,0.0,0.0,0.0,0.0,0.0,0.0,0.0,0.0,0.0,0.0,0.0,0.0,0.0,0.0,0.0,0.0,4.9999,0.0,0.0,0.0,0.0,0.0,0.0,0.0,0.0,0.0,0.0,0.0,0.0,0.0,0.0,0.0,0.0,0.0,0.0,0.0,0.0,0.0,0.0,0.0,0.0,0.0,0.0,0.0,0.0,0.0,0.0,0.0,0.0,0.0,0.0,0.0,0.0,0.0,0.0,0.0,0.0,4.303,4.4766,4.692,4.9912,5.2007,5.3324,5.3653,5.3054,5.1558,4.8925,4.6531,0.0,0.0,0.0,0.0,0.0,0.0,0.0,0.0,0.0,0.0,0.0,0.0,0.0,0.0,0.0,0.0,0.0,0.0,0.0,0.0,0.0,0.0,0.0,0.0,0.0,0.0,0.0,0.0,0.0,0.0,0.0,0.0,0.0,0.0,0.0,0.0,0.0,0.0,0.0,0.0,0.0,0.0,0.0,0.0,0.0,0.0,0.0,0.0,0.0,0.0,0.0,0.0,0.0,5.5919,5.6934,5.7374,5.7645,5.8118,5.8524,5.5547,5.2706,5.0236,5.1217,0.0,0.0,0.0,0.0,0.0,0.0,0.0,0.0,0.0,0.0,0.0,0.0,0.0,0.0,0.0,0.0,0.0,0.0,0.0,0.0,0.0,0.0,0.0,0.0,4.848,4.5693,4.3389,0.0,0.0,0.0,0.0,0.0,0.0,0.0,0.0,0.0,0.0,0.0,4.3019,4.5005,4.7279,4.9793,5.1828,5.3234,5.3803,5.3324,5.1977,4.9583,4.8087,4.6022,0.0,0.0,0.0,0.0,0.0,0.0,0.0,0.0,0.0,0.0,0.0,0.0,0.0,0.0,0.0,0.0,0.0,0.0,0.0,0.0,0.0,0.0,0.0,0.0,0.0,0.0,0.0,0.0,0.0,0.0,0.0,0.0,5.0033,5.071,0.0,0.0,0.0,0.0,0.0,0.0,0.0,0.0,0.0,0.0,0.0,0.0,0.0,5.4972,5.7002,5.7746,5.7848,5.734,5.9539,6.025,5.9708,6.1028,6.1704,6.1806,6.1975,0.0,5.4735,5.3653,0.0,0.0,0.0,0.0,0.0,0.0,0.0,0.0,0.0,0.0,0.0,0.0,0.0,0.0,0.0,0.0,0.0,0.0,0.0,0.0,0.0,0.0,4.9885,4.8743,4.7379,4.6052,0.0,4.4526,4.3988,4.3329,4.2101,0.0,0.0,0.0,0.0,0.0,0.0,0.0,4.2449,4.4736,4.71,4.9164,5.1169,5.2366,5.2456,5.2366,5.1708,5.0212,4.8356,4.686,4.5843,4.3509,0.0,0.0,0.0,0.0,0.0,0.0,0.0,0.0,0.0,0.0,0.0,0.0,0.0,0.0,0.0,0.0,0.0,0.0,0.0,0.0,0.0,0.0,0.0,0.0,0.0,0.0,0.0,0.0,0.0,5.1251,5.2435,5.0236,5.2198,5.2334,0.0,0.0,0.0,0.0,0.0,0.0,0.0,0.0,0.0,5.7611,5.8118,5.9032,6.0419,6.1163,6.1569,6.167,6.3531,6.441,6.4512,6.5189,6.573,6.617,6.6034,6.4444,6.1704,5.8524,5.6021,5.4025,0.0,0.0,0.0,0.0,4.9349,4.9516,5.027,5.0759,0.0,5.1657,0.0,0.0,0.0,0.0,0.0,0.0,0.0,0.0,0.0,0.0,5.3285,5.1933,5.1121,5.0235,4.8923,4.7549,4.6022,0.0,4.3524,4.3548,4.426,0.0,0.0,0.0,0.0,4.2439,4.3349,4.5783,4.7908,4.9134,5.102,5.2187,5.2187,5.2546,5.2336,5.1409,4.9823,4.8506,4.7489,4.5603,4.4317,0.0,0.0,0.0,0.0,0.0,0.0,0.0,0.0,0.0,0.0,0.0,0.0,0.0,0.0,0.0,0.0,0.0,0.0,0.0,0.0,0.0,0.0,0.0,0.0,0.0,0.0,0.0,0.0,5.3112,5.4329,5.0608,5.4126,5.4871,0.0,0.0,0.0,0.0,0.0,0.0,5.5852,5.7239,5.9066,6.1467,6.211,6.2956,6.4106,6.4647,6.5222,6.5764,6.7049,6.7963,6.8504,6.8673,6.9113,6.962,6.9045,6.8368,6.732,6.2821,5.9573,5.7239,5.5378,5.3599,5.1974,5.1614,5.1262,5.121,5.2421,5.3063,5.3345,5.345,5.2841,5.1792,5.0304,0.0,0.0,0.0,0.0,5.3957,5.4702,5.5536,5.6001,5.536,5.4672,5.3773,5.2063,5.0306,4.8207,0.0,4.4796,4.486,4.5078,0.0,0.0,0.0,0.0,4.3381,4.4188,4.6501,4.8356,4.9164,5.072,5.1768,5.1947,5.2396,5.2486,5.1977,5.102,4.9972,4.8835,4.7369,4.5873,4.4377,0.0,0.0,0.0,0.0,0.0,0.0,0.0,0.0,0.0,0.0,0.0,0.0,0.0,0.0,0.0,0.0,0.0,0.0,0.0,0.0,0.0,0.0,0.0,0.0,0.0,0.0,0.0,0.0,0.0,5.3484,5.7171,0.0,0.0,0.0,0.0,5.531,5.6055,5.7442,5.9708,6.0622,6.2415,6.5324,6.5459,6.6542,6.8741,6.8808,6.8842,6.8876,6.9654,7.0026,7.0094,7.0804,7.1176,7.121,7.1176,7.0703,6.9688,6.5189,6.2821,6.1772,5.8829,5.6746,5.5249,5.3985,5.2681,5.1771,5.2313,5.2702,5.328,5.5732,5.5615,5.4126,5.2604,5.2164,0.0,0.0,5.3348,5.4702,5.5446,5.5936,5.6402,5.7047,5.6039,5.4603,5.3179,5.1972,5.0122,0.0,4.4706,4.3419,4.3389,0.0,4.2359,4.2496,4.3468,4.4197,4.4287,4.6112,4.7848,4.9134,4.9912,5.0601,5.1229,5.1289,5.1319,5.1259,5.1199,5.087,5.0182,4.8297,4.7219,4.71,4.3958,0.0,0.0,0.0,0.0,0.0,0.0,0.0,0.0,0.0,0.0,0.0,0.0,0.0,0.0,0.0,0.0,0.0,0.0,0.0,0.0,0.0,0.0,0.0,0.0,0.0,0.0,0.0,0.0,5.6635,6.0841,0.0,5.8863,5.8287,5.8457,5.9268,5.9979,6.1366,6.3565,6.4884,6.6474,6.8504,6.9519,7.0398,7.121,7.1684,7.1921,7.1921,7.1718,7.1616,7.1616,7.1413,7.1312,7.1312,7.1312,7.1176,7.077,6.8673,6.6779,6.5019,6.299,6.1179,5.9455,5.7624,5.7184,5.7397,5.6263,5.658,5.7331,5.6385,5.5108,5.3788,5.3247,5.3416,5.3788,5.3788,5.5175,5.6765,5.7036,5.8261,5.9354,5.8837,5.8326,5.7387,5.5402,5.3898,5.2307,4.9945,4.7549,4.5873,4.5873,4.4257,4.3269,4.4107,4.4287,4.4616,4.5484,4.7339,4.8745,4.9224,5.0242,5.096,5.1199,5.084,5.0601,5.0601,5.0182,4.9853,4.9613,4.8536,4.7549,4.6681,4.4676,4.3299,0.0,0.0,0.0,0.0,0.0,0.0,0.0,0.0,0.0,0.0,0.0,0.0,0.0,0.0,0.0,0.0,0.0,0.0,0.0,0.0,0.0,0.0,0.0,0.0,0.0,0.0,6.0365,6.0436,6.4909,6.6677,6.3463,6.3159,6.3362,6.3903,6.4613,6.5865,6.7861,6.9113,7.0263,7.1278,7.2496,7.3037,7.2766,7.3477,7.3747,7.3477,7.3003,7.2631,7.2394,7.1887,7.1548,7.1312,7.1312,7.1312,7.1278,7.077,6.9688,6.8199,6.6711,6.5143,6.3474,6.1833,6.1303,6.1019,5.9287,5.9676,6.0452,5.7983,5.6359,5.531,5.5074,5.531,5.575,5.6021,5.7137,5.8389,5.8896,6.0182,6.1177,6.0598,6.0225,5.946,5.7611,5.5677,5.3866,5.2428,5.0035,4.8087,4.7429,4.5843,4.4975,4.5843,4.5424,4.5544,4.713,4.8267,4.9105,4.9553,5.0361,5.096,5.1199,5.0631,5.0242,5.0242,4.9194,4.8596,4.8596,4.7967,4.7219,4.6352,4.4556,4.3329,4.2671,0.0,0.0,0.0,0.0,0.0,0.0,0.0,0.0,0.0,0.0,0.0,0.0,0.0,0.0,0.0,0.0,0.0,0.0,0.0,0.0,0.0,0.0,0.0,5.5576,6.0241,6.3822,6.4667,6.935,7.1075,6.7489,6.8436,6.9316,6.9282,6.9925,7.0939,7.236,7.3105,7.351,7.351,7.4255,7.4289,7.3612,7.4356,7.4356,7.3612,7.3612,7.3206,7.2496,7.2462,7.2022,7.1345,7.1312,7.1312,7.1312,7.1312,7.1312,7.1176,6.9722,6.8339,6.7103,6.6377,6.4546,6.2175,6.1249,6.1546,6.2178,6.0655,5.9674,5.893,5.8186,5.7949,5.8118,5.8829,5.9066,5.9438,6.0926,6.1332,6.1501,6.2212,6.148,6.0505,5.9779,5.7213,5.4943,5.4137,5.2002,4.9673,4.7728,4.7369,4.7369,4.7369,4.683,0.0,4.9015,4.8716,4.8835,5.0092,5.0272,5.0541,5.1169,5.0631,5.0212,5.0152,4.8327,4.7249,4.7219,4.6591,4.6262,4.6262,4.3748,4.2102,4.1444,0.0,0.0,0.0,0.0,0.0,0.0,0.0,0.0,0.0,0.0,0.0,0.0,0.0,0.0,0.0,0.0,0.0,0.0,0.0,0.0,0.0,0.0,5.7465,5.7598,6.1767,6.5934,6.8619,7.1968,7.4052,7.4119,7.3984,7.3646,7.3138,7.3274,7.3341,7.3206,7.3375,7.3747,7.4289,7.4999,7.5574,7.5946,7.669,7.6961,7.6758,7.6217,7.554,7.4762,7.368,7.28,7.209,7.1548,7.1312,7.1312,7.1312,7.1312,7.1278,7.0872,7.049,6.9961,6.8208,6.6143,6.424,6.4895,6.4321,6.3057,6.2076,6.1264,6.052,5.9742,5.9505,5.9539,5.9742,6.0216,6.0791,6.1197,6.1704,6.2144,6.2347,6.211,6.1609,6.0522,5.9278,5.7592,5.5215,5.3773,5.2184,4.9854,4.9045,4.8716,4.8716,4.8566,0.0,4.9194,4.9523,4.9823,5.0212,5.1079,5.1528,5.1259,5.0631,4.9643,4.8207,4.6681,4.5633,4.5155,4.4975,4.4855,4.4855,4.4137,4.3479,0.0,0.0,0.0,0.0,0.0,0.0,0.0,0.0,0.0,0.0,0.0,0.0,0.0,0.0,0.0,0.0,0.0,0.0,0.0,0.0,0.0,0.0,5.9471,6.2144,6.3183,6.5888,6.9185,7.2768,7.5157,7.686,7.7739,7.713,7.6487,7.6048,7.5439,7.5168,7.5371,7.5067,7.527,7.6014,7.6758,7.7198,7.7367,7.8077,7.8314,7.7976,7.7232,7.6657,7.6149,7.4661,7.3544,7.28,7.209,7.1616,7.1312,7.1312,7.1312,0.0,0.0,0.0,0.0,0.0,6.7811,6.6635,6.6456,6.5346,6.3835,6.3091,6.2347,6.167,6.1197,6.1061,6.1061,6.1061,6.14,6.1772,6.1772,6.2076,6.2381,6.2381,6.2381,6.2223,6.148,6.0472,5.9034,5.73,5.5606,0.0,5.2459,5.0819,4.9673,4.9673,4.9434,4.9464,5.0002,5.0182,5.0361,5.0631,5.1319,5.1618,5.1259,5.0361,0.0,0.0,0.0,4.4586,4.3928,4.3898,0.0,0.0,0.0,4.4018,4.3359,0.0,0.0,0.0,4.0965,4.0367,0.0,0.0,0.0,0.0,0.0,0.0,0.0,0.0,0.0,0.0,0.0,0.0,0.0,0.0,0.0,0.0,6.326,6.7151,7.0263,7.1413,7.3206,7.6623,7.8348,7.9261,7.9363,7.8754,7.8314,7.8247,7.6893,7.6623,7.7908,0.0,0.0,0.0,0.0,7.8822,7.8247,7.8889,7.8889,7.8213,7.757,7.7232,7.7096,7.5574,7.4458,7.368,7.2868,7.2124,7.1447,7.1447,7.1379,7.1312,7.1312,7.1312,7.1098,6.9949,6.9395,6.8904,6.6784,0.0,0.0,6.3843,6.3147,6.2618,6.255,6.2448,6.2381,6.2381,6.2381,6.2381,6.2381,6.2381,6.2381,6.2381,6.2381,6.2381,6.2381,6.106,5.9878,5.9614,5.7245,5.5223,5.5069,5.2519,5.0541,5.0481,4.9972,5.0002,5.1079,5.072,5.0571,5.1169,0.0,0.0,5.1229,5.0152,4.9105,4.8237,4.5753,4.4047,4.3479,4.3509,4.3808,4.4317,4.4377,4.4107,4.3449,4.3449,4.3449,4.3419,4.2791,4.1863,0.0,0.0,0.0,0.0,0.0,0.0,0.0,0.0,0.0,0.0,0.0,0.0,0.0,0.0,0.0,6.2922,6.6305,6.9688,7.3274,7.4931,7.6318,7.7638,7.9092,8.0209,8.0818,8.075,8.0412,7.9803,7.8957,7.8314,7.801,7.7841,7.8111,7.8855,7.9025,7.9329,7.9769,7.9904,7.9904,7.9769,0.0,0.0,7.8619,7.713,7.6014,7.5202,7.3849,7.2868,7.2191,7.2191,7.1853,7.1312,7.1312,7.1312,7.1312,7.1007,7.0524,6.968,6.7604,6.7035,6.6846,6.4494,6.3935,6.4072,6.3463,6.2854,0.0,6.2381,6.2381,6.2381,6.2381,6.2381,6.2381,6.2381,6.2381,6.2381,6.2381,6.2088,6.1388,5.9878,5.8324,5.681,5.5223,5.3645,5.2426,5.1887,5.1708,5.1528,5.1259,5.1109,5.1079,5.1199,5.1678,5.1798,5.1259,5.099,4.9883,4.7638,4.5484,4.4257,4.4137,4.4646,4.4736,4.4317,4.4825,4.4796,4.4137,4.4137,4.4137,4.4107,4.3479,4.303,0.0,0.0,0.0,0.0,0.0,0.0,0.0,0.0,0.0,0.0,0.0,5.6258,0.0,0.0,6.2922,6.6305,6.935,7.2326,7.5337,7.7367,7.8686,7.9058,7.9735,8.0615,8.1731,8.1494,8.1291,8.1291,8.0276,7.9667,7.9634,7.8957,7.8889,7.9634,7.9667,7.9837,8.0209,8.0209,8.0209,8.0209,7.9837,7.9667,7.96,7.8111,7.7029,7.6217,7.4695,7.3409,7.236,7.1988,7.165,7.1312,7.1312,7.1312,7.1312,7.1312,7.0838,6.9972,6.8629,6.7324,6.6155,6.4686,6.3718,6.3099,6.2999,6.2685,6.2381,6.2381,6.2381,6.2381,6.2381,6.2381,6.2381,6.2381,6.2381,6.2381,6.2381,6.2381,6.2088,6.1173,6.0059,5.8874,5.7964,5.631,5.4552,5.2942,5.2695,5.2456,5.1798,5.1708,5.1588,5.1259,5.1498,5.1558,5.1259,5.0631,4.9553,4.7908,4.6232,4.5304,4.5304,4.5304,4.5125,4.4825,4.5454,4.5663,4.5304,4.5663,4.5992,4.6292,4.5633,4.4796,0.0,0.0,0.0,0.0,0.0,0.0,0.0,0.0,5.5649,5.7848,5.8896,6.025,6.2956,6.4681,6.6576,6.9316,7.209,7.4661,7.6792,7.8889,8.0344,8.0784,8.0851,8.1257,8.2306,8.2002,8.1968,8.2577,8.1393,8.0885,8.146,8.0242,7.9803,8.0378,8.0276,8.0209,8.0209,8.0209,8.0209,8.0175,7.96,7.9634,8.0141,7.8822,7.7807,7.6995,7.5202,7.3713,7.2563,7.1684,7.1312,7.1312,7.1312,7.1312,7.1312,7.1312,7.0939,7.0297,6.9254,6.7335,6.5279,6.4634,6.3344,6.2055,6.2393,6.2527,6.2584,6.2415,6.2381,6.2381,6.2381,6.2381,6.2415,6.2584,6.2482,6.2415,6.2584,6.2618,6.2618,6.2618,6.1732,6.0981,6.0816,5.9004,5.6712,5.4117,5.3549,5.3084,5.2306,5.2187,5.1947,5.1289,5.1229,5.1259,5.1409,5.0212,4.9284,4.8895,4.7638,4.683,4.6711,4.6172,4.5813,4.5693,4.6352,4.6711,4.6711,4.7369,4.7967,4.8476,4.7938,4.6741,5.3923,5.2435,5.2164,5.4499,5.4769,5.5818,0.0,0.0,6.1061,6.326,6.4309,6.5324,6.6981,6.8538,7.0094,7.1751,7.395,7.6014,7.7638,7.9228,8.0919,8.2881,8.3118,8.2949,8.2475,8.2915,8.3287,8.3355,8.2611,8.2205,8.2272,8.1494,8.1088,8.1156,8.0547,8.0209,8.0209,8.0209,8.0209,8.0209,8.0107,8.0107,8.0175,7.9363,7.8585,7.7705,7.483,7.351,7.324,7.1887,7.1312,7.1312,7.1312,7.1312,7.1312,7.1312,7.1278,7.0861,6.8985,6.7691,6.6555,6.4799,6.3909,6.3452,6.2847,6.3016,6.326,6.2584,6.2381,6.2381,6.2381,6.2381,6.255,6.3226,6.2888,6.2584,6.326,6.3396,6.3396,6.3396,6.2899,6.2385,6.1725,6.0429,5.868,5.6061,5.4795,5.3623,5.2366,5.2187,5.1947,5.1289,5.1229,5.1439,5.2037,5.09,5.0361,5.084,4.9673,4.8686,4.8087,4.7997,4.7668,4.71,4.7728,4.8057,4.8057,4.8716,4.9075,4.9164,4.9075,4.8626,5.6487,5.5581,0.0,0.0,5.8084,6.0554,6.3463,6.4647,6.5899,6.8605,6.9722,7.0669,7.2157,7.2969,7.3747,0.0,7.6521,7.8044,7.9126,8.0547,8.1528,8.1562,8.234,8.3084,8.3659,8.3558,8.3693,8.4133,8.3456,8.305,8.305,8.1934,8.1494,8.1934,8.0818,8.0412,8.0818,8.0412,8.0209,8.0209,8.0209,8.0209,8.0175,7.9431,7.8213,7.6521,7.4424,7.324,7.2766,7.1751,7.1312,7.1312,7.1312,7.1312,7.1312,7.1312,7.1312,7.112,6.9827,6.8353,6.6845,6.5106,6.4276,6.3682,6.2903,6.3099,6.3463,6.3125,6.2719,6.2381,6.2381,6.2381,6.2482,6.2787,6.2956,6.3125,6.3463,6.3835,6.414,6.414,6.4016,6.3752,6.345,6.2022,6.0364,5.849,5.69,5.5226,5.3571,5.3025,5.2516,5.1858,5.1798,5.2067,5.2725,5.2276,5.1917,5.1798,5.093,5.0122,4.9434,4.8686,4.8327,4.8446,4.7967,4.8087,4.8865,4.8745,4.9105,4.9823,4.9434,4.9314,5.7763,0.0,0.0,5.8761,6.1873,6.5087,6.644,6.8301,7.05,7.3105,7.4052,7.483,7.6082,7.6487,7.6826,7.7401,7.8754,7.9972,8.0716,8.1562,8.1697,8.0615,8.1088,8.2002,8.3287,8.3456,8.3795,8.4573,8.4133,8.3795,8.3795,8.2408,8.1832,8.2408,8.0987,8.0547,8.1291,8.075,8.0513,8.0513,8.0513,8.0412,8.0175,7.9228,7.7908,7.6217,7.4322,7.3172,7.2631,7.1684,7.1312,7.1312,7.1312,7.1312,7.1312,7.1312,7.1312,7.1244,7.0703,6.9176,6.7142,6.5488,6.4512,6.3669,6.2787,6.2855,6.3329,6.3485,6.2956,6.2448,6.2651,6.2685,6.2821,6.3193,6.3565,6.3869,6.4072,6.4546,6.4884,6.4884,6.5087,6.5155,6.4952,6.3718,6.2306,6.0623,5.8931,5.696,5.448,5.3593,5.2995,5.2516,5.2486,5.2755,5.3414,5.3294,5.3054,5.2785,5.1947,5.1199,5.0541,4.9434,4.8955,4.9254,4.8506,4.8596,4.9523,4.9254,4.9583,5.0511,5.0032,5.0062,0.0,0.0,5.893,6.3294,6.6068,6.8538,7.1481,7.3341,7.4864,7.6454,7.6792,7.7029,7.7773,7.8517,7.9025,7.9058,8.0276,8.1494,8.2238,8.1765,8.1291,8.1257,8.004,7.9498,0.0,8.2238,8.3795,8.4573,8.4606,8.4606,8.4606,8.3186,8.2408,8.2408,8.0987,8.0547,8.1291,8.1257,8.1257,8.1257,8.1257,8.0885,8.0141,7.8686,7.7976,7.7739,7.4762,7.3477,7.3341,7.1921,7.1312,7.1312,7.1312,7.1312,7.1312,7.1312,7.1312,7.1312,7.1278,6.9946,6.7871,6.5836,6.4737,6.3805,6.2332,6.2301,6.2855,6.3343,6.2956,6.255,6.3294,6.3497,6.3835,6.5256,6.5053,6.4749,6.5459,6.5628,6.5662,6.5662,6.6237,6.6508,6.5764,6.5628,6.4673,6.2042,6.0615,5.8497,5.4638,5.3593,5.3174,5.3144,5.3144,5.3443,5.4132,5.3563,5.3443,5.4102,5.2905,5.1887,5.1229,5.0541,4.9883,4.9284,4.9853,5.0182,5.0212,5.084,5.1139,5.1199,5.1169,5.1169,5.7641,0.0,6.3415,6.7352,7.0703,7.3747,7.6284,7.7976,7.9194,7.9701,7.8653,7.7536,7.7299,7.7029,7.7164,7.8213,8.0006,8.1731,8.2949,8.2915,8.2035,8.0073,7.9837,0.0,0.0,0.0,0.0,8.3761,8.3862,8.4099,8.4606,8.3693,8.3118,8.3118,8.1697,8.1021,8.1291,8.0818,8.0547,8.0547,8.0547,7.9938,7.8686,7.7705,7.6724,7.5642,7.3646,7.2766,7.2699,7.1718,7.1312,7.1312,7.1312,7.1312,7.1312,7.1312,7.1312,7.1312,7.1312,7.0501,6.9219,6.7644,6.6674,6.5894,6.5531,6.4735,6.4321,6.5396,6.4816,6.3903,6.4174,6.4241,6.4343,6.485,6.5155,6.5392,6.5628,6.6068,6.644,6.644,6.6643,6.6745,6.6474,6.6,6.479,6.2127,5.9601,5.7086,5.451,5.4012,5.3862,5.3862,5.3862,5.4132,5.479,5.464,5.4431,5.4221,5.3773,5.3025,5.1917,5.1229,5.078,5.0571,4.9912,5.0032,5.09,5.0661,5.102,5.1858,5.1439,5.1678,5.9911,6.3629,6.7598,7.1231,7.4719,7.7773,7.9498,8.0615,8.1122,8.0615,7.872,7.686,7.5879,7.5033,7.5033,7.6521,7.8179,8.0073,8.2374,8.2035,8.1021,7.9667,7.9464,7.8957,0.0,0.0,0.0,8.2543,8.3186,8.3693,8.42,8.3761,8.3389,8.3118,8.1934,8.1291,8.1291,8.0818,8.0581,8.0581,8.0073,7.9295,7.8348,7.7367,7.6217,7.4931,7.3443,7.2631,7.2326,7.1616,7.1312,7.1312,7.1312,7.1312,7.1312,7.1312,7.1312,7.1312,7.1312,7.1007,7.0321,6.8732,6.7801,6.7279,6.6638,6.5535,6.4741,6.5746,6.5191,6.4372,6.4904,6.4986,6.5053,6.5324,6.5764,6.6102,6.6102,6.6474,6.6812,6.6812,6.6812,6.6812,6.6812,6.6203,6.4992,6.2822,6.0315,5.7808,5.5536,5.4819,5.4551,5.4551,5.4551,5.473,5.5149,5.5179,5.4999,5.4581,5.4341,5.3832,5.2965,5.2276,5.1798,5.1558,5.075,5.0601,5.1229,5.078,5.1139,5.2187,5.1768,5.2157,6.3173,6.7483,7.1123,7.4911,7.8111,8.0412,8.119,8.1325,8.0851,7.9329,7.7096,7.4931,0.0,0.0,7.2699,7.4255,7.527,7.7164,8.0919,7.9634,7.8822,0.0,0.0,0.0,0.0,0.0,0.0,8.1122,0.0,8.3422,8.3558,8.3558,8.3219,8.2475,8.1731,8.1325,8.1291,8.1257,8.1224,8.1224,7.9803,7.9092,7.8991,7.7502,7.6386,7.5506,7.4052,7.3003,7.2293,7.1616,7.1312,7.1312,7.1312,7.1312,7.1312,7.1312,7.1312,7.1312,7.1312,7.1312,7.0996,6.9025,6.8291,6.7874,6.5998,6.4799,6.4288,6.4866,6.4539,6.4244,6.5514,6.5764,6.5933,6.6643,6.6812,6.6812,6.6812,6.6812,6.6812,6.6812,6.6812,6.6812,6.6812,6.6203,6.5295,6.4167,6.2715,6.0629,5.7495,5.6047,5.534,5.5179,5.5209,5.5239,5.5179,5.5179,5.5179,5.5179,5.461,5.4251,5.4221,5.3593,5.2905,5.2217,5.2187,5.1887,5.1229,5.1229,5.1558,5.2247,5.2217,5.2606,6.4847,6.9064,7.3327,7.7062,7.9452,8.1134,8.1963,8.1697,8.0547,7.7976,7.4322,7.0804,0.0,0.0,0.0,7.2529,7.5946,0.0,8.3253,8.3287,0.0,0.0,0.0,8.0716,7.9261,7.9904,0.0,0.0,8.1629,8.2577,8.4234,8.4336,8.3998,8.3253,8.2509,8.1866,8.1291,8.075,8.0479,8.0479,7.9532,7.8822,7.8213,7.669,7.527,7.3984,7.3071,7.2259,7.1582,7.1379,7.1312,7.1312,7.1312,7.1312,7.1312,7.1312,7.1312,7.1312,7.1312,7.1312,7.1188,7.068,6.9776,6.9016,6.9577,6.8479,6.7254,6.8483,6.7867,6.6858,6.7235,6.6948,6.6576,6.6779,6.6812,6.6812,6.6812,6.6812,6.6812,6.6812,6.6812,6.6812,6.6812,6.6203,6.5579,6.5295,6.3696,6.1377,5.8213,5.7505,5.6762,5.534,5.5628,5.5718,5.5239,5.5179,5.5179,5.5179,5.5029,5.473,5.4221,5.4042,5.3384,5.2217,5.2187,5.1887,5.1229,5.1229,5.1798,5.2905,5.2426,5.3084,6.7421,7.1598,7.5372,7.7262,7.9918,8.1586,8.0175,7.9902,7.8517,7.3883,7.0161,0.0,0.0,0.0,0.0,0.0,0.0,0.0,8.2509,8.2881,8.2577,0.0,8.2611,0.0,8.1156,8.1494,8.2035,0.0,8.2441,8.2813,8.4065,8.4437,8.4133,8.305,8.2644,8.19,8.0818,8.0412,8.0209,8.0175,7.9464,7.872,7.7942,7.6758,7.5236,7.3477,0.0,7.2293,7.1312,7.1312,7.1312,7.1312,7.1312,7.1312,7.1312,7.1312,7.1312,7.1312,7.1312,7.1312,7.1312,7.1312,7.0791,7.0136,7.0356,6.9556,6.8653,6.9169,6.865,6.8037,6.8331,6.7861,6.7387,6.7726,6.732,6.6914,6.7218,6.7049,6.6812,6.6812,6.6812,6.6812,6.6812,6.6474,6.617,6.617,6.4992,6.3231,6.0981,5.9127,5.7721,5.6968,5.6485,5.6137,5.6047,5.6017,5.5897,5.5658,5.5628,5.5329,5.467,5.464,5.4162,5.3114,5.3084,5.2606,5.1648,5.1947,5.2456,5.3174,5.3114,5.3832,7.062,7.4324,7.7185,7.6856,7.9713,8.1525,7.7467,7.6908,7.527,6.8808,0.0,6.299,6.0182,6.1061,6.3531,6.7421,0.0,7.4762,8.075,8.1021,8.1393,8.3422,8.3659,8.3659,8.3659,8.3084,8.3253,8.4539,8.4031,8.3659,8.3659,8.4268,8.393,8.2475,8.2408,8.1697,8.0209,8.0209,8.0209,8.0175,7.9464,7.8754,7.8111,7.7266,7.5743,7.3781,7.3578,7.2699,7.1447,7.1345,7.1312,7.1312,7.1312,7.1312,7.1312,7.1312,7.1312,7.1312,7.1312,7.1312,7.1312,7.1312,7.1312,7.1098,6.9855,6.9537,6.9405,6.8682,6.8418,6.8533,6.912,6.8673,6.8233,6.8944,6.7996,6.7117,6.776,6.732,6.6846,6.6948,6.6948,6.6981,6.7117,6.7117,6.7083,6.6981,6.6406,6.5564,6.442,6.111,5.8933,5.9073,5.7638,5.6792,5.7064,5.7094,5.6855,5.6316,5.6286,5.6017,5.5359,5.5329,5.497,5.4221,5.4221,5.3593,5.2336,5.2905,5.3234,5.3324,5.3922,5.4551,7.3732,7.5563,7.7197,7.8473,7.9069,7.886,7.6911,7.4439,0.0,0.0,6.2415,5.9438,5.7679,5.9641,6.3125,6.8098,0.0,0.0,0.0,0.0,8.3287,0.0,0.0,0.0,0.0,0.0,0.0,0.0,0.0,8.4437,8.4437,8.4539,8.393,8.2475,8.2408,8.1697,8.0209,8.0209,8.0209,8.0175,7.9464,7.9058,7.8855,7.7502,7.6318,7.5236,7.4018,0.0,7.2157,7.1548,7.1312,7.1312,7.1312,7.1312,7.1312,7.1312,7.1312,7.1312,7.1312,7.1312,7.1312,7.1312,7.1312,7.1222,7.1007,7.0916,7.0882,7.0748,7.0276,6.9861,7.0026,6.9451,6.8944,6.9079,6.8402,6.776,6.7861,6.732,6.6981,6.759,6.7726,6.7929,6.8605,6.8707,6.847,6.7793,6.759,6.7201,6.639,6.4244,6.187,5.9363,5.934,5.8828,5.7228,5.7094,5.7064,5.6944,5.6944,5.6645,5.6017,5.6017,5.5448,5.4221,5.4221,5.3803,5.3025,5.3114,5.3473,5.4042,5.4162,5.4551,7.6036,7.7382,7.8333,7.8534,7.8491,7.7334,7.3242,0.0,0.0,0.0,5.8795,5.6833,5.5344,5.7509,0.0,0.0,0.0,0.0,0.0,0.0,0.0,0.0,0.0,0.0,0.0,0.0,0.0,0.0,0.0,8.464,8.464,8.3896,8.3152,8.2441,8.1663,8.0919,8.0209,8.0209,8.0209,8.0209,7.9837,7.9464,7.9058,7.7976,7.6826,7.5642,7.4559,7.3646,7.2902,7.2191,7.1887,7.1853,7.1447,7.1312,7.1312,7.1312,7.1312,7.1312,7.1312,7.1312,7.1312,7.1312,7.1312,7.1312,7.1312,7.1312,7.1312,7.1312,7.1075,7.077,7.077,7.0229,6.9755,7.0161,6.935,6.8301,6.7523,6.7049,6.6914,6.7252,6.7658,6.803,6.8402,6.8808,6.8977,6.8571,6.8504,6.8267,6.7489,6.6503,6.4671,6.1502,6.0527,5.9584,5.8248,5.8141,5.7992,5.7663,5.7633,5.7334,5.6675,5.6645,5.6346,5.5718,5.5388,5.491,5.4221,5.4221,5.4221,5.4221,5.4551,5.5059,7.7682,7.8998,7.9746,7.8549,7.7973,7.6177,6.9866,6.7153,0.0,0.0,5.5812,5.4938,5.3923,5.575,5.8693,0.0,0.0,0.0,0.0,0.0,0.0,0.0,0.0,0.0,0.0,0.0,0.0,0.0,0.0,0.0,8.464,8.3355,8.2577,8.2408,8.1122,8.0344,8.0209,8.0209,8.0209,8.0209,8.0209,7.9904,7.9329,7.8416,7.7333,7.6115,7.5067,7.4187,7.3443,7.2699,7.2326,7.2124,7.1548,7.1312,7.1312,7.1312,7.1312,7.1312,7.1312,7.1312,7.1312,7.1312,7.1312,7.1312,7.1312,7.1312,7.1312,7.1312,7.1312,7.1312,7.1312,7.0872,7.05,7.077,6.9958,6.8673,6.7151,6.6812,6.6914,6.7252,6.776,6.8267,6.8571,6.9147,6.9519,6.935,6.935,6.9045,6.8267,6.8166,6.7045,6.4156,6.2202,6.0664,5.9622,5.9469,5.9182,5.8351,5.8321,5.8022,5.7334,5.7304,5.7244,5.7094,5.6615,5.6107,5.5598,5.5478,5.5119,5.464,5.5029,5.5478,7.834,7.9686,8.0524,7.9806,7.7973,7.4806,6.9123,0.0,0.0,5.6315,5.4439,5.389,5.4397,5.5277,5.7374,0.0,0.0,6.8166,0.0,0.0,0.0,0.0,0.0,0.0,0.0,0.0,0.0,0.0,0.0,0.0,8.464,8.3862,8.3084,8.2441,8.1629,8.0885,8.0209,8.0209,8.0209,8.0209,8.0209,8.0175,8.004,7.8619,7.7908,7.7671,7.554,7.4187,0.0,7.2699,7.2022,7.1413,7.1345,7.1312,7.1312,7.1312,7.1312,7.1312,7.1312,7.1312,7.1312,7.1312,7.1312,7.1312,7.1312,7.1312,7.1312,7.1312,7.1312,7.1312,7.1312,7.1278,7.0906,6.962,6.9214,6.8673,6.7151,6.6812,6.7218,6.8639,6.8944,6.9417,7.077,7.1075,7.0872,7.0195,7.0094,6.9823,6.9079,6.8977,6.8438,6.6845,6.541,6.3447,6.0989,6.0815,6.0298,5.9117,5.9009,5.871,5.8052,5.8022,5.7723,5.7094,5.7034,5.6974,5.6915,5.6346,5.6047,5.5987,5.5448,5.5209,7.8609,8.0674,8.1721,8.0674,7.7505,7.3472,6.8372,0.0,5.9346,5.528,5.3933,5.3585,5.389,5.4194,5.5412,5.8524,5.9404,0.0,6.935,0.0,0.0,0.0,0.0,0.0,0.0,0.0,0.0,0.0,0.0,0.0,8.3964,8.3253,8.2509,8.1765,8.1021,8.0479,8.0209,8.0209,8.0209,8.0209,8.0209,8.0209,8.0175,7.9126,7.8416,7.7908,7.6555,7.554,0.0,7.3544,7.2868,7.2529,7.165,7.1312,7.1312,7.1312,7.1312,7.1312,7.1312,7.1312,7.1312,7.1312,7.1312,7.1312,7.1312,7.1312,7.1312,7.1312,7.1312,7.1312,7.1312,7.1312,7.1041,6.9992,6.9417,6.8808,6.7692,6.7455,6.7658,6.8267,6.9113,6.9958,7.0534,7.1007,7.121,7.0906,7.0872,7.0601,6.9857,6.9755,6.9377,6.8428,6.704,6.5186,6.254,6.1991,6.1182,5.9807,5.9308,5.8979,5.871,5.871,5.859,5.8321,5.7932,5.7723,5.7723,5.7064,5.6735,5.6735,5.6466,5.6555,7.7224,7.9926,8.1631,8.0494,7.6724,7.2049,0.0,6.2074,5.7512,5.4161,5.3235,5.311,5.3416,5.3518,5.416,5.6156,5.6393,5.8727,6.5527,6.6846,0.0,0.0,0.0,0.0,0.0,0.0,0.0,0.0,0.0,0.0,8.2881,8.2374,8.1832,8.1291,8.0581,8.0209,8.0209,8.0209,8.0209,8.0209,8.0209,8.0209,8.0175,7.9228,7.8483,7.7942,7.6961,7.6115,0.0,7.4255,7.3578,7.3071,7.2022,7.1515,7.1312,7.1312,7.1312,7.1312,7.1312,7.1312,7.1312,7.1312,7.1312,7.1312,7.1312,7.1312,7.1312,7.1312,7.1312,7.1312,7.1312,7.1312,7.1109,7.0364,6.9789,6.9214,6.8402,6.8267,6.8335,6.8538,6.9451,7.0263,7.0466,7.0973,7.1312,7.1312,7.1312,7.1109,7.0601,7.0534,7.0331,6.9823,6.8908,6.7221,6.4482,6.3531,6.2488,6.1062,6.0126,5.9697,5.9697,5.9488,5.9398,5.9398,5.8949,5.862,5.8411,5.7932,5.7603,5.7393,5.7184,5.7453,7.3593,7.6844,7.9686,7.8998,7.5318,7.05,6.5203,6.0198,5.5907,5.2898,5.2129,5.2241,5.328,5.3518,5.3991,5.548,5.6934,5.9708,6.4952,6.6948,0.0,0.0,0.0,0.0,0.0,0.0,0.0,0.0,0.0,0.0,8.1393,8.1291,8.1291,8.1291,8.0581,8.0209,8.0209,8.0209,8.0209,8.0209,8.0209,8.0209,8.0141,7.8653,7.801,7.7908,7.6386,7.5303,0.0,7.4593,7.3747,7.2428,7.2394,7.1954,7.1312,7.1312,7.1312,7.1312,7.1312,7.1312,7.1312,7.1312,7.1312,7.1312,7.1312,7.1312,7.1312,7.1312,7.1312,7.1312,7.1312,7.1312,7.1109,7.0364,7.0195,6.9992,6.9248,6.9079,6.9316,7.0026,7.0161,7.0432,7.1176,7.1312,7.1312,7.1312,7.1312,7.1312,7.1312,7.1312,7.1312,7.1312,7.1278,7.0152,6.7268,6.5869,6.4482,6.314,6.1759,6.1104,6.1104,6.0446,6.0086,6.0086,6.0057,5.9727,5.9099,5.9099,5.874,5.8082,5.7423,5.7453,6.7334,7.038,7.2684,7.1128,6.8585,6.5473,6.1553,5.7932,5.4575,5.1818,5.1591,5.1993,5.2312,5.3041,5.416,5.6122,5.7273,5.8998,6.2245,0.0,0.0,0.0,0.0,0.0,0.0,0.0,0.0,0.0,0.0,0.0,8.1359,8.1291,8.1054,8.0547,8.031,8.0209,8.0209,7.9701,7.9701,8.0175,7.916,7.8957,7.9431,7.8416,7.7705,7.7198,7.6149,7.5574,7.527,7.4255,7.3883,7.3815,7.28,7.2259,7.1988,7.1515,7.1312,7.1312,7.1312,7.1312,7.1312,7.1312,7.1312,7.1312,7.1312,7.1312,7.1312,7.1312,7.1312,7.1312,7.1312,7.1312,7.1244,7.1007,7.0567,7.0128,6.9891,6.9857,6.9925,7.0128,7.0601,7.1041,7.1278,7.1312,7.1312,7.1312,7.1312,7.1312,7.1312,7.1312,7.1312,7.1312,7.1312,7.0589,6.8653,6.7779,6.6287,6.3929,6.2918,6.2086,6.1104,6.0894,6.0775,6.0775,6.0775,6.0685,6.0475,6.0475,6.0116,5.9458,5.877,5.859,0.0,6.6375,6.8575,6.7274,6.5188,0.0,5.9477,5.6104,5.3224,5.1209,5.0911,5.1297,5.1809,5.2487,5.3578,5.5612,5.6596,5.8051,6.0892,0.0,0.0,0.0,0.0,0.0,0.0,0.0,0.0,0.0,0.0,0.0,8.0547,8.0716,8.0547,7.9803,8.004,8.0209,8.0209,7.9464,7.9329,7.9769,7.8551,7.8247,7.8653,7.7908,7.7333,7.686,7.6048,7.5709,0.0,7.4695,7.4255,7.4086,7.3172,7.2462,7.1921,7.1481,7.1312,7.1312,7.1312,7.1312,7.1312,7.1312,7.1312,7.1312,7.1312,7.1312,7.1312,7.1312,7.1312,7.1312,7.1312,7.1312,7.1312,7.1312,7.0973,7.0601,7.0601,7.0601,7.0601,7.0601,7.1007,7.1312,7.1312,7.1312,7.1312,7.1312,7.1312,7.1312,7.1312,7.1312,7.1312,7.1312,7.1312,7.0916,7.0043,6.9107,6.7623,6.5387,6.4377,6.3224,6.1965,6.1613,6.1493,6.1493,6.1493,6.1373,6.1104,6.1104,6.0775,6.0086,5.9668,5.9338,0.0,6.407,6.6437,0.0,0.0,6.1366,5.8384,5.477,0.0,5.0764,5.0182,5.0128,5.1647,5.1882,5.2506,5.4462,5.5378,5.7137,6.0723,6.3497,0.0,0.0,0.0,0.0,0.0,0.0,0.0,0.0,0.0,0.0,7.9092,7.9769,7.987,7.9126,7.9837,8.0175,8.0107,7.9397,7.9025,7.9025,7.8213,7.7841,7.7874,7.7164,7.6826,0.0,7.598,7.5642,7.5709,7.5642,7.4796,7.3544,7.351,7.2631,7.1379,7.1345,7.1312,7.1312,7.1312,7.1312,7.1312,7.1312,7.1312,7.1312,7.1312,7.1312,7.1312,7.1312,7.1312,7.1312,7.1312,7.1312,7.1312,7.1312,7.1312,7.1312,7.1312,7.1312,7.1312,7.1312,7.1312,7.1312,7.1312,7.1312,7.1312,7.1312,7.1312,7.1312,7.1312,7.1312,7.1312,7.1312,7.1312,7.1312,7.1312,7.0043,6.8797,6.7368,6.6048,6.4623,6.3279,6.2595,6.2181,6.2181,6.2181,6.1852,6.1253,6.1194,6.0864,6.0236,6.0116,5.9757,5.5222,0.0,5.7825,5.6757,5.584,5.4885,0.0,0.0,0.0,0.0,0.0,0.0,0.0,5.1736,5.2837,5.5812,5.69,5.8084,6.0114,0.0,0.0,0.0,0.0,0.0,0.0,0.0,0.0,0.0,0.0,8.0412,7.8348,7.9498,7.987,7.9126,7.9837,7.9938,7.9363,7.8619,7.8247,7.8247,7.6893,7.6555,7.713,7.6352,7.598,7.5946,7.5202,7.5202,7.5676,7.51,7.4661,7.4289,7.3713,7.2935,7.209,7.1515,7.1312,7.1312,7.1312,7.1312,7.1312,7.1312,7.1312,7.1312,7.1312,7.1312,7.1312,7.1312,7.1312,7.1312,7.1312,7.1312,7.1312,7.1312,7.1312,7.1312,7.1312,7.1312,7.1312,7.1312,7.1312,7.1312,7.1312,7.1312,7.1312,7.1312,7.1312,7.1312,7.1312,7.1312,7.1312,7.1312,7.1312,7.1312,7.1312,7.1007,7.017,6.8797,6.747,6.6048,6.4703,6.3441,6.2839,6.2839,6.2839,6.278,6.26,6.2121,6.1792,6.1613,6.0565,5.9997,5.3315,5.4755,5.581,5.4842,5.4466,5.3989,5.2611,0.0,0.0,0.0,0.0,0.0,0.0,0.0,0.0,5.4628,5.6342,5.8863,0.0,0.0,0.0,0.0,0.0,0.0,0.0,0.0,0.0,0.0,0.0,7.9464,7.7604,7.8551,7.8855,7.8111,7.8822,7.916,7.9126,7.8348,7.7807,7.7468,7.6284,7.5743,7.5845,7.5743,7.5506,7.5202,7.5134,7.5337,7.5676,7.527,7.4728,7.4052,7.3646,7.2834,7.1853,7.1447,7.1312,7.1312,7.1312,7.1312,7.1312,7.1312,7.1312,7.1312,7.1312,7.1312,7.1312,7.1312,7.1312,7.1312,7.1312,7.1312,7.1312,7.1312,7.1312,7.1312,7.1312,7.1312,7.1312,7.1312,7.1312,7.121,7.0872,7.0804,7.0804,7.0804,7.0804,7.0939,7.1278,7.1312,7.1312,7.1312,7.1312,7.1312,7.1312,7.1312,7.0699,6.9313,6.8503,6.7164,6.5219,6.4401,6.3706,6.3079,6.3079,6.3079,6.3079,6.272,6.2391,6.2091,6.1343,6.0835,5.2942,5.5108,5.6752,5.5928,5.5721,5.5175,0.0,0.0,0.0,0.0,0.0,0.0,0.0,0.0,0.0,0.0,0.0,0.0,0.0,0.0,0.0,0.0,0.0,0.0,0.0,0.0,0.0,0.0,0.0,7.8247,7.6623,7.7232,7.7367,7.6724,7.7435,7.8111,7.8788,7.8145,7.7435,7.6724,7.5912,7.5202,7.4627,7.5236,7.5202,7.4661,0.0,0.0,7.5676,7.5574,7.4728,7.3477,7.3375,7.2496,7.1312,7.1312,7.1312,7.1312,7.1312,7.1312,7.1312,7.1312,7.1312,7.1312,7.1312,7.1312,7.1312,7.1312,7.1312,7.1312,7.1312,7.1312,7.1312,7.1312,7.1312,7.1312,7.1312,7.1312,7.1312,7.1312,7.1312,7.1075,7.0331,7.0195,7.0195,7.0195,7.0195,7.0466,7.121,7.1312,7.1312,7.1312,7.1312,7.1312,7.1312,7.1312,7.0791,6.9633,6.9313,6.7974,6.5219,6.5111,6.4512,6.3079,6.3079,6.3079,6.3079,6.3079,6.278,6.2241,6.2151,6.1792,5.2266,5.504,5.7137,5.4527,5.3656,5.3231,0.0,0.0,0.0,0.0,0.0,0.0,0.0,0.0,0.0,0.0,0.0,0.0,0.0,0.0,0.0,0.0,0.0,0.0,0.0,0.0,0.0,0.0,0.0,7.7232,7.5067,7.5642,7.598,7.5879,7.6657,7.713,7.7232,7.713,7.6657,7.5879,7.5134,7.4728,7.4627,7.4728,7.4728,7.4661,0.0,7.5709,7.5642,7.5033,7.4255,7.3443,7.28,7.2056,7.1312,7.1312,7.1312,7.1312,7.1312,7.1312,7.1312,7.1312,7.1312,7.1312,7.1312,7.1312,7.1312,7.1312,7.1312,7.1312,7.1312,7.1312,7.1312,7.1312,7.1312,7.1312,7.1312,7.1312,7.1312,7.1312,7.1312,7.1075,7.0331,7.0195,7.0195,7.0195,7.0195,7.0466,7.121,7.1312,7.1312,7.1312,7.1312,7.1312,7.1312,7.1312,7.1222,7.1007,6.9855,6.7974,6.5219,6.5111,6.4512,6.3079,6.3079,6.3079,6.3079,6.3079,6.3019,6.2899,6.2361,6.2032,5.142,5.3247,5.4837,5.4735,5.614,5.7072,0.0,0.0,0.0,0.0,0.0,0.0,0.0,0.0,0.0,0.0,0.0,0.0,0.0,0.0,0.0,0.0,0.0,0.0,0.0,0.0,0.0,0.0,0.0,0.0,7.4695,7.4525,7.4695,7.51,7.5067,7.5439,7.6251,7.5439,7.5067,7.51,7.4762,7.439,7.4018,7.4424,7.4627,7.4661,0.0,7.5473,7.51,7.4762,7.395,7.2868,7.2529,7.1954,7.1312,7.1312,7.1312,7.1312,7.1312,7.1312,7.1312,7.1312,7.1312,7.1312,7.1312,7.1312,7.1312,7.1312,7.1312,7.1312,7.1312,7.1312,7.1312,7.1312,7.1312,7.1312,7.1312,7.1312,7.1312,7.1312,7.1312,7.1075,7.0331,7.0195,7.0195,7.0195,7.0195,7.0466,7.121,7.1312,7.1312,7.1312,7.1312,7.1312,7.1312,7.1312,7.1312,7.1312,6.9949,6.8306,6.6365,6.5544,6.4512,6.3079,6.3079,6.3079,6.3079,6.3079,6.3079,6.3079,6.278,6.263,5.1082,5.2266,5.3518,5.5277,0.0,0.0,0.0,0.0,0.0,0.0,0.0,0.0,0.0,0.0,0.0,0.0,0.0,0.0,0.0,0.0,0.0,0.0,0.0,0.0,0.0,0.0,0.0,0.0,0.0,0.0,7.439,7.3477,7.3308,7.4086,7.3544,7.3849,7.5168,7.4052,7.3883,7.4627,7.4255,7.3781,7.324,7.4018,7.4356,7.439,7.5134,7.5134,7.4593,7.4255,7.3409,7.2394,7.2225,7.1819,7.1312,7.1312,7.1312,7.1312,7.1312,7.1312,7.1312,7.1312,7.1312,7.1312,7.1312,7.1312,7.1312,7.1312,7.1312,7.1312,7.1312,7.1312,7.1312,7.1312,7.1312,7.1312,7.1312,7.1312,7.1312,7.1312,7.1176,7.0872,7.0297,7.006,6.9992,7.0161,7.0195,7.0466,7.121,7.1312,7.1312,7.1312,7.1312,7.1312,7.1312,7.1312,7.1312,7.1312,7.0263,6.9121,6.7673,6.6365,6.4923,6.3592,6.3279,6.3079,6.3079,6.3079,6.3079,6.3079,6.3079,6.3079,5.1826,5.3822,5.5513,5.5683,0.0,0.0,0.0,0.0,0.0,0.0,0.0,0.0,0.0,0.0,0.0,0.0,0.0,0.0,0.0,0.0,0.0,0.0,0.0,0.0,0.0,0.0,0.0,0.0,0.0,0.0,7.3612,7.2225,7.1819,7.2529,7.2496,7.2868,7.3646,7.3544,7.3883,7.4593,7.3206,7.2529,7.2496,7.324,7.3578,7.3612,7.4356,7.4661,7.4492,7.3138,7.2496,7.2326,7.165,7.1379,7.1312,7.1312,7.1312,7.1312,7.1312,7.1312,7.1312,7.1312,7.1312,7.1312,7.1312,7.1312,7.1312,7.1312,7.1312,7.1312,7.1312,7.1312,7.1312,7.1312,7.1312,7.1312,7.1312,7.1312,7.1312,7.1312,7.0737,7.0263,7.0195,6.962,6.9417,7.0094,7.0195,7.0466,7.121,7.1312,7.1312,7.1312,7.1312,7.1312,7.1312,7.1312,7.1312,7.1312,7.1222,7.0482,6.9121,6.7774,6.6365,6.5032,6.3676,6.3079,6.3079,6.3079,6.3079,6.3079,6.3079,6.3079,5.0777,5.2604,5.4465,5.4905,0.0,0.0,0.0,0.0,0.0,0.0,0.0,0.0,0.0,0.0,0.0,0.0,0.0,0.0,0.0,0.0,0.0,0.0,0.0,0.0,0.0,0.0,0.0,0.0,0.0,0.0,7.351,7.209,7.165,7.2394,7.1954,7.2293,7.3477,7.2597,7.2496,7.324,7.2665,7.2394,7.2428,7.2699,7.3071,7.351,7.3781,7.3646,7.3206,7.2631,7.2124,7.1684,7.1413,7.1312,7.1312,7.1312,7.1312,7.1312,7.1312,7.1312,7.1312,7.1312,7.1312,7.1312,7.1312,7.1312,7.1312,7.1312,7.1312,7.1312,7.1312,7.1312,7.1312,7.1312,7.1312,7.1312,7.1312,7.1312,7.1312,7.1312,7.1075,7.0872,7.0872,7.0669,7.0567,7.0838,7.0872,7.0973,7.1278,7.1312,7.1312,7.1312,7.1312,7.1312,7.1312,7.1312,7.1312,7.1312,7.1312,7.0666,6.9217,6.8699,6.7368,6.5111,6.4623,6.3902,6.3079,6.3079,6.3079,6.3079,6.3079,6.3079,5.0777,5.1758,5.301,5.3991,0.0,0.0,0.0,0.0,0.0,0.0,0.0,0.0,0.0,0.0,0.0,0.0,0.0,0.0,0.0,0.0,0.0,0.0,0.0,0.0,0.0,0.0,0.0,0.0,0.0,0.0,0.0,7.1988,7.1548,7.2056,7.1582,7.1785,7.28,7.1819,7.1548,7.2056,7.2056,7.2056,7.2056,7.2293,7.2665,7.3138,7.3138,7.2868,7.2394,7.2157,7.1751,7.1312,7.1312,7.1312,7.1312,7.1312,7.1312,7.1312,7.1312,7.1312,7.1312,7.1312,7.1312,7.1312,7.1312,7.1312,7.1312,7.1312,7.1312,7.1312,7.1312,7.1312,7.1312,7.1312,7.1312,7.1312,7.1312,7.1312,7.1312,7.1312,7.1109,7.1041,7.1278,7.1109,7.0973,7.0973,7.1176,7.1244,7.0973,7.1176,7.1312,7.1312,7.1312,7.1312,7.1312,7.1312,7.1312,7.1312,7.1312,7.0882,6.9949,6.9409,6.8306,6.6438,6.5513,6.4592,6.3706,6.3279,6.3079,6.3079,6.3079,6.3079,5.2266,5.1758,5.1589,5.3145,0.0,0.0,0.0,0.0,0.0,0.0,0.0,0.0,0.0,0.0,0.0,0.0,0.0,0.0,0.0,0.0,0.0,0.0,0.0,0.0,0.0,0.0,0.0,0.0,0.0,0.0,0.0,7.1718,7.1312,7.1312,7.1312,7.1312,7.1312,7.1312,7.1312,7.1312,7.1312,7.1312,7.1345,7.2056,7.2394,7.2394,7.2394,7.2394,7.2326,7.1616,7.1312,7.1312,7.1312,7.1312,7.1312,7.1312,7.1312,7.1312,7.1312,7.1312,7.1312,7.1312,7.1312,7.1312,7.1312,7.1312,7.1312,7.1312,7.1312,7.1312,7.1312,7.1312,7.1312,7.1312,7.1312,7.1312,7.1312,7.1312,7.1312,7.1312,7.0703,7.0432,7.1176,7.0703,7.0195,7.0195,7.0838,7.1041,7.0297,7.0838,7.1312,7.1312,7.1312,7.1312,7.1312,7.1312,7.1312,7.1312,7.1312,7.1312,7.1312,6.9949,6.9217,6.9217,6.6543,6.5111,6.5111,6.3789,6.3079,6.3079,6.3079,6.3079,5.0879,5.1352,0.0,0.0,0.0,0.0,0.0,0.0,0.0,0.0,0.0,0.0,0.0,0.0,0.0,0.0,0.0,0.0,0.0,0.0,0.0,0.0,0.0,0.0,0.0,0.0,0.0,0.0,0.0,0.0,0.0,7.1718,7.1312,7.1312,7.1312,7.1312,7.1312,7.1312,7.1312,7.1312,7.1312,7.1312,7.1312,7.1548,7.165,7.165,7.165,7.165,7.1616,7.1413,7.1312,7.1312,7.1312,7.1312,7.1312,7.1312,7.1312,7.1312,7.1312,7.1312,7.1312,7.1312,7.1312,7.1312,7.1312,7.1312,7.1312,7.1312,7.1312,7.1312,7.1312,7.1312,7.1312,7.1312,7.1312,7.1312,7.1312,7.1312,7.1312,7.1312,7.1142,7.1041,7.1278,7.0703,7.0364,7.0906,7.0737,7.0635,7.0939,7.1176,7.1312,7.1312,7.1312,7.1312,7.1312,7.1312,7.1312,7.1312,7.1312,7.1312,7.1312,7.0882,7.0263,6.9217,6.747,6.6048,6.5111,6.3789,6.3079,6.3079,6.3079,6.3079,5.142,0.0,0.0,0.0,0.0,0.0,0.0,0.0,0.0,0.0,0.0,0.0,0.0,0.0,0.0,0.0,0.0,0.0,0.0,0.0,0.0,0.0,0.0,0.0,0.0,0.0,0.0,0.0,0.0,0.0,0.0,7.1548,7.1312,7.1312,7.1312,7.1312,7.1312,7.1312,7.1312,7.1312,7.1312,7.1312,7.1312,7.1312,7.1312,7.1312,7.1312,7.1312,7.1312,7.1312,7.1312,7.1312,7.1312,7.1312,7.1312,7.1312,7.1312,7.1312,7.1312,7.1312,7.1312,7.1312,7.1312,7.1312,7.1312,7.1312,7.1312,7.1312,7.1312,7.1312,7.1312,7.1312,7.1312,7.1312,7.1312,7.1312,7.1312,7.1312,7.1312,7.1312,7.1312,7.1312,7.1312,7.0939,7.0703,7.0838,7.0466,7.0466,7.121,7.1312,7.1312,7.1312,7.1312,7.1312,7.1312,7.1312,7.1312,7.1312,7.1312,7.1312,7.1312,7.1312,7.0882,7.0043,6.8699,6.7266,6.5941,6.4512,6.3592,6.3079,6.3079,6.3079,0.0,0.0,0.0,0.0,0.0,0.0,0.0,0.0,0.0,0.0,0.0,0.0,0.0,0.0,0.0,0.0,0.0,0.0,0.0,0.0,0.0,0.0,0.0,0.0,0.0,0.0,0.0,0.0,0.0,0.0,7.1312,7.1312,7.1312,7.1312,7.1312,7.1312,7.1312,7.1312,7.1312,7.1312,7.1312,7.1312,7.1312,7.1312,7.1312,7.1312,7.1312,7.1312,7.1312,7.1312,7.1312,7.1312,7.1312,7.1312,7.1312,7.1312,7.1312,7.1312,7.1312,7.1312,7.1312,7.1312,7.1312,7.1312,7.1312,7.1312,7.1312,7.1312,7.1312,7.1312,7.1312,7.1312,7.1312,7.1312,7.1312,7.1312,7.1312,7.1312,7.1312,7.1312,7.1312,7.1312,7.1312,7.1244,7.0973,7.0297,7.0263,7.0534,7.121,7.1312,7.1312,7.1312,7.1312,7.1312,7.1312,7.1312,7.1312,7.1312,7.1312,7.1312,7.1312,7.1312,7.1312,7.1312,6.9949,6.8601,6.7368,6.5835,6.4512,6.3279,6.3194,6.3079,0.0,0.0,0.0,0.0,0.0,0.0,0.0,0.0,0.0,0.0,0.0,0.0,0.0,0.0,0.0,0.0,0.0,0.0,0.0,0.0,0.0,0.0,0.0,0.0,0.0,0.0,0.0,0.0,0.0,0.0,7.1312,7.1312,7.1312,7.1312,7.1312,7.1312,7.1312,7.1312,7.1312,7.1312,7.1312,7.1312,7.1312,7.1312,7.1312,7.1312,7.1312,7.1312,7.1312,7.1312,7.1312,7.1312,7.1312,7.1312,7.1312,7.1312,7.1312,7.1312,7.1312,7.1312,7.1312,7.1312,7.1312,7.1312,7.1312,7.1312,7.1312,7.1312,7.1312,7.1312,7.1312,7.1312,7.1312,7.1312,7.1312,7.1312,7.1312,7.1312,7.1312,7.1312,7.1312,7.1312,7.1312,7.0804,7.0364,7.0195,7.0703,7.1142,7.1312,7.1312,7.1312,7.1312,7.1312,7.1312,7.1312,7.1312,7.1312,7.1312,7.1312,7.1312,7.1312,7.1312,7.1312,7.1312,6.9949,6.9121,6.8797,6.6333,6.4923,6.4592,6.3592,6.3079,0.0,0.0,0.0,0.0,0.0,0.0,0.0,0.0,0.0,0.0,0.0,0.0,0.0,0.0,0.0,0.0,0.0,0.0,0.0,0.0,0.0,0.0,0.0,0.0,0.0,0.0,0.0,0.0,0.0,7.1312,7.1312,7.1312,7.1312,7.1312,7.0973,7.077,7.077,7.0432,7.0263,7.0263,7.0601,7.0973,7.1312,7.1312,7.1312,7.1312,7.1312,7.1312,7.1312,7.1312,7.1312,7.1312,7.1312,7.1312,7.1312,7.1312,7.1312,7.1312,7.1312,7.1312,7.1312,7.1312,7.1312,7.1312,7.1312,7.1312,7.1244,7.0872,7.077,7.077,7.077,7.077,7.0872,7.1244,7.1312,7.1312,7.1312,7.1312,7.1312,7.1312,7.1312,7.1312,7.1312,7.0973,7.0737,7.0737,7.1075,7.1312,7.1312,7.1312,7.1312,7.1312,7.1312,7.1312,7.1312,7.1312,7.1312,7.1312,7.1312,7.1312,7.1312,7.1312,7.1312,7.1312,7.0574,6.9855,6.9217,6.7774,6.6365,6.5111,6.4401,6.3676,0.0,0.0,0.0,0.0,0.0,0.0,0.0,0.0,0.0,0.0,0.0,0.0,0.0,0.0,0.0,0.0,0.0,0.0,0.0,0.0,0.0,0.0,0.0,0.0,0.0,0.0,0.0,0.0,0.0,7.1244,7.1142,7.1244,7.1244,7.1109,7.05,7.006,6.9789,6.935,6.9045,6.891,6.9654,7.0398,7.1109,7.1109,7.1176,7.1312,7.1312,7.1312,7.1312,7.1312,7.1312,7.1312,7.1312,7.1312,7.1312,7.1312,7.1312,7.1312,7.1312,7.1312,7.1312,7.1312,7.1312,7.1312,7.1312,7.1312,7.1176,7.0567,7.0398,7.0398,7.0398,7.0398,7.0534,7.1176,7.1312,7.1312,7.1312,7.1312,7.1312,7.1312,7.1312,7.1312,7.1312,7.1312,7.1312,7.1312,7.1312,7.1312,7.1312,7.1312,7.1312,7.1312,7.1312,7.1312,7.1312,7.1312,7.1312,7.1312,7.1312,7.1312,7.1312,7.1312,7.1312,7.1312,7.1312,7.0699,6.9537,6.9313,6.7874,6.5436,6.5219,6.4401,0.0,0.0,0.0,0.0,0.0,0.0,0.0,0.0,0.0,0.0,0.0,0.0,0.0,0.0,0.0,0.0,0.0,0.0,0.0,0.0,0.0,0.0,0.0,0.0,0.0,0.0,0.0,0.0,7.0939,7.1041,7.0364,7.0973,7.1007,7.0364,7.0229,6.9553,6.8233,6.8808,6.8741,6.8064,6.8876,6.962,7.0331,7.0331,7.0703,7.1312,7.1312,7.1312,7.1312,7.1312,7.1312,7.1312,7.1312,7.1312,7.1312,7.1312,7.1312,7.1312,7.1312,7.1312,7.1312,7.1312,7.1312,7.1312,7.1312,7.1312,7.1312,7.1176,7.1176,7.1176,7.1176,7.1176,7.1176,7.1312,7.1312,7.1312,7.1312,7.1312,7.1312,7.1312,7.1312,7.1312,7.1312,7.1312,7.1312,7.1312,7.1312,7.1312,7.1312,7.1312,7.1312,7.1312,7.1312,7.1312,7.1312,7.1312,7.1312,7.1312,7.1312,7.1312,7.1312,7.1312,7.1312,7.1312,7.1312,7.1222,7.1007,6.9822,6.8405,6.6855,6.562,6.4401,0.0,0.0,0.0,0.0,0.0,0.0,0.0,0.0,0.0,0.0,0.0,0.0,0.0,0.0,0.0,0.0,0.0,0.0,0.0,0.0,0.0,0.0,0.0,0.0,0.0,0.0,0.0,0.0,7.05,7.0364,6.962,6.9891,6.9925,6.9586,6.9147,6.8402,6.7286,6.7218,6.7218,6.7286,6.7658,6.8436,6.9586,6.9586,7.0195,7.1312,7.1312,7.1075,7.0737,7.1142,7.0838,7.0161,7.1007,7.1075,7.0737,7.1142,7.1312,7.1312,7.1312,7.1312,7.1312,7.1312,7.1312,7.1312,7.1312,7.1312,7.121,7.0804,7.0669,7.0669,7.0669,7.0669,7.0804,7.121,7.1312,7.1312,7.1312,7.1312,7.1312,7.1312,7.1312,7.1312,7.1312,7.1312,7.1312,7.1312,7.1312,7.1312,7.1312,7.1312,7.1312,7.1312,7.1312,7.1312,7.1312,7.1312,7.1312,7.1312,7.1312,7.1312,7.1312,7.1312,7.1312,7.1312,7.1312,7.1312,7.1312,7.0699,6.9633,6.8306,6.6958,6.5544,0.0,0.0,0.0,0.0,0.0,0.0,0.0,0.0,0.0,0.0,0.0,0.0,0.0,0.0,0.0,0.0,0.0,0.0,0.0,0.0,0.0,0.0,0.0,0.0,0.0,0.0,0.0,0.0,6.9925,6.9586,6.8842,6.8977,6.9011,6.8808,6.803,6.7184,6.6271,6.5493,6.5493,6.6237,6.6237,6.7049,6.8538,6.8538,6.935,7.0737,7.0737,7.0432,6.9958,7.0534,7.0094,6.9214,7.0331,7.0534,7.0263,7.0804,7.1142,7.1312,7.1312,7.1312,7.1312,7.1312,7.1312,7.1312,7.1312,7.1312,7.121,7.0635,7.0466,7.0466,7.0466,7.0466,7.0635,7.1176,7.1312,7.1312,7.1312,7.1312,7.1312,7.1312,7.1312,7.1312,7.1312,7.1312,7.1312,7.1312,7.1312,7.1312,7.1312,7.1312,7.1312,7.1312,7.1312,7.1312,7.1312,7.1312,7.1312,7.1312,7.1312,7.1312,7.1312,7.1312,7.1312,7.1312,7.1312,7.1312,7.1312,7.1312,7.0574,6.9217,6.7774,6.647,0.0,0.0,0.0,0.0,0.0,0.0,0.0,0.0,0.0,0.0,0.0,0.0,0.0,0.0,0.0,0.0,0.0,0.0,0.0,0.0,0.0,0.0,0.0,0.0,0.0,0.0,0.0,0.0,6.9147,6.8808,6.7996,6.8707,6.8741,6.7996,6.7252,6.617,6.4749,6.4005,6.4005,6.4715,6.4715,6.5493,6.6948,6.6948,6.776,6.9214,6.9214,6.918,6.9147,6.9214,6.918,6.9113,6.918,6.962,7.0195,7.0229,7.0703,7.1312,7.1312,7.1312,7.1312,7.1312,7.1312,7.1312,7.1312,7.1312,7.1312,7.1278,7.1244,7.1244,7.1244,7.1244,7.1278,7.1312,7.1312,7.1312,7.1312,7.1312,7.1312,7.1312,7.1312,7.1312,7.1312,7.1312,7.1312,7.1312,7.1312,7.1312,7.1312,7.1312,7.1312,7.1312,7.1312,7.1312,7.1312,7.1312,7.1312,7.1312,7.1312,7.1312,7.1312,7.1312,7.1312,7.1312,7.1312,7.1312,7.1312,7.1312,7.0574,6.9217,6.7774,6.647,0.0,0.0,0.0,0.0,0.0,0.0,0.0,0.0,0.0,0.0,0.0,0.0,0.0,0.0,0.0,0.0,0.0,0.0,0.0,0.0,0.0,0.0,0.0,0.0,0.0,0.0,6.9891,6.9147,6.8605,6.7996,6.7252,6.753,6.7628,6.7319,6.7184,6.6358,6.4786,6.403,6.3717,6.3903,6.3903,6.441,6.5392,6.5865,6.6136,6.6271,6.7218,6.7895,6.8368,6.8876,6.8538,6.7793,6.9214,6.9688,6.962,7.0567,7.1075,7.1312,7.1312,7.1312,7.1312,7.1312,7.1312,7.121,7.0737,7.0939,7.121,7.0737,7.0939,7.1312,7.1312,7.1312,7.1312,7.1312,7.1312,7.1312,7.1312,7.1312,7.1312,7.1312,7.1312,7.1312,7.1312,7.1312,7.1312,7.1312,7.1312,7.1312,7.1312,7.1312,7.1312,7.1312,7.1312,7.1312,7.1312,7.1312,7.1312,7.1312,7.1312,7.1312,7.1312,7.1312,7.1312,7.1312,7.1312,7.1312,7.1312,7.1312,7.1007,7.0482,6.8206,6.6958,0.0,0.0,0.0,0.0,0.0,0.0,0.0,0.0,0.0,0.0,0.0,0.0,0.0,0.0,0.0,0.0,0.0,0.0,0.0,0.0,0.0,0.0,0.0,0.0,0.0,7.0026,6.9214,6.8741,6.7726,0.0,6.6474,6.628,6.6247,6.6277,6.6672,6.611,6.4447,6.3719,6.324,6.3125,6.2888,6.3294,6.4241,6.4749,6.4816,6.4681,6.5899,6.6711,6.7218,6.7996,6.7726,6.6948,6.847,6.9079,6.9214,7.0195,7.0872,7.1312,7.1312,7.1312,7.1312,7.1312,7.1142,7.0906,7.0635,7.0737,7.0872,7.0635,7.0939,7.1312,7.1312,7.1312,7.1312,7.1312,7.1312,7.1312,7.1312,7.1312,7.1312,7.1312,7.1312,7.1312,7.1312,7.1312,7.1312,7.1312,7.1312,7.1312,7.1312,7.1312,7.1312,7.1312,7.1312,7.1312,7.1312,7.1312,7.1312,7.1312,7.1312,7.1312,7.1312,7.1312,7.1312,7.1312,7.1312,7.1312,7.1312,7.1312,7.1312,7.1222,6.8927,6.7368,0.0,0.0,0.0,0.0,0.0,0.0,0.0,0.0,0.0,0.0,0.0,0.0,0.0,0.0,0.0,0.0,0.0,0.0,0.0,0.0,0.0,0.0,0.0,0.0,7.0195,6.8808,6.7895,6.7861,6.6508,6.5662,6.5662,6.5033,6.4698,6.4828,6.5653,6.5336,6.3757,6.2993,6.2596,6.2391,6.1714,6.2042,6.3429,6.3497,6.3903,6.458,6.5324,6.5662,6.573,6.6508,6.6812,6.6812,6.6846,6.776,6.9079,6.9113,7.0026,7.1244,7.1278,7.1278,7.1244,7.1244,7.0737,7.0297,7.1007,7.0737,7.0297,7.1041,7.1278,7.1278,7.1312,7.1312,7.1312,7.1312,7.1312,7.1312,7.1312,7.1312,7.1312,7.1312,7.1312,7.1312,7.1312,7.1312,7.1312,7.1312,7.1312,7.1312,7.1312,7.1312,7.1312,7.1312,7.1312,7.1312,7.1312,7.1312,7.1312,7.1312,7.1312,7.1312,7.1312,7.1312,7.1312,7.1312,7.1312,7.1312,7.1312,7.1312,7.1312,7.1312,6.9855,6.7673,4.9107,0.0,0.0,0.0,0.0,0.0,0.0,0.0,0.0,0.0,0.0,0.0,0.0,0.0,0.0,0.0,0.0,0.0,0.0,0.0,0.0,0.0,7.0635,7.0195,7.0195,6.8808,6.7692,0.0,6.6237,6.5459,6.4918,6.5406,6.5758,6.5946,6.6211,6.5836,6.4724,6.3912,6.3187,6.2575,6.226,6.2385,6.2758,6.3271,6.3328,6.3057,6.4343,6.4884,6.4986,6.6305,6.6812,6.688,6.7387,6.7861,6.8368,6.9485,6.9823,6.9789,7.0331,7.0161,6.9722,6.9722,6.9586,6.9316,6.8977,6.9113,6.9451,6.9654,7.0094,7.0635,7.1176,7.1312,7.1312,7.1312,7.1312,7.1312,7.1312,7.1312,7.1312,7.1312,7.1312,7.1312,7.1312,7.1312,7.1312,7.1312,7.1312,7.1312,7.1312,7.1312,7.1312,7.1312,7.1312,7.1312,7.1312,7.1312,7.1312,7.1312,7.1312,7.1312,7.1312,7.1312,7.1312,7.1312,7.1312,7.1312,7.1312,7.1312,7.1312,7.1222,6.883,6.6751,0.0,0.0,0.0,0.0,0.0,0.0,5.4025,5.5344,0.0,0.0,0.0,0.0,0.0,0.0,0.0,0.0,0.0,0.0,0.0,0.0,0.0,7.1278,7.0094,6.935,6.9688,6.8335,6.7151,6.6406,6.5662,6.4783,6.3734,6.4635,6.5196,6.5314,6.5786,6.5515,6.4635,6.3841,6.3179,6.2634,6.2252,6.2196,6.2539,6.3293,6.3186,6.2448,6.404,6.4472,6.4275,6.573,6.6542,6.6846,6.7286,6.7624,6.7996,6.891,6.918,6.9147,6.9586,6.9451,6.9113,6.9113,6.8876,6.8571,6.8436,6.8741,6.9147,6.9451,7.0094,7.077,7.121,7.1312,7.1312,7.1312,7.1312,7.1312,7.1312,7.1312,7.1312,7.1312,7.1312,7.1312,7.1312,7.1312,7.1312,7.1312,7.1312,7.1312,7.1312,7.1312,7.1312,7.1312,7.1312,7.1312,7.1312,7.1312,7.1312,7.1312,7.1312,7.1312,7.1312,7.1312,7.1312,7.1312,7.1312,7.1312,7.1312,7.1312,7.1312,7.1222,6.9024,6.7266,0.0,0.0,0.0,0.0,0.0,0.0,5.3348,5.3518,5.3856,0.0,0.0,0.0,0.0,0.0,0.0,0.0,0.0,0.0,0.0,7.0669,7.05,7.1007,6.9282,6.8267,6.891,6.759,6.6373,6.5628,6.4749,6.3666,6.2347,6.3066,6.3594,6.366,6.4541,6.4658,6.3956,6.3197,6.2745,6.2604,6.1938,6.1953,6.2579,6.3401,6.3311,6.2634,6.4042,6.4305,6.3758,6.4966,6.5933,6.6711,6.6779,6.7218,6.7793,6.7861,6.8301,6.8876,6.8944,6.891,6.8842,6.8842,6.8368,6.7895,6.8639,6.891,6.9147,6.9958,7.0737,7.1312,7.1312,7.1312,7.1312,7.1312,7.1312,7.1312,7.1312,7.1312,7.1312,7.1312,7.1312,7.1312,7.1312,7.1312,7.1312,7.1312,7.1312,7.1312,7.1312,7.1312,7.1312,7.1312,7.1312,7.1312,7.1312,7.1312,7.1312,7.1312,7.1312,7.1312,7.1312,7.1312,7.1312,7.1312,7.1312,7.1312,7.1312,7.1312,7.1312,7.1312,6.9855,6.8503,0.0,0.0,0.0,0.0,0.0,0.0,5.0811,5.0405,5.0913,0.0,0.0,0.0,0.0,0.0,0.0,0.0,6.5324,6.7996,7.0128,7.0804,7.0703,6.9654,6.9147,6.8673,6.8166,6.6779,6.5595,6.4884,6.3024,6.1839,6.1535,6.1769,6.2223,6.291,6.3177,6.353,6.4067,6.3225,6.2756,6.2745,6.2542,6.2498,6.2677,6.3492,6.3674,6.355,6.3796,6.4127,6.4525,6.4087,6.4715,6.5967,6.6576,6.6914,6.7117,6.7692,6.7624,6.7354,6.7929,6.776,6.7252,6.7252,6.7151,6.7049,6.7218,6.7658,6.8402,6.9789,7.0737,7.1312,7.1312,7.1312,7.1312,7.1312,7.1312,7.1312,7.1312,7.1312,7.1312,7.1312,7.1312,7.1312,7.1312,7.1312,7.1312,7.1312,7.1312,7.1312,7.1312,7.1312,7.1312,7.1312,7.1312,7.1312,7.1312,7.1312,7.1312,7.1312,7.1312,7.1312,7.1312,7.1312,7.1312,7.1312,7.1312,7.1312,7.1312,7.1312,7.1312,7.1312,6.9855,6.8503,0.0,0.0,0.0,5.0163,0.0,0.0,0.0,4.9526,4.9729,5.2367,5.2909,5.3822,5.6799,0.0,5.8998,6.0452,6.2245,6.4241,6.6542,6.8436,6.9485,6.9147,6.8436,6.7793,6.7387,6.6339,6.5222,6.414,6.2347,6.1298,6.1298,6.1074,6.1253,6.2068,6.2175,6.2586,6.3466,6.3025,6.2805,6.2805,6.2761,6.2712,6.2738,6.3567,6.3907,6.3801,6.419,6.4355,6.4235,6.416,6.4346,6.4681,6.5425,6.5696,6.5797,6.6542,6.6576,6.6373,6.7117,6.7117,6.6812,6.6812,6.6812,6.6812,6.6812,6.759,6.8808,7.0331,7.1007,7.1312,7.1312,7.1312,7.1312,7.1312,7.1312,7.1312,7.1312,7.1312,7.1312,7.1312,7.1312,7.1312,7.1312,7.1312,7.1312,7.1312,7.1312,7.1312,7.1312,7.1312,7.1312,7.1312,7.1312,7.1312,7.1312,7.1312,7.1312,7.1312,7.1312,7.1312,7.1312,7.1312,7.1312,7.1312,7.1312,7.1312,7.1312,7.1312,7.1312,7.1312,7.0574,6.9537,0.0,0.0,0.0,0.0,0.0,5.0079,0.0,0.0,0.0,5.0574,5.0913,0.0,0.0,0.0,0.0,0.0,0.0,0.0,0.0,6.4444,0.0,6.7895,6.6914,6.6237,6.6373,6.5459,6.4343,6.3193,6.1569,6.0723,6.0858,6.0069,6.0041,6.1043,6.1104,6.1534,6.2365,6.2511,6.2585,6.2585,6.2585,6.2647,6.2747,6.3685,6.4039,6.3886,6.4579,6.4527,6.4009,6.428,6.403,6.36,6.4322,6.4613,6.4681,6.5256,6.5561,6.5764,6.6373,6.6677,6.6812,6.6812,6.6812,6.688,6.732,6.8233,6.9417,7.0906,7.1312,7.1312,7.1312,7.1312,7.1312,7.1312,7.1312,7.1312,7.1312,7.1312,7.1312,7.1312,7.1312,7.1312,7.1312,7.1312,7.1312,7.1312,7.1312,7.1312,7.1312,7.1312,7.1312,7.1312,7.1312,7.1312,7.1312,7.1312,7.1312,7.1312,7.1312,7.1312,7.1312,7.1312,7.1312,7.1312,7.1312,7.1312,7.1312,7.1312,7.1312,7.1312,7.1312,7.0574,0.0,0.0,0.0,0.0,5.3159,0.0,0.0,0.0,4.983,4.9357,0.0,0.0,0.0,0.0,0.0,0.0,0.0,0.0,5.575,5.8693,6.1772,6.3903,6.4005,6.414,6.4783,6.299,6.1738,6.1569,5.9505,5.8558,5.9235,5.792,5.7912,5.9451,5.9526,5.9921,6.0676,6.1374,6.1741,6.1741,6.1741,6.2095,6.2801,6.3672,6.4061,6.4087,6.4033,6.441,6.4828,6.3343,6.309,6.3703,6.4325,6.4613,6.4613,6.4681,6.5121,6.5696,6.5797,6.6237,6.6812,6.6812,6.6812,6.7184,6.918,6.9485,6.9417,7.0906,7.1312,7.1312,7.1312,7.1312,7.1312,7.1312,7.1312,7.1312,7.1312,7.1312,7.1312,7.1312,7.1312,7.1312,7.1312,7.1312,7.1312,7.1312,7.1312,7.1312,7.1312,7.1312,7.1312,7.1312,7.1312,7.1312,7.1312,7.1312,7.1312,7.1312,7.1312,7.1312,7.1312,7.1312,7.1312,7.1312,7.1312,7.1312,7.1312,7.1312,7.1312,7.1312,7.1312,7.0574,0.0,0.0,0.0,0.0,0.0,0.0,5.1661,0.0,4.9627,0.0,0.0,0.0,0.0,0.0,0.0,0.0,5.2334,0.0,0.0,0.0,5.7577,0.0,0.0,0.0,6.1332,6.052,5.9979,5.9979,5.8287,5.7408,5.7712,5.6731,5.6714,5.7821,5.8315,5.8995,5.9765,6.0518,6.0896,6.0896,6.0896,6.1337,6.2108,6.2475,6.3172,6.409,6.4035,6.4456,6.5009,6.3814,6.3771,6.4357,6.3634,6.3324,6.3429,6.4275,6.4783,6.5189,6.6034,6.6542,6.6812,6.6812,6.7117,6.7692,6.9113,6.962,6.9958,7.1007,7.1312,7.1312,7.1312,7.1312,7.1312,7.1312,7.1312,7.1312,7.1312,7.1312,7.1312,7.1312,7.1312,7.1312,7.1312,7.1312,7.1312,7.1312,7.1312,7.1312,7.1312,7.1312,7.1312,7.1312,7.1312,7.1312,7.1312,7.1312,7.1312,7.1312,7.1312,7.1312,7.1312,7.1312,7.1312,7.1312,7.1312,7.1312,7.1312,7.1312,7.1312,7.1312,7.1312,7.1007,5.6161,0.0,0.0,0.0,0.0,0.0,0.0,0.0,0.0,0.0,0.0,0.0,0.0,0.0,0.0,0.0,0.0,5.1758,0.0,5.2739,0.0,0.0,0.0,0.0,0.0,5.8051,5.7881,5.8084,5.6528,5.575,5.6156,5.5513,5.5553,5.6547,5.7324,5.8075,5.8661,5.9565,6.0089,6.0089,6.0089,6.0493,6.1263,6.1484,6.2254,6.3429,6.3649,6.4144,6.4779,6.3935,6.4172,6.487,6.3412,6.2845,6.2872,6.3916,6.4444,6.4783,6.6068,6.6643,6.688,6.732,6.7523,6.7861,6.9282,6.9789,7.0094,7.1041,7.1312,7.1312,7.1312,7.1312,7.1312,7.1312,7.1312,7.1312,7.1312,7.1312,7.1312,7.1312,7.1312,7.1312,7.1312,7.1312,7.1312,7.1312,7.1312,7.1312,7.1312,7.1312,7.1312,7.1312,7.1312,7.1312,7.1312,7.1312,7.1312,7.1312,7.1312,7.1312,7.1312,7.1312,7.1312,7.1312,7.1312,7.1312,7.1312,7.1312,7.1312,7.1312,7.1312,7.1312,0.0,0.0,0.0,5.7107,0.0,0.0,0.0,0.0,5.3804,0.0,0.0,0.0,0.0,0.0,0.0,0.0,0.0,0.0,0.0,0.0,0.0,0.0,0.0,0.0,0.0,5.5581,5.504,0.0,5.3721,5.3112,5.4566,5.3957,5.4258,5.5686,5.6515,5.697,5.6984,5.847,5.9245,5.9245,5.9245,5.9685,6.0456,6.1227,6.163,6.1704,6.2511,6.3356,6.4024,6.3092,6.3675,6.5022,6.4124,6.3692,6.3677,6.3621,6.4005,6.4715,6.5459,6.6203,6.7049,6.8538,6.803,6.7387,7.0364,7.0263,6.9451,7.0906,7.1312,7.1312,7.1312,7.1312,7.1312,7.1312,7.1312,7.1312,7.1312,7.1312,7.1312,7.1312,7.1312,7.1312,7.1312,7.1312,7.1312,7.1312,7.1312,7.1312,7.1312,7.1312,7.1312,7.1312,7.1312,7.1312,7.1312,7.1312,7.1312,7.1312,7.1312,7.1312,7.1312,7.1312,7.1312,7.1312,7.1312,7.1312,7.1312,7.1312,7.1312,7.1312,7.1312,7.1312,0.0,0.0,5.9612,5.7997,0.0,0.0,0.0,0.0,0.0,0.0,0.0,0.0,0.0,0.0,0.0,5.0977,5.0845,0.0,0.0,0.0,0.0,0.0,0.0,0.0,0.0,0.0,0.0,0.0,5.1826,0.0,5.23,5.257,5.294,5.3471,5.5224,5.6085,5.615,5.7655,5.84,5.84,5.84,5.8841,5.9648,5.9905,6.0603,6.163,6.1887,6.2805,6.4053,6.3137,6.4055,6.5897,6.4446,6.4536,6.5474,6.5214,6.4868,6.485,6.6542,6.732,6.7692,6.8774,6.8741,6.8504,6.9553,6.9823,6.9925,7.0432,7.0939,7.1312,7.1312,7.1312,7.1312,7.1312,7.1312,7.1312,7.1312,7.1312,7.1312,7.1312,7.1312,7.1312,7.1312,7.1312,7.1312,7.1312,7.1312,7.1312,7.1312,7.1312,7.1312,7.1312,7.1312,7.1312,7.1312,7.1312,7.1312,7.1312,7.1312,7.1312,7.1312,7.1312,7.1312,7.1312,7.1312,7.1312,7.1312,7.1312,7.1312,7.1312,7.1312,7.1312,5.8621,5.9355,0.0,5.9024,5.8921,0.0,5.6891,0.0,0.0,0.0,0.0,0.0,0.0,0.0,0.0,5.2528,5.1508,5.0646,0.0,4.9289,0.0,0.0,0.0,0.0,0.0,0.0,0.0,0.0,0.0,0.0,0.0,5.1116,5.1758,5.2266,5.4279,5.5437,5.5724,5.6978,5.7726,5.7997,5.7997,5.8253,5.8804,5.9098,5.9795,6.0786,6.1337,6.2218,6.3172,6.2915,6.409,6.5946,6.484,6.5229,6.6366,6.6075,6.5786,6.5676,6.7303,6.7726,6.7692,6.8741,6.8741,6.8402,6.8944,6.9417,6.9857,7.0128,7.0737,7.1312,7.1312,7.1312,7.1312,7.1312,7.1312,7.1312,7.1312,7.1312,7.1312,7.1312,7.1312,7.1312,7.1312,7.1312,7.1312,7.1312,7.1312,7.1312,7.1312,7.1312,7.1312,7.1312,7.1312,7.1312,7.1312,7.1312,7.1312,7.1312,7.1312,7.1312,7.1312,7.1312,7.1548,7.209,7.1582,7.1582,7.209,7.1582,7.1312,7.1312,7.1312,7.1312]},{"header":{"parameterUnit":"m.s-1","parameterCategory":1,"la1":30.6,"la2":29.2853,"lo1":-89.7004,"lo2":-87.6739,"dy":0.0162,"dx":0.0183,"nx":112,"ny":82,"refTime":"2023-04-16T12:00:00:Z","depth":0,"parameterNumber":3,"parameterNumberName":"V-component_of_WINDS"},"data":[0.0,0.0,0.0,0.0,0.0,0.0,0.0,0.0,0.0,0.0,0.0,0.0,0.0,0.0,0.0,0.0,0.0,0.0,0.0,0.0,0.0,0.0,0.0,0.0,0.0,0.0,0.0,0.0,0.0,0.0,0.0,0.0,0.0,0.0,0.0,0.0,0.0,0.0,0.0,0.0,0.0,0.0,0.0,0.0,0.0,0.0,0.0,0.0,0.0,0.0,0.0,0.0,0.0,0.0,0.0,0.0,0.0,0.0,0.0,0.0,0.0,0.0,0.0,0.0,0.0,0.0,0.0,0.0,0.0,0.0,0.0,0.0,0.0,0.0,0.0,0.0,0.0,0.0,0.0,0.0,0.0,0.0,0.0,0.0,0.0,0.0,0.0,0.0,0.0,0.0,0.0,-3.9647,-4.5623,-5.0193,-5.195,-5.18,-4.9113,-4.3338,0.0,0.0,0.0,0.0,0.0,0.0,0.0,0.0,0.0,0.0,0.0,0.0,0.0,0.0,0.0,0.0,0.0,0.0,0.0,0.0,0.0,0.0,0.0,0.0,0.0,0.0,0.0,0.0,0.0,0.0,0.0,0.0,0.0,0.0,0.0,0.0,0.0,0.0,0.0,0.0,0.0,0.0,0.0,0.0,0.0,0.0,0.0,0.0,0.0,0.0,0.0,0.0,0.0,0.0,0.0,0.0,0.0,0.0,0.0,0.0,0.0,0.0,0.0,0.0,0.0,0.0,0.0,0.0,0.0,0.0,0.0,0.0,0.0,0.0,0.0,0.0,0.0,0.0,0.0,0.0,0.0,0.0,0.0,0.0,0.0,0.0,0.0,0.0,0.0,0.0,0.0,0.0,0.0,0.0,0.0,0.0,0.0,0.0,0.0,0.0,0.0,0.0,0.0,0.0,-3.8442,-4.3915,-4.7129,-4.9766,-5.1925,-5.0368,-4.7481,-4.3237,0.0,0.0,0.0,0.0,0.0,0.0,0.0,0.0,0.0,0.0,0.0,0.0,0.0,0.0,0.0,0.0,0.0,0.0,0.0,0.0,0.0,0.0,0.0,0.0,0.0,0.0,0.0,0.0,0.0,0.0,0.0,0.0,0.0,0.0,0.0,0.0,0.0,0.0,0.0,0.0,0.0,0.0,0.0,0.0,0.0,0.0,0.0,0.0,0.0,0.0,0.0,0.0,0.0,0.0,0.0,0.0,0.0,0.0,0.0,0.0,0.0,0.0,0.0,0.0,0.0,0.0,0.0,0.0,0.0,0.0,0.0,0.0,0.0,0.0,0.0,0.0,0.0,0.0,0.0,0.0,0.0,0.0,0.0,0.0,0.0,0.0,0.0,0.0,0.0,0.0,0.0,0.0,0.0,0.0,0.0,0.0,0.0,0.0,0.0,0.0,0.0,0.0,0.0,-3.7262,-3.9722,-4.4945,-4.7456,-4.9439,-5.1046,-5.0243,-4.7631,-4.2836,-4.1781,0.0,0.0,0.0,0.0,0.0,0.0,0.0,0.0,0.0,0.0,0.0,0.0,0.0,0.0,0.0,0.0,0.0,0.0,0.0,0.0,0.0,0.0,0.0,0.0,0.0,0.0,0.0,0.0,0.0,0.0,0.0,0.0,0.0,0.0,0.0,0.0,0.0,0.0,0.0,0.0,0.0,0.0,0.0,0.0,0.0,0.0,0.0,0.0,0.0,0.0,0.0,0.0,0.0,0.0,0.0,0.0,0.0,0.0,0.0,0.0,0.0,0.0,0.0,0.0,0.0,0.0,0.0,0.0,0.0,0.0,0.0,0.0,0.0,0.0,0.0,0.0,0.0,0.0,0.0,0.0,0.0,0.0,0.0,0.0,0.0,0.0,0.0,0.0,0.0,0.0,0.0,0.0,0.0,0.0,0.0,0.0,0.0,0.0,0.0,0.0,0.0,0.0,-3.912,-4.1003,-4.5045,-4.723,-4.8887,-5.0117,-4.9389,-4.6928,-4.2434,-4.0902,0.0,0.0,0.0,0.0,0.0,0.0,0.0,0.0,0.0,0.0,0.0,0.0,0.0,0.0,0.0,0.0,0.0,0.0,0.0,0.0,0.0,0.0,0.0,0.0,0.0,0.0,0.0,0.0,0.0,0.0,0.0,0.0,0.0,0.0,0.0,0.0,0.0,0.0,0.0,0.0,0.0,0.0,0.0,0.0,0.0,0.0,0.0,0.0,0.0,0.0,0.0,0.0,0.0,0.0,0.0,0.0,0.0,0.0,0.0,0.0,0.0,0.0,0.0,0.0,0.0,0.0,0.0,0.0,0.0,0.0,0.0,0.0,0.0,0.0,0.0,0.0,0.0,0.0,0.0,0.0,0.0,0.0,0.0,0.0,0.0,0.0,0.0,0.0,0.0,0.0,0.0,0.0,0.0,0.0,0.0,0.0,0.0,0.0,0.0,0.0,0.0,0.0,-3.9873,-4.2283,-4.5171,-4.6552,-4.7908,-4.9515,-4.6351,-4.3664,-4.2258,-3.8768,0.0,0.0,0.0,0.0,0.0,0.0,0.0,0.0,0.0,0.0,0.0,0.0,0.0,0.0,0.0,0.0,0.0,0.0,0.0,0.0,0.0,0.0,0.0,0.0,0.0,0.0,0.0,0.0,0.0,0.0,0.0,0.0,0.0,0.0,0.0,0.0,0.0,0.0,0.0,0.0,0.0,0.0,0.0,0.0,0.0,0.0,0.0,0.0,0.0,0.0,0.0,0.0,0.0,0.0,0.0,0.0,0.0,0.0,0.0,0.0,0.0,0.0,0.0,0.0,0.0,0.0,0.0,0.0,0.0,0.0,0.0,0.0,0.0,0.0,0.0,0.0,0.0,0.0,0.0,0.0,0.0,0.0,0.0,0.0,0.0,0.0,0.0,0.0,0.0,0.0,0.0,0.0,0.0,0.0,0.0,0.0,0.0,0.0,0.0,0.0,0.0,0.0,-3.9647,-4.2032,0.0,-4.6476,-4.7506,-4.846,-4.6903,-4.4518,-4.1329,0.0,0.0,0.0,0.0,0.0,0.0,0.0,0.0,0.0,0.0,0.0,0.0,0.0,0.0,0.0,0.0,0.0,0.0,0.0,0.0,0.0,0.0,0.0,0.0,0.0,0.0,0.0,0.0,0.0,0.0,0.0,0.0,0.0,0.0,0.0,0.0,0.0,0.0,0.0,0.0,0.0,0.0,0.0,0.0,0.0,0.0,0.0,0.0,0.0,0.0,0.0,0.0,0.0,0.0,0.0,0.0,0.0,0.0,0.0,0.0,0.0,0.0,0.0,0.0,0.0,0.0,0.0,0.0,0.0,0.0,0.0,0.0,0.0,0.0,0.0,0.0,0.0,0.0,0.0,0.0,0.0,0.0,0.0,0.0,0.0,0.0,0.0,0.0,0.0,0.0,0.0,0.0,0.0,0.0,0.0,0.0,0.0,0.0,0.0,0.0,0.0,0.0,-3.7437,-3.9521,-4.1856,0.0,-4.61,-4.7079,-4.7606,-4.605,-4.374,-4.0701,0.0,0.0,0.0,0.0,0.0,0.0,0.0,0.0,0.0,0.0,0.0,0.0,0.0,0.0,0.0,0.0,0.0,0.0,0.0,0.0,0.0,0.0,0.0,0.0,0.0,0.0,0.0,0.0,0.0,0.0,0.0,0.0,0.0,0.0,0.0,0.0,0.0,0.0,0.0,0.0,0.0,0.0,0.0,0.0,0.0,0.0,0.0,0.0,0.0,0.0,0.0,0.0,0.0,0.0,0.0,0.0,0.0,0.0,0.0,0.0,0.0,0.0,0.0,0.0,0.0,0.0,0.0,0.0,0.0,0.0,0.0,0.0,0.0,0.0,0.0,0.0,0.0,0.0,0.0,0.0,0.0,0.0,0.0,0.0,0.0,0.0,0.0,0.0,0.0,0.0,0.0,0.0,0.0,0.0,0.0,0.0,0.0,0.0,0.0,0.0,0.0,0.0,-3.696,-3.9597,-4.1957,-4.3614,-4.5296,-4.6527,-4.7079,-4.3087,-4.0551,0.0,0.0,0.0,0.0,0.0,0.0,0.0,0.0,0.0,0.0,0.0,0.0,0.0,0.0,0.0,0.0,0.0,0.0,0.0,0.0,0.0,0.0,0.0,0.0,0.0,0.0,0.0,0.0,0.0,0.0,0.0,0.0,0.0,0.0,0.0,0.0,0.0,0.0,0.0,0.0,0.0,0.0,0.0,0.0,0.0,0.0,0.0,0.0,0.0,0.0,0.0,0.0,0.0,0.0,0.0,0.0,0.0,0.0,0.0,0.0,0.0,0.0,0.0,0.0,0.0,0.0,0.0,0.0,0.0,0.0,0.0,0.0,0.0,0.0,0.0,0.0,0.0,0.0,0.0,0.0,0.0,0.0,0.0,0.0,0.0,0.0,0.0,0.0,0.0,0.0,0.0,0.0,0.0,0.0,0.0,0.0,0.0,0.0,0.0,0.0,0.0,0.0,0.0,-3.6935,-3.8944,-4.1103,-4.3539,-4.497,-4.5799,-4.5949,-4.4041,-4.2007,-4.0049,0.0,0.0,0.0,0.0,0.0,0.0,0.0,0.0,0.0,0.0,0.0,0.0,0.0,0.0,0.0,0.0,0.0,0.0,0.0,0.0,0.0,0.0,0.0,0.0,0.0,0.0,0.0,0.0,0.0,0.0,0.0,0.0,0.0,0.0,0.0,0.0,0.0,0.0,0.0,0.0,0.0,0.0,0.0,0.0,0.0,0.0,0.0,0.0,0.0,0.0,0.0,0.0,0.0,0.0,0.0,0.0,0.0,0.0,0.0,0.0,0.0,0.0,0.0,0.0,0.0,0.0,0.0,0.0,0.0,0.0,0.0,0.0,0.0,0.0,0.0,0.0,0.0,0.0,0.0,0.0,0.0,0.0,0.0,0.0,0.0,0.0,0.0,0.0,0.0,0.0,0.0,0.0,0.0,0.0,0.0,0.0,0.0,0.0,0.0,0.0,0.0,0.0,-3.6609,-3.8517,-4.0676,-4.3212,-4.4669,-4.5573,-4.5799,-4.4367,-4.2308,-3.9546,0.0,0.0,0.0,0.0,0.0,0.0,0.0,0.0,0.0,0.0,0.0,0.0,0.0,0.0,0.0,0.0,0.0,0.0,0.0,0.0,0.0,0.0,0.0,0.0,0.0,0.0,0.0,0.0,0.0,0.0,0.0,0.0,0.0,0.0,0.0,0.0,0.0,0.0,0.0,0.0,0.0,0.0,0.0,0.0,0.0,0.0,0.0,0.0,0.0,0.0,0.0,0.0,0.0,0.0,0.0,0.0,0.0,0.0,0.0,0.0,0.0,0.0,0.0,0.0,0.0,0.0,0.0,0.0,0.0,0.0,0.0,0.0,0.0,0.0,0.0,0.0,0.0,0.0,0.0,0.0,0.0,0.0,0.0,0.0,0.0,0.0,0.0,0.0,0.0,0.0,0.0,0.0,0.0,0.0,0.0,0.0,0.0,0.0,0.0,0.0,0.0,0.0,-3.6132,-3.8216,-4.04,-4.266,-4.4418,-4.5598,-4.61,-4.4242,-4.1907,-3.9195,0.0,0.0,0.0,0.0,0.0,0.0,0.0,0.0,0.0,0.0,0.0,0.0,0.0,0.0,0.0,0.0,0.0,0.0,0.0,0.0,0.0,0.0,0.0,0.0,0.0,0.0,0.0,0.0,0.0,0.0,0.0,0.0,0.0,0.0,0.0,0.0,0.0,0.0,0.0,0.0,0.0,0.0,0.0,0.0,0.0,0.0,0.0,0.0,0.0,0.0,0.0,0.0,0.0,0.0,0.0,0.0,0.0,0.0,0.0,0.0,-2.8027,0.0,0.0,0.0,0.0,0.0,0.0,0.0,0.0,0.0,0.0,0.0,0.0,0.0,0.0,0.0,0.0,0.0,0.0,0.0,0.0,0.0,0.0,0.0,0.0,0.0,0.0,0.0,0.0,0.0,0.0,0.0,0.0,0.0,0.0,0.0,0.0,0.0,0.0,0.0,0.0,0.0,-3.6081,-3.7538,-3.9396,-4.2057,-4.3815,-4.4844,-4.497,-4.4141,-4.2635,-4.0325,-3.7889,0.0,0.0,0.0,0.0,0.0,0.0,0.0,0.0,0.0,0.0,0.0,0.0,0.0,0.0,0.0,0.0,0.0,0.0,0.0,0.0,0.0,0.0,0.0,0.0,0.0,0.0,0.0,0.0,0.0,0.0,0.0,0.0,0.0,0.0,0.0,0.0,0.0,0.0,0.0,0.0,0.0,0.0,0.0,0.0,0.0,0.0,0.0,0.0,0.0,0.0,0.0,0.0,0.0,0.0,0.0,0.0,0.0,0.0,0.0,0.0,-2.8867,0.0,0.0,0.0,0.0,0.0,0.0,0.0,0.0,0.0,0.0,0.0,0.0,0.0,0.0,0.0,0.0,0.0,0.0,0.0,0.0,0.0,0.0,0.0,0.0,0.0,0.0,0.0,0.0,0.0,0.0,0.0,0.0,0.0,0.0,0.0,0.0,0.0,0.0,0.0,0.0,-3.6107,-3.7563,-3.9371,-4.1882,-4.3639,-4.4744,-4.502,-4.4518,-4.3263,-4.1053,-3.9044,0.0,0.0,0.0,0.0,0.0,0.0,0.0,0.0,0.0,0.0,0.0,0.0,0.0,0.0,0.0,0.0,0.0,0.0,0.0,0.0,0.0,0.0,0.0,0.0,0.0,0.0,0.0,0.0,0.0,0.0,0.0,0.0,0.0,0.0,0.0,0.0,0.0,0.0,0.0,0.0,0.0,0.0,0.0,0.0,0.0,0.0,0.0,0.0,0.0,0.0,0.0,0.0,0.0,-3.2285,-3.2871,-3.3125,-3.3281,-3.3555,-3.3789,-3.207,-3.043,-2.9004,-2.957,0.0,0.0,0.0,0.0,0.0,0.0,0.0,0.0,0.0,0.0,0.0,0.0,0.0,0.0,0.0,0.0,0.0,0.0,0.0,0.0,0.0,0.0,0.0,0.0,-3.7369,-3.8341,-3.6408,0.0,0.0,0.0,0.0,0.0,0.0,0.0,0.0,0.0,0.0,0.0,-3.5937,-3.7764,-3.9672,-4.1781,-4.3489,-4.4669,-4.5146,-4.4744,-4.3614,-4.1605,-4.035,-3.8617,0.0,0.0,0.0,0.0,0.0,0.0,0.0,0.0,0.0,0.0,0.0,0.0,0.0,0.0,0.0,0.0,0.0,0.0,0.0,0.0,0.0,0.0,0.0,0.0,0.0,0.0,0.0,0.0,0.0,0.0,0.0,0.0,-2.8887,-2.9277,0.0,0.0,0.0,0.0,0.0,0.0,0.0,0.0,0.0,0.0,0.0,0.0,0.0,-3.1738,-3.291,-3.334,-3.3398,-3.3105,-3.4375,-3.4785,-3.4473,-3.5234,-3.5625,-3.5684,-3.5781,0.0,-3.1601,-3.0976,0.0,0.0,0.0,0.0,0.0,0.0,0.0,0.0,0.0,0.0,0.0,0.0,0.0,0.0,0.0,0.0,0.0,0.0,0.0,0.0,0.0,0.0,-3.493,-3.4448,-3.6685,-3.8642,0.0,-3.7362,-3.691,-3.6358,-3.379,0.0,0.0,0.0,0.0,0.0,0.0,0.0,-3.5462,-3.7538,-3.9521,-4.1254,-4.2936,-4.394,-4.4016,-4.394,-4.3388,-4.2133,-4.0576,-3.932,-3.8467,-3.6508,0.0,0.0,0.0,0.0,0.0,0.0,0.0,0.0,0.0,0.0,0.0,0.0,0.0,0.0,0.0,0.0,0.0,0.0,0.0,0.0,0.0,0.0,0.0,0.0,0.0,0.0,0.0,0.0,0.0,-2.959,-3.0273,-2.9004,-3.0137,-3.0215,0.0,0.0,0.0,0.0,0.0,0.0,0.0,0.0,0.0,-3.3262,-3.3555,-3.4082,-3.4883,-3.5312,-3.5547,-3.5605,-3.668,-3.7187,-3.7246,-3.7637,-3.7949,-3.8203,-3.8125,-3.7207,-3.5625,-3.3789,-3.2344,-3.1191,0.0,0.0,0.0,0.0,-3.159,-3.1545,-3.218,-3.1105,0.0,-2.9824,0.0,0.0,0.0,0.0,0.0,0.0,0.0,0.0,0.0,0.0,-3.5773,-3.6364,-3.8348,-4.0318,-4.0689,-3.9898,-3.8617,0.0,-3.5879,-3.4795,-3.427,0.0,0.0,0.0,0.0,-3.4367,-3.6213,-3.8417,-4.0199,-4.1229,-4.2811,-4.379,-4.379,-4.4091,-4.3915,-4.3137,-4.1806,-4.0701,-3.9848,-3.8266,-3.7186,0.0,0.0,0.0,0.0,0.0,0.0,0.0,0.0,0.0,0.0,0.0,0.0,0.0,0.0,0.0,0.0,0.0,0.0,0.0,0.0,0.0,0.0,0.0,0.0,0.0,0.0,0.0,0.0,-3.0664,-3.1367,-2.9219,-3.125,-3.168,0.0,0.0,0.0,0.0,0.0,0.0,-3.2246,-3.3047,-3.4101,-3.5488,-3.5859,-3.6348,-3.7012,-3.7324,-3.7656,-3.7969,-3.8711,-3.9238,-3.9551,-3.9648,-3.9902,-4.0195,-3.9863,-3.9473,-3.8867,-3.6269,-3.4394,-3.3047,-3.1973,-3.2525,-3.4075,-3.384,-3.409,-3.4379,-3.4533,-3.3319,-3.158,-3.1015,-3.0508,-2.9902,-2.9043,0.0,0.0,0.0,0.0,-3.1152,-3.1582,-3.37,-3.6194,-3.7517,-3.9721,-4.1635,-4.2159,-4.1654,-4.045,0.0,-3.7588,-3.7144,-3.5696,0.0,0.0,0.0,0.0,-3.4817,-3.6914,-3.9019,-4.0576,-4.1254,-4.2559,-4.3438,-4.3589,-4.3966,-4.4041,-4.3614,-4.2811,-4.1932,-4.0978,-3.9747,-3.8492,-3.7236,0.0,0.0,0.0,0.0,0.0,0.0,0.0,0.0,0.0,0.0,0.0,0.0,0.0,0.0,0.0,0.0,0.0,0.0,0.0,0.0,0.0,0.0,0.0,0.0,0.0,0.0,0.0,0.0,0.0,-3.0879,-3.3008,0.0,0.0,0.0,0.0,-3.1934,-3.2363,-3.3164,-3.4473,-3.5,-3.6035,-3.7715,-3.7793,-3.8418,-3.9687,-3.9726,-3.9746,-3.9766,-4.0215,-4.043,-4.0469,-4.0879,-4.1094,-4.1113,-4.1094,-4.082,-4.0234,-3.7637,-3.6269,-3.5664,-3.3965,-3.5459,-3.8506,-3.745,-3.8275,-3.9368,-3.7315,-3.5381,-3.378,-3.2993,-3.2109,-3.125,-3.0371,-3.0117,0.0,0.0,-3.0801,-3.1582,-3.2012,-3.3943,-3.5932,-3.6518,-3.9421,-4.1709,-4.0806,-4.1712,-4.2057,0.0,-3.7513,-3.6433,-3.6408,0.0,-3.5386,-3.5344,-3.6313,-3.7086,-3.7161,-3.8693,-4.0149,-4.1229,-4.1882,-4.2459,-4.2986,-4.3037,-4.3062,-4.3011,-4.2961,-4.2685,-4.2108,-4.0526,-3.9622,-3.9521,-3.6885,0.0,0.0,0.0,0.0,0.0,0.0,0.0,0.0,0.0,0.0,0.0,0.0,0.0,0.0,0.0,0.0,0.0,0.0,0.0,0.0,0.0,0.0,0.0,0.0,0.0,0.0,0.0,0.0,-3.5047,-3.6017,0.0,-3.3984,-3.3652,-3.375,-3.4219,-3.4629,-3.543,-3.6699,-3.7461,-3.8379,-3.9551,-4.0137,-4.0644,-4.1113,-4.1387,-4.1523,-4.1523,-4.1406,-4.1348,-4.1348,-4.123,-4.1172,-4.1172,-4.1172,-4.1094,-4.0859,-3.9648,-3.8555,-3.7539,-3.6367,-3.7125,-3.898,-3.9604,-3.9486,-3.8897,-3.9031,-3.7095,-3.4278,-3.2883,-3.1816,-3.1055,-3.0742,-3.084,-3.1055,-3.1055,-3.1855,-3.2773,-3.293,-3.4318,-3.584,-3.7124,-3.8422,-3.9811,-4.156,-4.1921,-4.1793,-4.1538,-3.9898,-3.8492,-3.8492,-3.7136,-3.6307,-3.701,-3.7161,-3.7437,-3.8165,-3.9722,-4.0902,-4.1304,-4.2158,-4.276,-4.2961,-4.266,-4.2459,-4.2459,-4.2108,-4.1831,-4.163,-4.0727,-3.9898,-3.917,-3.7487,-3.6332,0.0,0.0,0.0,0.0,0.0,0.0,0.0,0.0,0.0,0.0,0.0,0.0,0.0,0.0,0.0,0.0,0.0,0.0,0.0,0.0,0.0,0.0,0.0,0.0,0.0,0.0,-3.6811,-3.7217,-3.8425,-3.8496,-3.6641,-3.6465,-3.6582,-3.6894,-3.7305,-3.8027,-3.918,-3.9902,-4.0566,-4.1152,-4.1855,-4.2168,-4.2012,-4.2422,-4.2578,-4.2422,-4.2148,-4.1933,-4.1797,-4.1504,-4.1308,-4.1172,-4.1172,-4.1172,-4.1152,-4.0859,-4.0234,-3.9375,-3.8516,-3.8948,-4.0243,-4.1121,-4.135,-4.1352,-4.1321,-3.8569,-3.4902,-3.3476,-3.2539,-3.1934,-3.1797,-3.1934,-3.2187,-3.2344,-3.2988,-3.3711,-3.4004,-3.4746,-3.5677,-3.6953,-3.7632,-3.8614,-4.0716,-4.1387,-4.1707,-4.2266,-4.1429,-4.035,-3.9798,-3.8467,-3.7739,-3.8467,-3.8115,-3.8216,-3.9546,-4.0501,-4.1204,-4.158,-4.2258,-4.276,-4.2961,-4.2484,-4.2158,-4.2158,-4.1279,-4.0777,-4.0777,-4.0249,-3.9622,-3.8894,-3.7387,-3.6358,-3.5805,0.0,0.0,0.0,0.0,0.0,0.0,0.0,0.0,0.0,0.0,0.0,0.0,0.0,0.0,0.0,0.0,0.0,0.0,0.0,0.0,0.0,0.0,0.0,-3.2411,-3.4956,-3.7034,-3.7524,-4.0039,-4.1035,-3.8965,-3.9512,-4.0019,-4.0,-4.0371,-4.0957,-4.1777,-4.2207,-4.2441,-4.2441,-4.2871,-4.2891,-4.25,-4.293,-4.293,-4.25,-4.25,-4.2266,-4.1855,-4.1836,-4.1582,-4.1191,-4.1172,-4.1172,-4.1172,-4.1172,-4.1172,-4.1094,-4.0254,-4.1062,-4.2544,-4.2084,-4.4154,-4.6852,-4.3689,-3.9778,-3.5898,-3.5019,-3.4453,-3.4023,-3.3594,-3.3457,-3.3555,-3.3965,-3.4101,-3.4316,-3.5176,-3.541,-3.5508,-3.5918,-3.7307,-3.836,-3.79,-4.0061,-4.1779,-4.1354,-4.1736,-4.1681,-4.0049,-3.9747,-3.9747,-3.9747,-3.9295,0.0,-4.1128,-4.0877,-4.0978,-4.2032,-4.2183,-4.2409,-4.2936,-4.2484,-4.2133,-4.2082,-4.0551,-3.9647,-3.9622,-3.9094,-3.8818,-3.8818,-3.6709,-3.5328,-3.4776,0.0,0.0,0.0,0.0,0.0,0.0,0.0,0.0,0.0,0.0,0.0,0.0,0.0,0.0,0.0,0.0,0.0,0.0,0.0,0.0,0.0,0.0,-3.4358,-3.5643,-3.8036,-4.0207,-4.2256,-4.2604,-4.2754,-4.2793,-4.2715,-4.2519,-4.2226,-4.2305,-4.2344,-4.2266,-4.2363,-4.2578,-4.2891,-4.3301,-4.3633,-4.3848,-4.4277,-4.4433,-4.4316,-4.4004,-4.3613,-4.3164,-4.2539,-4.2031,-4.1621,-4.1308,-4.1172,-4.1172,-4.1172,-4.1172,-4.1152,-4.0918,-4.1109,-4.1622,-4.2621,-4.2954,-4.2721,-4.0551,-3.8267,-3.6406,-3.584,-3.5371,-3.4941,-3.4492,-3.4355,-3.4375,-3.4492,-3.4766,-3.5098,-3.5332,-3.5625,-3.5879,-3.5996,-3.6403,-3.7018,-3.8187,-3.868,-3.9582,-4.1419,-4.1635,-4.1509,-4.1464,-4.1153,-4.0877,-4.0877,-4.0752,0.0,-4.1279,-4.1555,-4.1806,-4.2133,-4.2861,-4.3237,-4.3011,-4.2484,-4.1656,-4.045,-3.917,-3.8291,-3.7889,-3.7739,-3.7638,-3.7638,-3.7036,-3.6483,0.0,0.0,0.0,0.0,0.0,0.0,0.0,0.0,0.0,0.0,0.0,0.0,0.0,0.0,0.0,0.0,0.0,0.0,0.0,0.0,0.0,0.0,-3.4336,-3.6423,-3.834,-3.9982,-4.1776,-4.4156,-4.4271,-4.4375,-4.4883,-4.4531,-4.416,-4.3906,-4.3555,-4.3398,-4.3516,-4.334,-4.3457,-4.3887,-4.4316,-4.457,-4.4668,-4.5078,-4.5215,-4.5019,-4.459,-4.4258,-4.3965,-4.3105,-4.2461,-4.2031,-4.1621,-4.1348,-4.1172,-4.1172,-4.1172,0.0,0.0,0.0,0.0,0.0,-4.2373,-4.0634,-4.0326,-3.8684,-3.6855,-3.6426,-3.5996,-3.5605,-3.5332,-3.5254,-3.5254,-3.5254,-3.5449,-3.5664,-3.5664,-3.584,-3.6016,-3.6016,-3.6016,-3.6287,-3.7307,-3.7604,-3.8337,-3.9936,-4.0959,0.0,-4.2103,-4.1892,-4.1681,-4.1681,-4.148,-4.1505,-4.1957,-4.2108,-4.2258,-4.2484,-4.3062,-4.3313,-4.3011,-4.2258,0.0,0.0,0.0,-3.7412,-3.686,-3.6835,0.0,0.0,0.0,-3.6935,-3.6383,0.0,0.0,0.0,-3.4374,-3.3872,0.0,0.0,0.0,0.0,0.0,0.0,0.0,0.0,0.0,0.0,0.0,0.0,0.0,0.0,0.0,0.0,-3.6523,-3.8769,-4.0566,-4.123,-4.2266,-4.4238,-4.5234,-4.5762,-4.582,-4.5469,-4.5215,-4.5176,-4.4394,-4.4238,-4.498,0.0,0.0,0.0,0.0,-4.5508,-4.5176,-4.5547,-4.5547,-4.5156,-4.4785,-4.459,-4.4512,-4.3633,-4.2988,-4.2539,-4.207,-4.1641,-4.125,-4.125,-4.1211,-4.1172,-4.1172,-4.1172,-4.1463,-4.3075,-4.211,-4.0184,-4.1731,0.0,0.0,-3.7232,-3.6642,-3.6152,-3.6113,-3.6055,-3.6016,-3.6016,-3.6016,-3.6016,-3.6016,-3.6016,-3.6016,-3.6016,-3.6016,-3.6016,-3.6016,-3.687,-3.7598,-3.7796,-4.0083,-4.1992,-4.2065,-4.234,-4.2409,-4.2359,-4.1932,-4.1957,-4.2861,-4.2559,-4.2434,-4.2936,0.0,0.0,-4.2986,-4.2082,-4.1204,-4.0475,-3.8391,-3.696,-3.6483,-3.6508,-3.6759,-3.7186,-3.7236,-3.701,-3.6458,-3.6458,-3.6458,-3.6433,-3.5906,-3.5127,0.0,0.0,0.0,0.0,0.0,0.0,0.0,0.0,0.0,0.0,0.0,0.0,0.0,0.0,0.0,-3.6328,-3.8281,-4.0234,-4.2305,-4.3262,-4.4062,-4.4824,-4.5664,-4.6308,-4.666,-4.6621,-4.6426,-4.6074,-4.5586,-4.5215,-4.5039,-4.4941,-4.5098,-4.5527,-4.5625,-4.5801,-4.6055,-4.6133,-4.6133,-4.6055,0.0,0.0,-4.5391,-4.4531,-4.3887,-4.3418,-4.2637,-4.207,-4.168,-4.168,-4.1484,-4.1172,-4.1172,-4.1172,-4.1172,-4.1618,-4.1128,-4.0636,-4.2039,-4.0878,-3.8983,-3.9716,-3.8606,-3.6992,-3.6641,-3.6289,0.0,-3.6016,-3.6016,-3.6016,-3.6016,-3.6016,-3.6016,-3.6016,-3.6016,-3.6016,-3.6016,-3.6209,-3.6703,-3.7598,-3.934,-4.0897,-4.1992,-4.3247,-4.3991,-4.3539,-4.3388,-4.3237,-4.3011,-4.2886,-4.2861,-4.2961,-4.3363,-4.3463,-4.3011,-4.2785,-4.1856,-3.9973,-3.8165,-3.7136,-3.7036,-3.7462,-3.7538,-3.7186,-3.7613,-3.7588,-3.7036,-3.7036,-3.7036,-3.701,-3.6483,-3.6107,0.0,0.0,0.0,0.0,0.0,0.0,0.0,0.0,0.0,0.0,0.0,-3.248,0.0,0.0,-3.6328,-3.8281,-4.0039,-4.1758,-4.3496,-4.4668,-4.543,-4.5644,-4.6035,-4.6543,-4.7187,-4.7051,-4.6933,-4.6933,-4.6348,-4.5996,-4.5976,-4.5586,-4.5547,-4.5976,-4.5996,-4.6094,-4.6308,-4.6308,-4.6308,-4.6308,-4.6094,-4.5996,-4.5957,-4.5098,-4.4473,-4.4004,-4.3125,-4.2383,-4.1777,-4.1562,-4.1367,-4.1172,-4.1172,-4.1172,-4.1172,-4.1172,-4.0898,-4.0602,-4.1033,-4.0853,-4.0144,-3.9252,-3.8665,-3.8102,-3.674,-3.6191,-3.6016,-3.6016,-3.6016,-3.6016,-3.6016,-3.6016,-3.6016,-3.6016,-3.6016,-3.6016,-3.6016,-3.6016,-3.6209,-3.6757,-3.8262,-3.9711,-4.0211,-4.2433,-4.4175,-4.4227,-4.4217,-4.4016,-4.3463,-4.3388,-4.3288,-4.3011,-4.3212,-4.3263,-4.3011,-4.2484,-4.158,-4.0199,-3.8793,-3.8015,-3.8015,-3.8015,-3.7864,-3.7613,-3.814,-3.8316,-3.8015,-3.8316,-3.8592,-3.8843,-3.8291,-3.7588,0.0,0.0,0.0,0.0,0.0,0.0,0.0,0.0,-3.2129,-3.3398,-3.4004,-3.4785,-3.6348,-3.7344,-3.8437,-4.0019,-4.1621,-4.3105,-4.4336,-4.5547,-4.6387,-4.6641,-4.668,-4.6914,-4.7519,-4.7344,-4.7324,-4.7676,-4.6992,-4.6699,-4.7031,-4.6328,-4.6074,-4.6406,-4.6348,-4.6308,-4.6308,-4.6308,-4.6308,-4.6289,-4.5957,-4.5976,-4.6269,-4.5508,-4.4922,-4.4453,-4.3418,-4.2558,-4.1894,-4.1387,-4.1172,-4.1172,-4.1172,-4.1172,-4.1172,-4.1172,-4.0957,-4.0586,-4.0591,-4.1061,-4.1188,-3.9414,-3.9199,-3.9344,-3.7305,-3.6464,-3.6133,-3.6035,-3.6016,-3.6016,-3.6016,-3.6016,-3.6035,-3.6133,-3.6074,-3.6035,-3.6133,-3.6152,-3.6152,-3.6152,-3.7644,-3.8849,-3.8744,-4.1315,-4.3517,-4.4215,-4.4536,-4.4543,-4.389,-4.379,-4.3589,-4.3037,-4.2986,-4.3011,-4.3137,-4.2133,-4.1354,-4.1028,-3.9973,-3.9295,-3.9195,-3.8743,-3.8442,-3.8341,-3.8894,-3.9195,-3.9195,-3.9747,-4.0249,-4.0676,-4.0224,-3.922,-3.1133,-3.0273,-3.0117,-3.1465,-3.1621,-3.2226,0.0,0.0,-3.5254,-3.6523,-3.7129,-3.7715,-3.8672,-3.957,-4.0469,-4.1426,-4.2695,-4.3887,-4.4824,-4.5742,-4.6719,-4.7851,-4.7988,-4.7891,-4.7617,-4.7871,-4.8086,-4.8125,-4.7695,-4.7461,-4.75,-4.7051,-4.6816,-4.6855,-4.6504,-4.6308,-4.6308,-4.6308,-4.6308,-4.6308,-4.625,-4.625,-4.6289,-4.582,-4.5371,-4.4863,-4.3203,-4.2441,-4.2285,-4.1504,-4.1172,-4.1172,-4.1172,-4.1172,-4.1172,-4.1172,-4.1152,-4.1325,-4.2481,-4.271,-4.2604,-4.3502,-4.2301,-4.0423,-3.9846,-3.8239,-3.6523,-3.6133,-3.6016,-3.6016,-3.6016,-3.6016,-3.6113,-3.6504,-3.6309,-3.6133,-3.6523,-3.6601,-3.6601,-3.6601,-3.8356,-3.9553,-3.9134,-4.076,-4.2244,-4.3017,-4.4372,-4.4995,-4.394,-4.379,-4.3589,-4.3037,-4.2986,-4.3162,-4.3664,-4.271,-4.2258,-4.266,-4.1681,-4.0852,-4.035,-4.0275,-3.9998,-3.9521,-4.0049,-4.0325,-4.0325,-4.0877,-4.1178,-4.1254,-4.1178,-4.0802,-3.2942,-3.209,0.0,0.0,-3.3535,-3.4961,-3.6641,-3.7324,-3.8047,-3.9609,-4.0254,-4.0801,-4.166,-4.2129,-4.2578,0.0,-4.418,-4.5058,-4.5683,-4.6504,-4.707,-4.709,-4.7539,-4.7969,-4.8301,-4.8242,-4.832,-4.8574,-4.8183,-4.7949,-4.7949,-4.7305,-4.7051,-4.7305,-4.666,-4.6426,-4.666,-4.6426,-4.6308,-4.6308,-4.6308,-4.6308,-4.6289,-4.5859,-4.5156,-4.418,-4.2969,-4.2285,-4.2012,-4.1426,-4.1172,-4.1172,-4.1172,-4.1172,-4.1172,-4.1172,-4.1172,-4.1268,-4.1542,-4.2092,-4.2585,-4.2685,-4.1741,-4.057,-4.0267,-3.8478,-3.6641,-3.6445,-3.6211,-3.6016,-3.6016,-3.6016,-3.6074,-3.625,-3.6348,-3.6445,-3.6641,-3.6855,-3.7031,-3.7031,-3.7708,-3.8306,-3.8125,-3.9323,-4.0716,-4.2107,-4.3464,-4.4522,-4.4753,-4.4493,-4.4066,-4.3514,-4.3463,-4.3689,-4.4242,-4.3865,-4.3564,-4.3463,-4.2735,-4.2057,-4.148,-4.0852,-4.0551,-4.0651,-4.0249,-4.035,-4.1003,-4.0902,-4.1204,-4.1806,-4.148,-4.1379,-3.3855,0.0,0.0,-3.3926,-3.5723,-3.7578,-3.8359,-3.9434,-4.0703,-4.2207,-4.2754,-4.3203,-4.3926,-4.416,-4.4355,-4.4687,-4.5469,-4.6172,-4.6601,-4.709,-4.7168,-4.6543,-4.6816,-4.7344,-4.8086,-4.8183,-4.8379,-4.8828,-4.8574,-4.8379,-4.8379,-4.7578,-4.7246,-4.7578,-4.6758,-4.6504,-4.6933,-4.6621,-4.6484,-4.6484,-4.6484,-4.6426,-4.6289,-4.5742,-4.498,-4.4004,-4.291,-4.2246,-4.1933,-4.1387,-4.1172,-4.1172,-4.1172,-4.1172,-4.1172,-4.1172,-4.1172,-4.1133,-4.082,-4.1565,-4.2774,-4.2529,-4.2095,-4.1743,-4.1165,-3.9467,-3.749,-3.6838,-3.6348,-3.6055,-3.6172,-3.6191,-3.6269,-3.6484,-3.6699,-3.6875,-3.6992,-3.7266,-3.7461,-3.7461,-3.7578,-3.7617,-3.75,-3.8286,-3.9312,-4.0891,-4.223,-4.3707,-4.531,-4.497,-4.4468,-4.4066,-4.4041,-4.4267,-4.4819,-4.4719,-4.4518,-4.4292,-4.3589,-4.2961,-4.2409,-4.148,-4.1078,-4.1329,-4.0701,-4.0777,-4.1555,-4.1329,-4.1605,-4.2384,-4.1982,-4.2007,0.0,0.0,-3.4023,-3.6543,-3.8144,-3.957,-4.1269,-4.2344,-4.3223,-4.4141,-4.4336,-4.4473,-4.4902,-4.5332,-4.5625,-4.5644,-4.6348,-4.7051,-4.748,-4.7207,-4.6933,-4.6914,-4.6211,-4.5898,0.0,-4.748,-4.8379,-4.8828,-4.8848,-4.8848,-4.8848,-4.8027,-4.7578,-4.7578,-4.6758,-4.6504,-4.6933,-4.6914,-4.6914,-4.6914,-4.6914,-4.6699,-4.6269,-4.543,-4.5019,-4.4883,-4.3164,-4.2422,-4.2344,-4.1523,-4.1172,-4.1172,-4.1172,-4.1172,-4.1172,-4.1172,-4.1172,-4.1172,-4.1152,-4.2028,-4.3447,-4.4826,-4.4909,-4.447,-4.3645,-4.1825,-3.9467,-3.7312,-3.6348,-3.6113,-3.6543,-3.666,-3.6855,-3.7676,-3.7559,-3.7383,-3.7793,-3.7891,-3.791,-3.791,-3.8242,-3.8398,-3.7969,-3.7891,-3.8286,-3.9146,-4.0693,-4.2696,-4.5241,-4.497,-4.4618,-4.4593,-4.4593,-4.4844,-4.5422,-4.4945,-4.4844,-4.5397,-4.4392,-4.3539,-4.2986,-4.2409,-4.1856,-4.1354,-4.1831,-4.2108,-4.2133,-4.266,-4.2911,-4.2961,-4.2936,-4.2936,-3.6018,0.0,-3.8861,-3.9279,-4.082,-4.2578,-4.4043,-4.5019,-4.5723,-4.6016,-4.541,-4.4766,-4.4629,-4.4473,-4.4551,-4.5156,-4.6191,-4.7187,-4.7891,-4.7871,-4.7363,-4.623,-4.6094,0.0,0.0,0.0,0.0,-4.8359,-4.8418,-4.8555,-4.8848,-4.832,-4.7988,-4.7988,-4.7168,-4.6777,-4.6933,-4.666,-4.6504,-4.6504,-4.6504,-4.6152,-4.543,-4.4863,-4.4297,-4.3672,-4.2519,-4.2012,-4.1973,-4.1406,-4.1172,-4.1172,-4.1172,-4.1172,-4.1172,-4.1172,-4.1172,-4.1172,-4.1172,-4.1322,-4.1797,-4.351,-4.3713,-4.3408,-4.2964,-4.2039,-4.0584,-3.8521,-3.7422,-3.6894,-3.7051,-3.709,-3.7148,-3.7441,-3.7617,-3.7754,-3.7891,-3.8144,-3.8359,-3.8359,-3.8476,-3.8535,-3.8379,-3.8105,-3.8164,-3.901,-4.1347,-4.3606,-4.5335,-4.5321,-4.5196,-4.5196,-4.5196,-4.5422,-4.5974,-4.5849,-4.5673,-4.5497,-4.5121,-4.4493,-4.3564,-4.2986,-4.261,-4.2434,-4.1882,-4.1982,-4.271,-4.2509,-4.2811,-4.3514,-4.3162,-4.3363,-4.041,-4.1519,-4.2857,-4.3224,-4.4013,-4.4902,-4.5898,-4.6543,-4.6836,-4.6543,-4.5449,-4.4375,-4.3808,-4.332,-4.332,-4.418,-4.5137,-4.623,-4.7558,-4.7363,-4.6777,-4.5996,-4.5879,-4.5586,0.0,0.0,0.0,-4.7656,-4.8027,-4.832,-4.8613,-4.8359,-4.8144,-4.7988,-4.7305,-4.6933,-4.6933,-4.666,-4.6523,-4.6523,-4.623,-4.5781,-4.5234,-4.4668,-4.4004,-4.3262,-4.2402,-4.1933,-4.1758,-4.1348,-4.1172,-4.1172,-4.1172,-4.1172,-4.1172,-4.1172,-4.1172,-4.1172,-4.1172,-4.0996,-4.101,-4.274,-4.3194,-4.3068,-4.3482,-4.3171,-4.2244,-4.0289,-3.9171,-3.8487,-3.7661,-3.7519,-3.7559,-3.7715,-3.7969,-3.8164,-3.8164,-3.8379,-3.8574,-3.8574,-3.8574,-3.8574,-3.8574,-3.8223,-3.8283,-3.9446,-4.1067,-4.2776,-4.4572,-4.539,-4.5773,-4.5773,-4.5773,-4.5924,-4.6276,-4.6301,-4.615,-4.5799,-4.5598,-4.5171,-4.4443,-4.3865,-4.3463,-4.3263,-4.2585,-4.2459,-4.2986,-4.261,-4.2911,-4.379,-4.3438,-4.3765,-4.5898,-4.5948,-4.6188,-4.7954,-4.7399,-4.666,-4.6875,-4.6953,-4.668,-4.5801,-4.4512,-4.3262,0.0,0.0,-4.1973,-4.2871,-4.3457,-4.4551,-4.6719,-4.5976,-4.5508,0.0,0.0,0.0,0.0,0.0,0.0,-4.6836,0.0,-4.8164,-4.8242,-4.8242,-4.8047,-4.7617,-4.7187,-4.6953,-4.6933,-4.6914,-4.6894,-4.6894,-4.6074,-4.5664,-4.5605,-4.4746,-4.4101,-4.3594,-4.2754,-4.2148,-4.1738,-4.1348,-4.1172,-4.1172,-4.1172,-4.1172,-4.1172,-4.1172,-4.1172,-4.1172,-4.1172,-4.1172,-4.1404,-4.2714,-4.3297,-4.3658,-4.4936,-4.5162,-4.4391,-4.2124,-4.1116,-4.034,-3.8398,-3.7969,-3.8066,-3.8476,-3.8574,-3.8574,-3.8574,-3.8574,-3.8574,-3.8574,-3.8574,-3.8574,-3.8574,-3.8223,-3.8462,-4.0096,-3.9762,-4.032,-4.3326,-4.5184,-4.623,-4.6301,-4.6326,-4.6351,-4.6301,-4.6301,-4.6301,-4.6301,-4.5824,-4.5522,-4.5497,-4.497,-4.4392,-4.3815,-4.379,-4.3539,-4.2986,-4.2986,-4.3263,-4.384,-4.3815,-4.4141,-4.9534,-5.1338,-5.2788,-5.0524,-5.013,-4.9719,-4.7799,-4.7168,-4.6504,-4.5019,-4.291,-4.0879,0.0,0.0,0.0,-4.1875,-4.3848,0.0,-4.8066,-4.8086,0.0,0.0,0.0,-4.6601,-4.5762,-4.6133,0.0,0.0,-4.7129,-4.7676,-4.8633,-4.8691,-4.8496,-4.8066,-4.7637,-4.7266,-4.6933,-4.6621,-4.6465,-4.6465,-4.5918,-4.5508,-4.5156,-4.4277,-4.3457,-4.2715,-4.2187,-4.1719,-4.1328,-4.1211,-4.1172,-4.1172,-4.1172,-4.1172,-4.1172,-4.1172,-4.1172,-4.1172,-4.1172,-4.1172,-4.1308,-4.1634,-4.2759,-4.3757,-4.2637,-4.2998,-4.3467,-4.1352,-4.0176,-3.9579,-3.9014,-3.8652,-3.8437,-3.8555,-3.8574,-3.8574,-3.8574,-3.8574,-3.8574,-3.8574,-3.8574,-3.8574,-3.8574,-3.8223,-3.8053,-3.8462,-3.9224,-4.0818,-4.3867,-4.4726,-4.5353,-4.623,-4.6677,-4.6753,-4.6351,-4.6301,-4.6301,-4.6301,-4.6175,-4.5924,-4.5497,-4.5347,-4.4794,-4.3815,-4.379,-4.3539,-4.2986,-4.2986,-4.3463,-4.4392,-4.3991,-4.4543,-5.4353,-5.5938,-5.7055,-5.4603,-5.3147,-5.1726,-4.8891,-4.7066,-4.5332,-4.2656,-4.0508,0.0,0.0,0.0,0.0,0.0,0.0,0.0,-4.7637,-4.7851,-4.7676,0.0,-4.7695,0.0,-4.6855,-4.7051,-4.7363,0.0,-4.7598,-4.7812,-4.8535,-4.875,-4.8574,-4.7949,-4.7715,-4.7285,-4.666,-4.6426,-4.6308,-4.6289,-4.5879,-4.5449,-4.5,-4.4316,-4.3437,-4.2422,0.0,-4.1738,-4.1172,-4.1172,-4.1172,-4.1172,-4.1172,-4.1172,-4.1172,-4.1172,-4.1172,-4.1172,-4.1172,-4.1172,-4.1172,-4.1172,-4.1907,-4.2769,-4.2483,-4.3043,-4.3527,-4.218,-4.1453,-4.0881,-3.9849,-3.918,-3.8906,-3.9101,-3.8867,-3.8633,-3.8809,-3.8711,-3.8574,-3.8574,-3.8574,-3.8574,-3.8574,-3.8379,-3.8203,-3.8203,-3.8666,-3.9896,-4.2304,-4.3752,-4.4894,-4.5722,-4.6563,-4.7104,-4.7029,-4.7004,-4.6903,-4.6702,-4.6677,-4.6426,-4.5874,-4.5849,-4.5447,-4.4568,-4.4543,-4.4141,-4.3338,-4.3589,-4.4016,-4.4618,-4.4568,-4.5171,-5.9257,-5.9918,-5.9763,-5.8974,-5.6075,-5.269,-4.9829,-4.6669,-4.3457,-3.9726,0.0,-3.6367,-3.4746,-3.5254,-3.668,-3.8926,0.0,-4.3164,-4.6621,-4.6777,-4.6992,-4.8164,-4.8301,-4.8301,-4.8301,-4.7969,-4.8066,-4.8808,-4.8516,-4.8301,-4.8301,-4.8652,-4.8457,-4.7617,-4.7578,-4.7168,-4.6308,-4.6308,-4.6308,-4.6289,-4.5879,-4.5469,-4.5098,-4.4609,-4.373,-4.2598,-4.248,-4.1973,-4.125,-4.1191,-4.1172,-4.1172,-4.1172,-4.1172,-4.1172,-4.1172,-4.1172,-4.1172,-4.1172,-4.1172,-4.1172,-4.1172,-4.1172,-4.1463,-4.3228,-4.3663,-4.358,-4.3335,-4.3168,-4.2617,-4.0512,-3.9648,-3.9394,-3.9805,-3.9258,-3.875,-3.9121,-3.8867,-3.8594,-3.8652,-3.8652,-3.8672,-3.875,-3.875,-3.873,-3.8672,-3.834,-3.862,-4.0059,-4.2393,-4.4208,-4.5124,-4.626,-4.7233,-4.7883,-4.7908,-4.7707,-4.7255,-4.723,-4.7004,-4.6451,-4.6426,-4.6125,-4.5497,-4.5497,-4.497,-4.3915,-4.4392,-4.4669,-4.4744,-4.5246,-4.5773,-6.1868,-6.2845,-6.3073,-6.1034,-5.7711,-5.3946,-5.0185,-4.5393,0.0,0.0,-3.6035,-3.4316,-3.3301,-3.4434,-3.6445,-3.9316,0.0,0.0,0.0,0.0,-4.8086,0.0,0.0,0.0,0.0,0.0,0.0,0.0,0.0,-4.875,-4.875,-4.8808,-4.8457,-4.7617,-4.7578,-4.7168,-4.6308,-4.6308,-4.6308,-4.6289,-4.5879,-4.5644,-4.5527,-4.4746,-4.4062,-4.3437,-4.2734,0.0,-4.166,-4.1308,-4.1172,-4.1172,-4.1172,-4.1172,-4.1172,-4.1172,-4.1172,-4.1172,-4.1172,-4.1172,-4.1172,-4.1172,-4.1172,-4.1327,-4.1618,-4.1773,-4.1753,-4.1674,-4.1396,-4.0946,-4.043,-4.0098,-3.9805,-3.9883,-3.9492,-3.9121,-3.918,-3.8867,-3.8672,-3.9023,-3.9101,-3.9219,-3.9609,-3.9668,-3.9531,-3.9141,-3.9023,-3.8994,-3.8912,-4.034,-4.2323,-4.4937,-4.5739,-4.6585,-4.7808,-4.7908,-4.7883,-4.7782,-4.7782,-4.7531,-4.7004,-4.7004,-4.6527,-4.5497,-4.5497,-4.5146,-4.4493,-4.4568,-4.4869,-4.5347,-4.5447,-4.5773,-6.3802,-6.4931,-6.5439,-6.3596,-6.05,-5.6445,-5.081,0.0,0.0,0.0,-3.3945,-3.2812,-3.1953,-3.3203,0.0,0.0,0.0,0.0,0.0,0.0,0.0,0.0,0.0,0.0,0.0,0.0,0.0,0.0,0.0,-4.8867,-4.8867,-4.8437,-4.8008,-4.7598,-4.7148,-4.6719,-4.6308,-4.6308,-4.6308,-4.6308,-4.6094,-4.5879,-4.5644,-4.5019,-4.4355,-4.3672,-4.3047,-4.2519,-4.209,-4.168,-4.1504,-4.1484,-4.125,-4.1172,-4.1172,-4.1172,-4.1172,-4.1172,-4.1172,-4.1172,-4.1172,-4.1172,-4.1172,-4.1172,-4.1172,-4.1172,-4.1172,-4.1172,-4.1035,-4.0859,-4.0859,-4.0547,-4.0273,-4.0508,-4.0039,-3.9434,-3.8984,-3.8711,-3.8633,-3.8828,-3.9062,-3.9277,-3.9492,-3.9726,-3.9824,-3.959,-3.9551,-3.9414,-3.8965,-3.9565,-4.12,-4.4275,-4.5404,-4.6762,-4.866,-4.8786,-4.8661,-4.8385,-4.836,-4.8109,-4.7556,-4.7531,-4.728,-4.6753,-4.6476,-4.6075,-4.5497,-4.5497,-4.5497,-4.5497,-4.5773,-4.62,-6.5183,-6.6287,-6.6915,-6.5911,-6.286,-5.8189,-5.1698,-4.6153,0.0,0.0,-3.2548,-3.1719,-3.1133,-3.2187,-3.3887,0.0,0.0,0.0,0.0,0.0,0.0,0.0,0.0,0.0,0.0,0.0,0.0,0.0,0.0,0.0,-4.8867,-4.8125,-4.7676,-4.7578,-4.6836,-4.6387,-4.6308,-4.6308,-4.6308,-4.6308,-4.6308,-4.6133,-4.5801,-4.5273,-4.4648,-4.3945,-4.334,-4.2832,-4.2402,-4.1973,-4.1758,-4.1641,-4.1308,-4.1172,-4.1172,-4.1172,-4.1172,-4.1172,-4.1172,-4.1172,-4.1172,-4.1172,-4.1172,-4.1172,-4.1172,-4.1172,-4.1172,-4.1172,-4.1172,-4.1172,-4.1172,-4.0918,-4.0703,-4.0859,-4.0391,-3.9648,-3.8769,-3.8574,-3.8633,-3.8828,-3.9121,-3.9414,-3.959,-3.9922,-4.0137,-4.0039,-4.0039,-3.9863,-3.9414,-3.9355,-4.0484,-4.3477,-4.4573,-4.613,-4.8713,-4.9023,-4.9003,-4.8962,-4.8937,-4.8686,-4.8109,-4.8083,-4.8033,-4.7908,-4.7506,-4.7079,-4.6652,-4.6552,-4.625,-4.5849,-4.6175,-4.6552,-6.5735,-6.6865,-6.7568,-6.6965,-6.286,-5.7921,-5.3521,0.0,0.0,-3.5704,-3.2872,-3.1113,-3.1406,-3.1914,-3.3125,0.0,0.0,-3.9355,0.0,0.0,0.0,0.0,0.0,0.0,0.0,0.0,0.0,0.0,0.0,0.0,-4.8867,-4.8418,-4.7969,-4.7598,-4.7129,-4.6699,-4.6308,-4.6308,-4.6308,-4.6308,-4.6308,-4.6289,-4.6211,-4.5391,-4.498,-4.4844,-4.3613,-4.2832,0.0,-4.1973,-4.1582,-4.123,-4.1191,-4.1172,-4.1172,-4.1172,-4.1172,-4.1172,-4.1172,-4.1172,-4.1172,-4.1172,-4.1172,-4.1172,-4.1172,-4.1172,-4.1172,-4.1172,-4.1172,-4.1172,-4.1172,-4.1152,-4.0937,-4.0195,-3.9961,-3.9648,-3.8769,-3.8574,-3.8809,-3.9629,-3.9805,-4.0078,-4.0859,-4.1035,-4.0918,-4.0527,-4.0469,-4.0312,-3.9883,-3.9824,-4.0514,-4.2585,-4.2073,-4.32,-4.6798,-4.7088,-4.7749,-4.9386,-4.9515,-4.9264,-4.8711,-4.8686,-4.8435,-4.7908,-4.7857,-4.7807,-4.7757,-4.728,-4.7029,-4.6979,-4.6527,-4.6326,-6.5961,-6.7693,-6.8572,-6.7693,-6.4174,-5.9232,-5.3659,0.0,-4.0408,-3.5728,-3.2727,-3.0937,-3.1113,-3.1289,-3.1992,-3.3789,-3.4297,0.0,-4.0039,0.0,0.0,0.0,0.0,0.0,0.0,0.0,0.0,0.0,0.0,0.0,-4.8476,-4.8066,-4.7637,-4.7207,-4.6777,-4.6465,-4.6308,-4.6308,-4.6308,-4.6308,-4.6308,-4.6308,-4.6289,-4.5683,-4.5273,-4.498,-4.4199,-4.3613,0.0,-4.2461,-4.207,-4.1875,-4.1367,-4.1172,-4.1172,-4.1172,-4.1172,-4.1172,-4.1172,-4.1172,-4.1172,-4.1172,-4.1172,-4.1172,-4.1172,-4.1172,-4.1172,-4.1172,-4.1172,-4.1172,-4.1172,-4.1172,-4.1016,-4.041,-4.0078,-3.9726,-3.9082,-3.8945,-3.9062,-3.9414,-3.9902,-4.0391,-4.0723,-4.0996,-4.1113,-4.0937,-4.0918,-4.0762,-4.0332,-4.0273,-4.0459,-4.0913,-4.1688,-4.3556,-4.7341,-4.7353,-4.8016,-4.9962,-4.9766,-4.949,-4.9264,-4.9264,-4.9163,-4.8937,-4.8611,-4.8435,-4.8435,-4.7883,-4.7606,-4.7606,-4.738,-4.7456,-6.4512,-6.7066,-6.8497,-6.7543,-6.4379,-5.9922,0.0,-4.7631,-4.1594,-3.636,-3.3265,-3.1441,-3.0995,-3.0898,-3.1269,-3.2422,-3.2559,-3.3906,-3.7832,-3.8594,0.0,0.0,0.0,0.0,0.0,0.0,0.0,0.0,0.0,0.0,-4.7851,-4.7558,-4.7246,-4.6933,-4.6523,-4.6308,-4.6308,-4.6308,-4.6308,-4.6308,-4.6308,-4.6308,-4.6289,-4.5742,-4.5312,-4.5,-4.4433,-4.3945,0.0,-4.2871,-4.248,-4.2187,-4.1582,-4.1289,-4.1172,-4.1172,-4.1172,-4.1172,-4.1172,-4.1172,-4.1172,-4.1172,-4.1172,-4.1172,-4.1172,-4.1172,-4.1172,-4.1172,-4.1172,-4.1172,-4.1172,-4.1172,-4.1055,-4.0625,-4.0293,-3.9961,-3.9492,-3.9414,-3.9453,-3.957,-4.0098,-4.0566,-4.0684,-4.0976,-4.1172,-4.1172,-4.1172,-4.1055,-4.0762,-4.0723,-4.0605,-4.0312,-4.1404,-4.3446,-4.642,-4.6797,-4.7732,-4.9668,-5.0006,-5.0092,-5.0092,-4.9916,-4.9841,-4.9841,-4.9464,-4.9188,-4.9012,-4.8611,-4.8335,-4.8159,-4.7983,-4.8209,-6.0936,-6.4479,-6.6865,-6.6287,-6.3199,-5.9156,-5.4712,-4.8748,-4.2705,-3.7906,-3.4832,-3.2644,-3.1228,-3.0898,-3.1172,-3.2031,-3.2871,-3.4473,-3.75,-3.8652,0.0,0.0,0.0,0.0,0.0,0.0,0.0,0.0,0.0,0.0,-4.6992,-4.6933,-4.6933,-4.6933,-4.6523,-4.6308,-4.6308,-4.6308,-4.6308,-4.6308,-4.6308,-4.6308,-4.6269,-4.541,-4.5039,-4.498,-4.4101,-4.3476,0.0,-4.3066,-4.2578,-4.1816,-4.1797,-4.1543,-4.1172,-4.1172,-4.1172,-4.1172,-4.1172,-4.1172,-4.1172,-4.1172,-4.1172,-4.1172,-4.1172,-4.1172,-4.1172,-4.1172,-4.1172,-4.1172,-4.1172,-4.1172,-4.1055,-4.0625,-4.0527,-4.041,-3.998,-3.9883,-4.0019,-4.043,-4.0508,-4.0664,-4.1094,-4.1172,-4.1172,-4.1172,-4.1172,-4.1172,-4.1172,-4.1172,-4.1172,-4.1172,-4.1152,-4.1529,-4.2648,-4.443,-4.642,-4.823,-5.0235,-5.1272,-5.1272,-5.072,-5.0419,-5.0419,-5.0393,-5.0117,-4.959,-4.959,-4.9289,-4.8736,-4.8184,-4.8209,-5.6001,-5.9056,-6.0989,-5.9684,-5.7549,-5.4938,-5.1649,-4.6704,-4.2067,-3.9047,-3.5624,-3.2964,-3.253,-3.1556,-3.1269,-3.2402,-3.3066,-3.4062,-3.5937,0.0,0.0,0.0,0.0,0.0,0.0,0.0,0.0,0.0,0.0,0.0,-4.6973,-4.6933,-4.6797,-4.6504,-4.6367,-4.6308,-4.6308,-4.6016,-4.6016,-4.6289,-4.5703,-4.5586,-4.5859,-4.5273,-4.4863,-4.457,-4.3965,-4.3633,-4.3457,-4.2871,-4.2656,-4.2617,-4.2031,-4.1719,-4.1562,-4.1289,-4.1172,-4.1172,-4.1172,-4.1172,-4.1172,-4.1172,-4.1172,-4.1172,-4.1172,-4.1172,-4.1172,-4.1172,-4.1172,-4.1172,-4.1172,-4.1172,-4.1133,-4.0996,-4.0742,-4.0488,-4.0351,-4.0332,-4.0371,-4.0488,-4.0762,-4.1016,-4.1152,-4.1172,-4.1172,-4.1172,-4.1172,-4.1172,-4.1172,-4.1172,-4.1172,-4.1172,-4.1172,-4.1788,-4.3527,-4.3806,-4.5345,-4.8613,-4.9157,-4.9829,-5.1272,-5.1096,-5.0996,-5.0996,-5.0996,-5.0921,-5.0745,-5.0745,-5.0444,-4.9891,-4.9314,-4.9163,0.0,-5.3034,-5.5037,-5.4721,-5.3261,0.0,-4.9686,-4.6043,-4.2147,-3.9651,-3.6989,-3.46,-3.3325,-3.2322,-3.1876,-3.227,-3.2676,-3.3516,-3.5156,0.0,0.0,0.0,0.0,0.0,0.0,0.0,0.0,0.0,0.0,0.0,-4.6504,-4.6601,-4.6504,-4.6074,-4.6211,-4.6308,-4.6308,-4.5879,-4.5801,-4.6055,-4.5351,-4.5176,-4.541,-4.498,-4.4648,-4.4375,-4.3906,-4.3711,0.0,-4.3125,-4.2871,-4.2773,-4.2246,-4.1836,-4.1523,-4.1269,-4.1172,-4.1172,-4.1172,-4.1172,-4.1172,-4.1172,-4.1172,-4.1172,-4.1172,-4.1172,-4.1172,-4.1172,-4.1172,-4.1172,-4.1172,-4.1172,-4.1172,-4.1172,-4.0976,-4.0762,-4.0762,-4.0762,-4.0762,-4.0762,-4.0996,-4.1172,-4.1172,-4.1172,-4.1172,-4.1172,-4.1172,-4.1172,-4.1172,-4.1172,-4.1172,-4.1172,-4.1172,-4.1773,-4.2922,-4.3393,-4.4971,-4.8163,-4.8732,-4.9842,-5.1765,-5.1699,-5.1599,-5.1599,-5.1599,-5.1498,-5.1272,-5.1272,-5.0996,-5.0419,-5.0067,-4.9791,0.0,-4.6124,-4.8714,0.0,0.0,-4.816,-4.8128,-4.5754,0.0,-3.984,-3.868,-3.7263,-3.3861,-3.3212,-3.2809,-3.1761,-3.1973,-3.2988,-3.5059,-3.666,0.0,0.0,0.0,0.0,0.0,0.0,0.0,0.0,0.0,0.0,-4.5664,-4.6055,-4.6113,-4.5683,-4.6094,-4.6289,-4.625,-4.584,-4.5625,-4.5625,-4.5156,-4.4941,-4.4961,-4.4551,-4.4355,0.0,-4.3867,-4.3672,-4.3711,-4.3672,-4.3183,-4.2461,-4.2441,-4.1933,-4.1211,-4.1191,-4.1172,-4.1172,-4.1172,-4.1172,-4.1172,-4.1172,-4.1172,-4.1172,-4.1172,-4.1172,-4.1172,-4.1172,-4.1172,-4.1172,-4.1172,-4.1172,-4.1172,-4.1172,-4.1172,-4.1172,-4.1172,-4.1172,-4.1172,-4.1172,-4.1172,-4.1172,-4.1172,-4.1172,-4.1172,-4.1172,-4.1172,-4.1172,-4.1172,-4.1172,-4.1172,-4.1172,-4.1172,-4.1172,-4.1172,-4.2922,-4.4677,-4.6735,-4.865,-5.0717,-5.2629,-5.2291,-5.2176,-5.2176,-5.2176,-5.19,-5.1398,-5.1348,-5.1071,-5.0544,-5.0444,-5.0142,-3.384,0.0,-4.1628,-4.1237,-4.1888,-4.2496,0.0,0.0,0.0,0.0,0.0,0.0,0.0,-3.4081,-3.3016,-3.2548,-3.2851,-3.3535,-3.4707,0.0,0.0,0.0,0.0,0.0,0.0,0.0,0.0,0.0,0.0,-4.6426,-4.5234,-4.5898,-4.6113,-4.5683,-4.6094,-4.6152,-4.582,-4.5391,-4.5176,-4.5176,-4.4394,-4.4199,-4.4531,-4.4082,-4.3867,-4.3848,-4.3418,-4.3418,-4.3691,-4.3359,-4.3105,-4.2891,-4.2558,-4.2109,-4.1621,-4.1289,-4.1172,-4.1172,-4.1172,-4.1172,-4.1172,-4.1172,-4.1172,-4.1172,-4.1172,-4.1172,-4.1172,-4.1172,-4.1172,-4.1172,-4.1172,-4.1172,-4.1172,-4.1172,-4.1172,-4.1172,-4.1172,-4.1172,-4.1172,-4.1172,-4.1172,-4.1172,-4.1172,-4.1172,-4.1172,-4.1172,-4.1172,-4.1172,-4.1172,-4.1172,-4.1172,-4.1172,-4.1172,-4.1172,-4.1172,-4.1618,-4.279,-4.4677,-4.6588,-4.865,-5.0551,-5.2065,-5.2729,-5.2729,-5.2729,-5.2678,-5.2528,-5.2126,-5.185,-5.1699,-5.082,-5.0343,-3.0781,-3.3554,-3.6417,-3.6818,-3.7784,-3.8866,-4.0006,0.0,0.0,0.0,0.0,0.0,0.0,0.0,0.0,-3.3313,-3.3188,-3.3984,0.0,0.0,0.0,0.0,0.0,0.0,0.0,0.0,0.0,0.0,0.0,-4.5879,-4.4805,-4.5351,-4.5527,-4.5098,-4.5508,-4.5703,-4.5683,-4.5234,-4.4922,-4.4726,-4.4043,-4.373,-4.3789,-4.373,-4.3594,-4.3418,-4.3379,-4.3496,-4.3691,-4.3457,-4.3144,-4.2754,-4.2519,-4.2051,-4.1484,-4.125,-4.1172,-4.1172,-4.1172,-4.1172,-4.1172,-4.1172,-4.1172,-4.1172,-4.1172,-4.1172,-4.1172,-4.1172,-4.1172,-4.1172,-4.1172,-4.1172,-4.1172,-4.1172,-4.1172,-4.1172,-4.1172,-4.1172,-4.1172,-4.1172,-4.1172,-4.1113,-4.0918,-4.0879,-4.0879,-4.0879,-4.0879,-4.0957,-4.1152,-4.1172,-4.1172,-4.1172,-4.1172,-4.1172,-4.1172,-4.1172,-4.2062,-4.3945,-4.5127,-4.7029,-4.9819,-5.0998,-5.205,-5.2929,-5.2929,-5.2929,-5.2929,-5.2628,-5.2352,-5.2101,-5.1473,-5.1046,-3.0566,-3.1816,-3.3263,-3.4778,-3.5328,-3.6174,0.0,0.0,0.0,0.0,0.0,0.0,0.0,0.0,0.0,0.0,0.0,0.0,0.0,0.0,0.0,0.0,0.0,0.0,0.0,0.0,0.0,0.0,0.0,-4.5176,-4.4238,-4.459,-4.4668,-4.4297,-4.4707,-4.5098,-4.5488,-4.5117,-4.4707,-4.4297,-4.3828,-4.3418,-4.3086,-4.3437,-4.3418,-4.3105,0.0,0.0,-4.3691,-4.3633,-4.3144,-4.2422,-4.2363,-4.1855,-4.1172,-4.1172,-4.1172,-4.1172,-4.1172,-4.1172,-4.1172,-4.1172,-4.1172,-4.1172,-4.1172,-4.1172,-4.1172,-4.1172,-4.1172,-4.1172,-4.1172,-4.1172,-4.1172,-4.1172,-4.1172,-4.1172,-4.1172,-4.1172,-4.1172,-4.1172,-4.1172,-4.1035,-4.0605,-4.0527,-4.0527,-4.0527,-4.0527,-4.0684,-4.1113,-4.1172,-4.1172,-4.1172,-4.1172,-4.1172,-4.1172,-4.1172,-4.1907,-4.3511,-4.3945,-4.5849,-4.9819,-4.9961,-5.0857,-5.2929,-5.2929,-5.2929,-5.2929,-5.2929,-5.2678,-5.2226,-5.2151,-5.185,-3.0176,-3.1777,-3.2988,-3.1959,-3.2881,-3.4075,0.0,0.0,0.0,0.0,0.0,0.0,0.0,0.0,0.0,0.0,0.0,0.0,0.0,0.0,0.0,0.0,0.0,0.0,0.0,0.0,0.0,0.0,0.0,-4.459,-4.334,-4.3672,-4.3867,-4.3808,-4.4258,-4.4531,-4.459,-4.4531,-4.4258,-4.3808,-4.3379,-4.3144,-4.3086,-4.3144,-4.3144,-4.3105,0.0,-4.3711,-4.3672,-4.332,-4.2871,-4.2402,-4.2031,-4.1601,-4.1172,-4.1172,-4.1172,-4.1172,-4.1172,-4.1172,-4.1172,-4.1172,-4.1172,-4.1172,-4.1172,-4.1172,-4.1172,-4.1172,-4.1172,-4.1172,-4.1172,-4.1172,-4.1172,-4.1172,-4.1172,-4.1172,-4.1172,-4.1172,-4.1172,-4.1172,-4.1172,-4.1035,-4.0605,-4.0527,-4.0527,-4.0527,-4.0527,-4.0684,-4.1113,-4.1172,-4.1172,-4.1172,-4.1172,-4.1172,-4.1172,-4.1172,-4.1327,-4.1618,-4.3228,-4.5849,-4.9819,-4.9961,-5.0857,-5.2929,-5.2929,-5.2929,-5.2929,-5.2929,-5.2879,-5.2779,-5.2327,-5.2051,-2.9687,-3.0742,-3.166,-3.1601,-3.3069,-3.4632,0.0,0.0,0.0,0.0,0.0,0.0,0.0,0.0,0.0,0.0,0.0,0.0,0.0,0.0,0.0,0.0,0.0,0.0,0.0,0.0,0.0,0.0,0.0,0.0,-4.3125,-4.3027,-4.3125,-4.3359,-4.334,-4.3555,-4.4023,-4.3555,-4.334,-4.3359,-4.3164,-4.2949,-4.2734,-4.2969,-4.3086,-4.3105,0.0,-4.3574,-4.3359,-4.3164,-4.2695,-4.207,-4.1875,-4.1543,-4.1172,-4.1172,-4.1172,-4.1172,-4.1172,-4.1172,-4.1172,-4.1172,-4.1172,-4.1172,-4.1172,-4.1172,-4.1172,-4.1172,-4.1172,-4.1172,-4.1172,-4.1172,-4.1172,-4.1172,-4.1172,-4.1172,-4.1172,-4.1172,-4.1172,-4.1172,-4.1172,-4.1035,-4.0605,-4.0527,-4.0527,-4.0527,-4.0527,-4.0684,-4.1113,-4.1172,-4.1172,-4.1172,-4.1172,-4.1172,-4.1172,-4.1172,-4.1172,-4.1172,-4.3075,-4.5425,-4.8217,-4.9391,-5.0857,-5.2929,-5.2929,-5.2929,-5.2929,-5.2929,-5.2929,-5.2929,-5.2678,-5.2553,-2.9492,-3.0176,-3.0898,-3.1914,0.0,0.0,0.0,0.0,0.0,0.0,0.0,0.0,0.0,0.0,0.0,0.0,0.0,0.0,0.0,0.0,0.0,0.0,0.0,0.0,0.0,0.0,0.0,0.0,0.0,0.0,-4.2949,-4.2422,-4.2324,-4.2773,-4.2461,-4.2637,-4.3398,-4.2754,-4.2656,-4.3086,-4.2871,-4.2598,-4.2285,-4.2734,-4.293,-4.2949,-4.3379,-4.3379,-4.3066,-4.2871,-4.2383,-4.1797,-4.1699,-4.1465,-4.1172,-4.1172,-4.1172,-4.1172,-4.1172,-4.1172,-4.1172,-4.1172,-4.1172,-4.1172,-4.1172,-4.1172,-4.1172,-4.1172,-4.1172,-4.1172,-4.1172,-4.1172,-4.1172,-4.1172,-4.1172,-4.1172,-4.1172,-4.1172,-4.1172,-4.1172,-4.1094,-4.0918,-4.0586,-4.0449,-4.041,-4.0508,-4.0527,-4.0684,-4.1113,-4.1172,-4.1172,-4.1172,-4.1172,-4.1172,-4.1172,-4.1172,-4.1172,-4.1172,-4.2637,-4.4247,-4.6293,-4.8217,-5.0269,-5.2189,-5.2629,-5.2929,-5.2929,-5.2929,-5.2929,-5.2929,-5.2929,-5.2929,-2.9922,-3.1074,-3.2051,-3.2148,0.0,0.0,0.0,0.0,0.0,0.0,0.0,0.0,0.0,0.0,0.0,0.0,0.0,0.0,0.0,0.0,0.0,0.0,0.0,0.0,0.0,0.0,0.0,0.0,0.0,0.0,-4.25,-4.1699,-4.1465,-4.1875,-4.1855,-4.207,-4.2519,-4.2461,-4.2656,-4.3066,-4.2266,-4.1875,-4.1855,-4.2285,-4.248,-4.25,-4.293,-4.3105,-4.3008,-4.2226,-4.1855,-4.1758,-4.1367,-4.1211,-4.1172,-4.1172,-4.1172,-4.1172,-4.1172,-4.1172,-4.1172,-4.1172,-4.1172,-4.1172,-4.1172,-4.1172,-4.1172,-4.1172,-4.1172,-4.1172,-4.1172,-4.1172,-4.1172,-4.1172,-4.1172,-4.1172,-4.1172,-4.1172,-4.1172,-4.1172,-4.084,-4.0566,-4.0527,-4.0195,-4.0078,-4.0469,-4.0527,-4.0684,-4.1113,-4.1172,-4.1172,-4.1172,-4.1172,-4.1172,-4.1172,-4.1172,-4.1172,-4.1172,-4.1327,-4.235,-4.4247,-4.6146,-4.8217,-5.0127,-5.2025,-5.2929,-5.2929,-5.2929,-5.2929,-5.2929,-5.2929,-5.2929,-2.9316,-3.0371,-3.1445,-3.1699,0.0,0.0,0.0,0.0,0.0,0.0,0.0,0.0,0.0,0.0,0.0,0.0,0.0,0.0,0.0,0.0,0.0,0.0,0.0,0.0,0.0,0.0,0.0,0.0,0.0,0.0,-4.2441,-4.1621,-4.1367,-4.1797,-4.1543,-4.1738,-4.2422,-4.1914,-4.1855,-4.2285,-4.1953,-4.1797,-4.1816,-4.1973,-4.2187,-4.2441,-4.2598,-4.2519,-4.2266,-4.1933,-4.1641,-4.1387,-4.123,-4.1172,-4.1172,-4.1172,-4.1172,-4.1172,-4.1172,-4.1172,-4.1172,-4.1172,-4.1172,-4.1172,-4.1172,-4.1172,-4.1172,-4.1172,-4.1172,-4.1172,-4.1172,-4.1172,-4.1172,-4.1172,-4.1172,-4.1172,-4.1172,-4.1172,-4.1172,-4.1172,-4.1035,-4.0918,-4.0918,-4.0801,-4.0742,-4.0898,-4.0918,-4.0976,-4.1152,-4.1172,-4.1172,-4.1172,-4.1172,-4.1172,-4.1172,-4.1172,-4.1172,-4.1172,-4.1172,-4.2042,-4.4096,-4.4827,-4.6735,-4.9961,-5.0717,-5.1747,-5.2929,-5.2929,-5.2929,-5.2929,-5.2929,-5.2929,-2.9316,-2.9883,-3.0605,-3.1172,0.0,0.0,0.0,0.0,0.0,0.0,0.0,0.0,0.0,0.0,0.0,0.0,0.0,0.0,0.0,0.0,0.0,0.0,0.0,0.0,0.0,0.0,0.0,0.0,0.0,0.0,0.0,-4.1562,-4.1308,-4.1601,-4.1328,-4.1445,-4.2031,-4.1465,-4.1308,-4.1601,-4.1601,-4.1601,-4.1601,-4.1738,-4.1953,-4.2226,-4.2226,-4.207,-4.1797,-4.166,-4.1426,-4.1172,-4.1172,-4.1172,-4.1172,-4.1172,-4.1172,-4.1172,-4.1172,-4.1172,-4.1172,-4.1172,-4.1172,-4.1172,-4.1172,-4.1172,-4.1172,-4.1172,-4.1172,-4.1172,-4.1172,-4.1172,-4.1172,-4.1172,-4.1172,-4.1172,-4.1172,-4.1172,-4.1172,-4.1172,-4.1055,-4.1016,-4.1152,-4.1055,-4.0976,-4.0976,-4.1094,-4.1133,-4.0976,-4.1094,-4.1172,-4.1172,-4.1172,-4.1172,-4.1172,-4.1172,-4.1172,-4.1172,-4.1172,-4.1753,-4.3075,-4.3794,-4.5425,-4.8049,-4.9368,-5.0693,-5.205,-5.2629,-5.2929,-5.2929,-5.2929,-5.2929,-3.0176,-2.9883,-2.9785,-3.0684,0.0,0.0,0.0,0.0,0.0,0.0,0.0,0.0,0.0,0.0,0.0,0.0,0.0,0.0,0.0,0.0,0.0,0.0,0.0,0.0,0.0,0.0,0.0,0.0,0.0,0.0,0.0,-4.1406,-4.1172,-4.1172,-4.1172,-4.1172,-4.1172,-4.1172,-4.1172,-4.1172,-4.1172,-4.1172,-4.1191,-4.1601,-4.1797,-4.1797,-4.1797,-4.1797,-4.1758,-4.1348,-4.1172,-4.1172,-4.1172,-4.1172,-4.1172,-4.1172,-4.1172,-4.1172,-4.1172,-4.1172,-4.1172,-4.1172,-4.1172,-4.1172,-4.1172,-4.1172,-4.1172,-4.1172,-4.1172,-4.1172,-4.1172,-4.1172,-4.1172,-4.1172,-4.1172,-4.1172,-4.1172,-4.1172,-4.1172,-4.1172,-4.082,-4.0664,-4.1094,-4.082,-4.0527,-4.0527,-4.0898,-4.1016,-4.0586,-4.0898,-4.1172,-4.1172,-4.1172,-4.1172,-4.1172,-4.1172,-4.1172,-4.1172,-4.1172,-4.1172,-4.1172,-4.3075,-4.4096,-4.4096,-4.7904,-4.9961,-4.9961,-5.1886,-5.2929,-5.2929,-5.2929,-5.2929,-2.9375,-2.9648,0.0,0.0,0.0,0.0,0.0,0.0,0.0,0.0,0.0,0.0,0.0,0.0,0.0,0.0,0.0,0.0,0.0,0.0,0.0,0.0,0.0,0.0,0.0,0.0,0.0,0.0,0.0,0.0,0.0,-4.1406,-4.1172,-4.1172,-4.1172,-4.1172,-4.1172,-4.1172,-4.1172,-4.1172,-4.1172,-4.1172,-4.1172,-4.1308,-4.1367,-4.1367,-4.1367,-4.1367,-4.1348,-4.123,-4.1172,-4.1172,-4.1172,-4.1172,-4.1172,-4.1172,-4.1172,-4.1172,-4.1172,-4.1172,-4.1172,-4.1172,-4.1172,-4.1172,-4.1172,-4.1172,-4.1172,-4.1172,-4.1172,-4.1172,-4.1172,-4.1172,-4.1172,-4.1172,-4.1172,-4.1172,-4.1172,-4.1172,-4.1172,-4.1172,-4.1074,-4.1016,-4.1152,-4.082,-4.0625,-4.0937,-4.084,-4.0781,-4.0957,-4.1094,-4.1172,-4.1172,-4.1172,-4.1172,-4.1172,-4.1172,-4.1172,-4.1172,-4.1172,-4.1172,-4.1172,-4.1753,-4.2637,-4.4096,-4.6588,-4.865,-4.9961,-5.1886,-5.2929,-5.2929,-5.2929,-5.2929,-2.9687,0.0,0.0,0.0,0.0,0.0,0.0,0.0,0.0,0.0,0.0,0.0,0.0,0.0,0.0,0.0,0.0,0.0,0.0,0.0,0.0,0.0,0.0,0.0,0.0,0.0,0.0,0.0,0.0,0.0,0.0,-4.1308,-4.1172,-4.1172,-4.1172,-4.1172,-4.1172,-4.1172,-4.1172,-4.1172,-4.1172,-4.1172,-4.1172,-4.1172,-4.1172,-4.1172,-4.1172,-4.1172,-4.1172,-4.1172,-4.1172,-4.1172,-4.1172,-4.1172,-4.1172,-4.1172,-4.1172,-4.1172,-4.1172,-4.1172,-4.1172,-4.1172,-4.1172,-4.1172,-4.1172,-4.1172,-4.1172,-4.1172,-4.1172,-4.1172,-4.1172,-4.1172,-4.1172,-4.1172,-4.1172,-4.1172,-4.1172,-4.1172,-4.1172,-4.1172,-4.1172,-4.1172,-4.1172,-4.0957,-4.082,-4.0898,-4.0684,-4.0684,-4.1113,-4.1172,-4.1172,-4.1172,-4.1172,-4.1172,-4.1172,-4.1172,-4.1172,-4.1172,-4.1172,-4.1172,-4.1172,-4.1172,-4.1753,-4.2922,-4.4827,-4.6882,-4.8794,-5.0857,-5.2189,-5.2929,-5.2929,-5.2929,0.0,0.0,0.0,0.0,0.0,0.0,0.0,0.0,0.0,0.0,0.0,0.0,0.0,0.0,0.0,0.0,0.0,0.0,0.0,0.0,0.0,0.0,0.0,0.0,0.0,0.0,0.0,0.0,0.0,0.0,-4.1172,-4.1172,-4.1172,-4.1172,-4.1172,-4.1172,-4.1172,-4.1172,-4.1172,-4.1172,-4.1172,-4.1172,-4.1172,-4.1172,-4.1172,-4.1172,-4.1172,-4.1172,-4.1172,-4.1172,-4.1172,-4.1172,-4.1172,-4.1172,-4.1172,-4.1172,-4.1172,-4.1172,-4.1172,-4.1172,-4.1172,-4.1172,-4.1172,-4.1172,-4.1172,-4.1172,-4.1172,-4.1172,-4.1172,-4.1172,-4.1172,-4.1172,-4.1172,-4.1172,-4.1172,-4.1172,-4.1172,-4.1172,-4.1172,-4.1172,-4.1172,-4.1172,-4.1172,-4.1133,-4.0976,-4.0586,-4.0566,-4.0723,-4.1113,-4.1172,-4.1172,-4.1172,-4.1172,-4.1172,-4.1172,-4.1172,-4.1172,-4.1172,-4.1172,-4.1172,-4.1172,-4.1172,-4.1172,-4.1172,-4.3075,-4.4977,-4.6735,-4.8938,-5.0857,-5.2629,-5.2792,-5.2929,0.0,0.0,0.0,0.0,0.0,0.0,0.0,0.0,0.0,0.0,0.0,0.0,0.0,0.0,0.0,0.0,0.0,0.0,0.0,0.0,0.0,0.0,0.0,0.0,0.0,0.0,0.0,0.0,0.0,0.0,-4.1172,-4.1172,-4.1172,-4.1172,-4.1172,-4.1172,-4.1172,-4.1172,-4.1172,-4.1172,-4.1172,-4.1172,-4.1172,-4.1172,-4.1172,-4.1172,-4.1172,-4.1172,-4.1172,-4.1172,-4.1172,-4.1172,-4.1172,-4.1172,-4.1172,-4.1172,-4.1172,-4.1172,-4.1172,-4.1172,-4.1172,-4.1172,-4.1172,-4.1172,-4.1172,-4.1172,-4.1172,-4.1172,-4.1172,-4.1172,-4.1172,-4.1172,-4.1172,-4.1172,-4.1172,-4.1172,-4.1172,-4.1172,-4.1172,-4.1172,-4.1172,-4.1172,-4.1172,-4.0879,-4.0625,-4.0527,-4.082,-4.1074,-4.1172,-4.1172,-4.1172,-4.1172,-4.1172,-4.1172,-4.1172,-4.1172,-4.1172,-4.1172,-4.1172,-4.1172,-4.1172,-4.1172,-4.1172,-4.1172,-4.3075,-4.4247,-4.4677,-4.8194,-5.0269,-5.0693,-5.2189,-5.2929,0.0,0.0,0.0,0.0,0.0,0.0,0.0,0.0,0.0,0.0,0.0,0.0,0.0,0.0,0.0,0.0,0.0,0.0,0.0,0.0,0.0,0.0,0.0,0.0,0.0,0.0,0.0,0.0,0.0,-4.1172,-4.1172,-4.1172,-4.1172,-4.1172,-4.0976,-4.0859,-4.0859,-4.0664,-4.0566,-4.0566,-4.0762,-4.0976,-4.1172,-4.1172,-4.1172,-4.1172,-4.1172,-4.1172,-4.1172,-4.1172,-4.1172,-4.1172,-4.1172,-4.1172,-4.1172,-4.1172,-4.1172,-4.1172,-4.1172,-4.1172,-4.1172,-4.1172,-4.1172,-4.1172,-4.1172,-4.1172,-4.1133,-4.0918,-4.0859,-4.0859,-4.0859,-4.0859,-4.0918,-4.1133,-4.1172,-4.1172,-4.1172,-4.1172,-4.1172,-4.1172,-4.1172,-4.1172,-4.1172,-4.0976,-4.084,-4.084,-4.1035,-4.1172,-4.1172,-4.1172,-4.1172,-4.1172,-4.1172,-4.1172,-4.1172,-4.1172,-4.1172,-4.1172,-4.1172,-4.1172,-4.1172,-4.1172,-4.1172,-4.1172,-4.2196,-4.3228,-4.4096,-4.6146,-4.8217,-4.9961,-5.0998,-5.2025,0.0,0.0,0.0,0.0,0.0,0.0,0.0,0.0,0.0,0.0,0.0,0.0,0.0,0.0,0.0,0.0,0.0,0.0,0.0,0.0,0.0,0.0,0.0,0.0,0.0,0.0,0.0,0.0,0.0,-4.1133,-4.1074,-4.1133,-4.1133,-4.1055,-4.0703,-4.0449,-4.0293,-4.0039,-3.9863,-3.9785,-4.0215,-4.0644,-4.1055,-4.1055,-4.1094,-4.1172,-4.1172,-4.1172,-4.1172,-4.1172,-4.1172,-4.1172,-4.1172,-4.1172,-4.1172,-4.1172,-4.1172,-4.1172,-4.1172,-4.1172,-4.1172,-4.1172,-4.1172,-4.1172,-4.1172,-4.1172,-4.1094,-4.0742,-4.0644,-4.0644,-4.0644,-4.0644,-4.0723,-4.1094,-4.1172,-4.1172,-4.1172,-4.1172,-4.1172,-4.1172,-4.1172,-4.1172,-4.1172,-4.1172,-4.1172,-4.1172,-4.1172,-4.1172,-4.1172,-4.1172,-4.1172,-4.1172,-4.1172,-4.1172,-4.1172,-4.1172,-4.1172,-4.1172,-4.1172,-4.1172,-4.1172,-4.1172,-4.1172,-4.1172,-4.1172,-4.2062,-4.3663,-4.3945,-4.5998,-4.9534,-4.9819,-5.0998,0.0,0.0,0.0,0.0,0.0,0.0,0.0,0.0,0.0,0.0,0.0,0.0,0.0,0.0,0.0,0.0,0.0,0.0,0.0,0.0,0.0,0.0,0.0,0.0,0.0,0.0,0.0,0.0,-4.0957,-4.1016,-4.0625,-4.0976,-4.0996,-4.0625,-4.0547,-4.0156,-3.9394,-3.9726,-3.9687,-3.9297,-3.9766,-4.0195,-4.0605,-4.0605,-4.082,-4.1172,-4.1172,-4.1172,-4.1172,-4.1172,-4.1172,-4.1172,-4.1172,-4.1172,-4.1172,-4.1172,-4.1172,-4.1172,-4.1172,-4.1172,-4.1172,-4.1172,-4.1172,-4.1172,-4.1172,-4.1172,-4.1172,-4.1094,-4.1094,-4.1094,-4.1094,-4.1094,-4.1094,-4.1172,-4.1172,-4.1172,-4.1172,-4.1172,-4.1172,-4.1172,-4.1172,-4.1172,-4.1172,-4.1172,-4.1172,-4.1172,-4.1172,-4.1172,-4.1172,-4.1172,-4.1172,-4.1172,-4.1172,-4.1172,-4.1172,-4.1172,-4.1172,-4.1172,-4.1172,-4.1172,-4.1172,-4.1172,-4.1172,-4.1172,-4.1172,-4.1327,-4.1618,-4.3207,-4.5276,-4.7467,-4.9224,-5.0998,0.0,0.0,0.0,0.0,0.0,0.0,0.0,0.0,0.0,0.0,0.0,0.0,0.0,0.0,0.0,0.0,0.0,0.0,0.0,0.0,0.0,0.0,0.0,0.0,0.0,0.0,0.0,0.0,-4.0703,-4.0625,-4.0195,-4.0351,-4.0371,-4.0176,-3.9922,-3.9492,-3.8848,-3.8809,-3.8809,-3.8848,-3.9062,-3.9512,-4.0176,-4.0176,-4.0527,-4.1172,-4.1172,-4.1035,-4.084,-4.1074,-4.0898,-4.0508,-4.0996,-4.1035,-4.084,-4.1074,-4.1172,-4.1172,-4.1172,-4.1172,-4.1172,-4.1172,-4.1172,-4.1172,-4.1172,-4.1172,-4.1113,-4.0879,-4.0801,-4.0801,-4.0801,-4.0801,-4.0879,-4.1113,-4.1172,-4.1172,-4.1172,-4.1172,-4.1172,-4.1172,-4.1172,-4.1172,-4.1172,-4.1172,-4.1172,-4.1172,-4.1172,-4.1172,-4.1172,-4.1172,-4.1172,-4.1172,-4.1172,-4.1172,-4.1172,-4.1172,-4.1172,-4.1172,-4.1172,-4.1172,-4.1172,-4.1172,-4.1172,-4.1172,-4.1172,-4.1172,-4.1172,-4.2062,-4.3511,-4.5425,-4.7321,-4.9391,0.0,0.0,0.0,0.0,0.0,0.0,0.0,0.0,0.0,0.0,0.0,0.0,0.0,0.0,0.0,0.0,0.0,0.0,0.0,0.0,0.0,0.0,0.0,0.0,0.0,0.0,0.0,0.0,-4.0371,-4.0176,-3.9746,-3.9824,-3.9844,-3.9726,-3.9277,-3.8789,-3.8262,-3.7812,-3.7812,-3.8242,-3.8242,-3.8711,-3.957,-3.957,-4.0039,-4.084,-4.084,-4.0664,-4.0391,-4.0723,-4.0469,-3.9961,-4.0605,-4.0723,-4.0566,-4.0879,-4.1074,-4.1172,-4.1172,-4.1172,-4.1172,-4.1172,-4.1172,-4.1172,-4.1172,-4.1172,-4.1113,-4.0781,-4.0684,-4.0684,-4.0684,-4.0684,-4.0781,-4.1094,-4.1172,-4.1172,-4.1172,-4.1172,-4.1172,-4.1172,-4.1172,-4.1172,-4.1172,-4.1172,-4.1172,-4.1172,-4.1172,-4.1172,-4.1172,-4.1172,-4.1172,-4.1172,-4.1172,-4.1172,-4.1172,-4.1172,-4.1172,-4.1172,-4.1172,-4.1172,-4.1172,-4.1172,-4.1172,-4.1172,-4.1172,-4.1172,-4.1172,-4.1172,-4.2196,-4.4096,-4.6146,-4.8072,0.0,0.0,0.0,0.0,0.0,0.0,0.0,0.0,0.0,0.0,0.0,0.0,0.0,0.0,0.0,0.0,0.0,0.0,0.0,0.0,0.0,0.0,0.0,0.0,0.0,0.0,0.0,0.0,-3.9922,-3.9726,-3.9258,-3.9668,-3.9687,-3.9258,-3.8828,-3.8203,-3.7383,-3.6953,-3.6953,-3.7363,-3.7363,-3.7812,-3.8652,-3.8652,-3.9121,-3.9961,-3.9961,-3.9941,-3.9922,-3.9961,-3.9941,-3.9902,-3.9941,-4.0195,-4.0527,-4.0547,-4.082,-4.1172,-4.1172,-4.1172,-4.1172,-4.1172,-4.1172,-4.1172,-4.1172,-4.1172,-4.1172,-4.1152,-4.1133,-4.1133,-4.1133,-4.1133,-4.1152,-4.1172,-4.1172,-4.1172,-4.1172,-4.1172,-4.1172,-4.1172,-4.1172,-4.1172,-4.1172,-4.1172,-4.1172,-4.1172,-4.1172,-4.1172,-4.1172,-4.1172,-4.1172,-4.1172,-4.1172,-4.1172,-4.1172,-4.1172,-4.1172,-4.1172,-4.1172,-4.1172,-4.1172,-4.1172,-4.1172,-4.1172,-4.1172,-4.1172,-4.1172,-4.1172,-4.2196,-4.4096,-4.6146,-4.8072,0.0,0.0,0.0,0.0,0.0,0.0,0.0,0.0,0.0,0.0,0.0,0.0,0.0,0.0,0.0,0.0,0.0,0.0,0.0,0.0,0.0,0.0,0.0,0.0,0.0,0.0,-4.0351,-3.9922,-3.9609,-3.9258,-3.8828,-3.7625,-3.6719,-3.6551,-3.4974,-3.436,-3.4993,-3.4585,-3.5319,-3.6894,-3.6894,-3.7187,-3.7754,-3.8027,-3.8184,-3.8262,-3.8809,-3.9199,-3.9473,-3.9766,-3.957,-3.9141,-3.9961,-4.0234,-4.0195,-4.0742,-4.1035,-4.1172,-4.1172,-4.1172,-4.1172,-4.1172,-4.1172,-4.1113,-4.084,-4.0957,-4.1113,-4.084,-4.0957,-4.1172,-4.1172,-4.1172,-4.1172,-4.1172,-4.1172,-4.1172,-4.1172,-4.1172,-4.1172,-4.1172,-4.1172,-4.1172,-4.1172,-4.1172,-4.1172,-4.1172,-4.1172,-4.1172,-4.1172,-4.1172,-4.1172,-4.1172,-4.1172,-4.1172,-4.1172,-4.1172,-4.1172,-4.1172,-4.1172,-4.1172,-4.1172,-4.1172,-4.1172,-4.1172,-4.1172,-4.1172,-4.1172,-4.1172,-4.1618,-4.235,-4.5574,-4.7321,0.0,0.0,0.0,0.0,0.0,0.0,0.0,0.0,0.0,0.0,0.0,0.0,0.0,0.0,0.0,0.0,0.0,0.0,0.0,0.0,0.0,0.0,0.0,0.0,0.0,-4.043,-3.9961,-3.9687,-3.9101,0.0,-3.8379,-3.6739,-3.541,-3.4686,-3.2518,-3.2066,-3.3549,-3.317,-3.4158,-3.6445,-3.6309,-3.6543,-3.709,-3.7383,-3.7422,-3.7344,-3.8047,-3.8516,-3.8809,-3.9258,-3.9101,-3.8652,-3.9531,-3.9883,-3.9961,-4.0527,-4.0918,-4.1172,-4.1172,-4.1172,-4.1172,-4.1172,-4.1074,-4.0937,-4.0781,-4.084,-4.0918,-4.0781,-4.0957,-4.1172,-4.1172,-4.1172,-4.1172,-4.1172,-4.1172,-4.1172,-4.1172,-4.1172,-4.1172,-4.1172,-4.1172,-4.1172,-4.1172,-4.1172,-4.1172,-4.1172,-4.1172,-4.1172,-4.1172,-4.1172,-4.1172,-4.1172,-4.1172,-4.1172,-4.1172,-4.1172,-4.1172,-4.1172,-4.1172,-4.1172,-4.1172,-4.1172,-4.1172,-4.1172,-4.1172,-4.1172,-4.1172,-4.1172,-4.1172,-4.1327,-4.4548,-4.6735,0.0,0.0,0.0,0.0,0.0,0.0,0.0,0.0,0.0,0.0,0.0,0.0,0.0,0.0,0.0,0.0,0.0,0.0,0.0,0.0,0.0,0.0,0.0,0.0,-4.0527,-3.9726,-3.9199,-3.918,-3.8398,-3.791,-3.791,-3.7358,-3.6047,-3.3747,-3.1844,-3.1514,-3.3013,-3.2618,-3.3458,-3.584,-3.5451,-3.582,-3.6621,-3.666,-3.6894,-3.7285,-3.7715,-3.791,-3.7949,-3.8398,-3.8574,-3.8574,-3.8594,-3.9121,-3.9883,-3.9902,-4.043,-4.1133,-4.1152,-4.1152,-4.1133,-4.1133,-4.084,-4.0586,-4.0996,-4.084,-4.0586,-4.1016,-4.1152,-4.1152,-4.1172,-4.1172,-4.1172,-4.1172,-4.1172,-4.1172,-4.1172,-4.1172,-4.1172,-4.1172,-4.1172,-4.1172,-4.1172,-4.1172,-4.1172,-4.1172,-4.1172,-4.1172,-4.1172,-4.1172,-4.1172,-4.1172,-4.1172,-4.1172,-4.1172,-4.1172,-4.1172,-4.1172,-4.1172,-4.1172,-4.1172,-4.1172,-4.1172,-4.1172,-4.1172,-4.1172,-4.1172,-4.1172,-4.1172,-4.1172,-4.3228,-4.6293,-2.8067,0.0,0.0,0.0,0.0,0.0,0.0,0.0,0.0,0.0,0.0,0.0,0.0,0.0,0.0,0.0,0.0,0.0,0.0,0.0,0.0,0.0,-4.0781,-4.0527,-4.0527,-3.9726,-3.9082,0.0,-3.8242,-3.7793,-3.748,-3.4412,-3.1718,-2.9361,-2.7256,-2.6934,-2.8648,-2.8456,-2.9297,-3.1199,-3.2757,-3.3521,-3.3898,-3.5797,-3.6562,-3.6406,-3.7148,-3.7461,-3.7519,-3.8281,-3.8574,-3.8613,-3.8906,-3.918,-3.9473,-4.0117,-4.0312,-4.0293,-4.0605,-4.0508,-4.0254,-4.0254,-4.0176,-4.0019,-3.9824,-3.9902,-4.0098,-4.0215,-4.0469,-4.0781,-4.1094,-4.1172,-4.1172,-4.1172,-4.1172,-4.1172,-4.1172,-4.1172,-4.1172,-4.1172,-4.1172,-4.1172,-4.1172,-4.1172,-4.1172,-4.1172,-4.1172,-4.1172,-4.1172,-4.1172,-4.1172,-4.1172,-4.1172,-4.1172,-4.1172,-4.1172,-4.1172,-4.1172,-4.1172,-4.1172,-4.1172,-4.1172,-4.1172,-4.1172,-4.1172,-4.1172,-4.1172,-4.1172,-4.1172,-4.1327,-4.4699,-4.7613,0.0,0.0,0.0,0.0,0.0,0.0,-3.1191,-3.1953,0.0,0.0,0.0,0.0,0.0,0.0,0.0,0.0,0.0,0.0,0.0,0.0,0.0,-4.1152,-4.0469,-4.0039,-4.0234,-3.9453,-3.8769,-3.834,-3.791,-3.7402,-3.6797,-3.2756,-2.9884,-2.8569,-2.5583,-2.4985,-2.6773,-2.6444,-2.7307,-2.9373,-3.0531,-3.1691,-3.2729,-3.3477,-3.4665,-3.6055,-3.5864,-3.6291,-3.7109,-3.7949,-3.8418,-3.8594,-3.8848,-3.9043,-3.9258,-3.9785,-3.9941,-3.9922,-4.0176,-4.0098,-3.9902,-3.9902,-3.9766,-3.959,-3.9512,-3.9687,-3.9922,-4.0098,-4.0469,-4.0859,-4.1113,-4.1172,-4.1172,-4.1172,-4.1172,-4.1172,-4.1172,-4.1172,-4.1172,-4.1172,-4.1172,-4.1172,-4.1172,-4.1172,-4.1172,-4.1172,-4.1172,-4.1172,-4.1172,-4.1172,-4.1172,-4.1172,-4.1172,-4.1172,-4.1172,-4.1172,-4.1172,-4.1172,-4.1172,-4.1172,-4.1172,-4.1172,-4.1172,-4.1172,-4.1172,-4.1172,-4.1172,-4.1172,-4.1172,-4.1327,-4.4398,-4.6882,0.0,0.0,0.0,0.0,0.0,0.0,-3.0801,-3.0898,-3.1094,0.0,0.0,0.0,0.0,0.0,0.0,0.0,0.0,0.0,0.0,-4.0801,-4.0703,-4.0996,-4.0,-3.9414,-3.9785,-3.9023,-3.832,-3.7891,-3.7383,-3.6758,-3.5996,-3.2307,-2.9993,-2.9854,-2.6076,-2.482,-2.6165,-2.5855,-2.6634,-2.8695,-2.8554,-2.9716,-3.1886,-3.0581,-3.1911,-3.5256,-3.4231,-3.4733,-3.6441,-3.7319,-3.8066,-3.8516,-3.8555,-3.8809,-3.9141,-3.918,-3.9434,-3.9766,-3.9805,-3.9785,-3.9746,-3.9746,-3.9473,-3.9199,-3.9629,-3.9785,-3.9922,-4.0391,-4.084,-4.1172,-4.1172,-4.1172,-4.1172,-4.1172,-4.1172,-4.1172,-4.1172,-4.1172,-4.1172,-4.1172,-4.1172,-4.1172,-4.1172,-4.1172,-4.1172,-4.1172,-4.1172,-4.1172,-4.1172,-4.1172,-4.1172,-4.1172,-4.1172,-4.1172,-4.1172,-4.1172,-4.1172,-4.1172,-4.1172,-4.1172,-4.1172,-4.1172,-4.1172,-4.1172,-4.1172,-4.1172,-4.1172,-4.1172,-4.1172,-4.1172,-4.3228,-4.5127,0.0,0.0,0.0,0.0,0.0,0.0,-2.9336,-2.9101,-2.9394,0.0,0.0,0.0,0.0,0.0,0.0,0.0,-3.7715,-3.9258,-4.0488,-4.0879,-4.082,-4.0215,-3.9922,-3.9648,-3.9355,-3.8555,-3.7871,-3.7461,-3.6387,-3.5703,-3.5527,-3.3016,-3.0854,-2.9336,-2.6817,-2.5025,-2.3954,-2.3639,-2.3776,-2.4243,-2.5906,-2.7013,-2.7579,-2.9102,-3.0371,-3.1167,-3.2681,-3.3739,-3.4489,-3.6258,-3.7363,-3.8086,-3.8437,-3.8633,-3.875,-3.9082,-3.9043,-3.8887,-3.9219,-3.9121,-3.8828,-3.8828,-3.8769,-3.8711,-3.8809,-3.9062,-3.9492,-4.0293,-4.084,-4.1172,-4.1172,-4.1172,-4.1172,-4.1172,-4.1172,-4.1172,-4.1172,-4.1172,-4.1172,-4.1172,-4.1172,-4.1172,-4.1172,-4.1172,-4.1172,-4.1172,-4.1172,-4.1172,-4.1172,-4.1172,-4.1172,-4.1172,-4.1172,-4.1172,-4.1172,-4.1172,-4.1172,-4.1172,-4.1172,-4.1172,-4.1172,-4.1172,-4.1172,-4.1172,-4.1172,-4.1172,-4.1172,-4.1172,-4.1172,-4.1172,-4.3228,-4.5127,0.0,0.0,0.0,-2.7378,0.0,0.0,0.0,-2.8594,-2.8711,-3.0234,-3.0547,-3.1074,-3.2793,0.0,-3.4062,-3.4902,-3.5937,-3.709,-3.8418,-3.9512,-4.0117,-3.9922,-3.9512,-3.9141,-3.8906,-3.8301,-3.7656,-3.7031,-3.5996,-3.5391,-3.5391,-3.2988,-3.0874,-2.9108,-2.6873,-2.4969,-2.31,-2.2939,-2.2859,-2.2859,-2.4092,-2.5178,-2.6147,-2.6493,-2.7788,-2.9921,-3.0103,-3.1388,-3.3617,-3.4836,-3.6036,-3.7344,-3.7773,-3.793,-3.7988,-3.8418,-3.8437,-3.832,-3.875,-3.875,-3.8574,-3.8574,-3.8574,-3.8574,-3.8574,-3.9023,-3.9726,-4.0605,-4.0996,-4.1172,-4.1172,-4.1172,-4.1172,-4.1172,-4.1172,-4.1172,-4.1172,-4.1172,-4.1172,-4.1172,-4.1172,-4.1172,-4.1172,-4.1172,-4.1172,-4.1172,-4.1172,-4.1172,-4.1172,-4.1172,-4.1172,-4.1172,-4.1172,-4.1172,-4.1172,-4.1172,-4.1172,-4.1172,-4.1172,-4.1172,-4.1172,-4.1172,-4.1172,-4.1172,-4.1172,-4.1172,-4.1172,-4.1172,-4.1172,-4.1172,-4.2196,-4.3663,0.0,0.0,0.0,0.0,0.0,-2.8334,0.0,0.0,0.0,-2.9199,-2.9394,0.0,0.0,0.0,0.0,0.0,0.0,0.0,0.0,-3.7207,0.0,-3.9199,-3.8633,-3.8242,-3.832,-3.7793,-3.7148,-3.6484,-3.5547,-3.5059,-3.5137,-3.2955,-3.0758,-2.8627,-2.6886,-2.4862,-2.2699,-2.2752,-2.2779,-2.2779,-2.2779,-2.3735,-2.5511,-2.3969,-2.5226,-2.8611,-2.7412,-2.8898,-3.2088,-3.3106,-3.4585,-3.6166,-3.695,-3.7305,-3.7344,-3.7676,-3.7851,-3.7969,-3.832,-3.8496,-3.8574,-3.8574,-3.8574,-3.8613,-3.8867,-3.9394,-4.0078,-4.0937,-4.1172,-4.1172,-4.1172,-4.1172,-4.1172,-4.1172,-4.1172,-4.1172,-4.1172,-4.1172,-4.1172,-4.1172,-4.1172,-4.1172,-4.1172,-4.1172,-4.1172,-4.1172,-4.1172,-4.1172,-4.1172,-4.1172,-4.1172,-4.1172,-4.1172,-4.1172,-4.1172,-4.1172,-4.1172,-4.1172,-4.1172,-4.1172,-4.1172,-4.1172,-4.1172,-4.1172,-4.1172,-4.1172,-4.1172,-4.1172,-4.1172,-4.1172,-4.1172,-4.2196,0.0,0.0,0.0,0.0,-2.636,0.0,0.0,0.0,-2.8769,-2.8496,0.0,0.0,0.0,0.0,0.0,0.0,0.0,0.0,-3.2187,-3.3887,-3.5664,-3.6894,-3.6953,-3.7031,-3.7402,-3.6367,-3.5644,-3.5547,-3.4355,-3.3809,-3.4199,-3.3272,-3.1117,-2.7881,-2.7442,-2.5589,-2.2084,-2.2338,-2.2472,-2.2472,-2.2472,-2.2754,-2.3324,-2.3332,-2.3633,-2.4121,-2.5871,-2.7009,-2.802,-3.1409,-3.3193,-3.3872,-3.6393,-3.7305,-3.7305,-3.7344,-3.7598,-3.793,-3.7988,-3.8242,-3.8574,-3.8574,-3.8574,-3.8789,-3.9941,-4.0117,-4.0078,-4.0937,-4.1172,-4.1172,-4.1172,-4.1172,-4.1172,-4.1172,-4.1172,-4.1172,-4.1172,-4.1172,-4.1172,-4.1172,-4.1172,-4.1172,-4.1172,-4.1172,-4.1172,-4.1172,-4.1172,-4.1172,-4.1172,-4.1172,-4.1172,-4.1172,-4.1172,-4.1172,-4.1172,-4.1172,-4.1172,-4.1172,-4.1172,-4.1172,-4.1172,-4.1172,-4.1172,-4.1172,-4.1172,-4.1172,-4.1172,-4.1172,-4.1172,-4.1172,-4.1172,-4.2196,0.0,0.0,0.0,0.0,0.0,0.0,-2.6893,0.0,-2.8652,0.0,0.0,0.0,0.0,0.0,0.0,0.0,-3.0215,0.0,0.0,0.0,-3.3242,0.0,0.0,0.0,-3.541,-3.4941,-3.4629,-3.4629,-3.3652,-3.3144,-3.332,-3.2754,-3.1275,-2.8828,-2.7815,-2.5958,-2.3392,-2.2627,-2.2164,-2.2164,-2.2164,-2.2325,-2.2605,-2.2739,-2.2993,-2.3327,-2.4261,-2.5552,-2.7094,-2.8579,-3.0076,-3.1738,-3.3835,-3.5463,-3.6621,-3.7109,-3.7402,-3.7637,-3.8125,-3.8418,-3.8574,-3.8574,-3.875,-3.9082,-3.9902,-4.0195,-4.0391,-4.0996,-4.1172,-4.1172,-4.1172,-4.1172,-4.1172,-4.1172,-4.1172,-4.1172,-4.1172,-4.1172,-4.1172,-4.1172,-4.1172,-4.1172,-4.1172,-4.1172,-4.1172,-4.1172,-4.1172,-4.1172,-4.1172,-4.1172,-4.1172,-4.1172,-4.1172,-4.1172,-4.1172,-4.1172,-4.1172,-4.1172,-4.1172,-4.1172,-4.1172,-4.1172,-4.1172,-4.1172,-4.1172,-4.1172,-4.1172,-4.1172,-4.1172,-4.1172,-4.1172,-4.1618,-2.0441,0.0,0.0,0.0,0.0,0.0,0.0,0.0,0.0,0.0,0.0,0.0,0.0,0.0,0.0,0.0,0.0,-2.9883,0.0,-3.0449,0.0,0.0,0.0,0.0,0.0,-3.3516,-3.3418,-3.3535,-3.2637,-3.2187,-3.2422,-3.2051,-3.1111,-2.9436,-2.7804,-2.6008,-2.4149,-2.2716,-2.1871,-2.1871,-2.1871,-2.2017,-2.2298,-2.2378,-2.2659,-2.3086,-2.3166,-2.4302,-2.6008,-2.6319,-2.757,-2.9563,-3.1271,-3.3239,-3.539,-3.6716,-3.7207,-3.7402,-3.8144,-3.8476,-3.8613,-3.8867,-3.8984,-3.918,-4.0,-4.0293,-4.0469,-4.1016,-4.1172,-4.1172,-4.1172,-4.1172,-4.1172,-4.1172,-4.1172,-4.1172,-4.1172,-4.1172,-4.1172,-4.1172,-4.1172,-4.1172,-4.1172,-4.1172,-4.1172,-4.1172,-4.1172,-4.1172,-4.1172,-4.1172,-4.1172,-4.1172,-4.1172,-4.1172,-4.1172,-4.1172,-4.1172,-4.1172,-4.1172,-4.1172,-4.1172,-4.1172,-4.1172,-4.1172,-4.1172,-4.1172,-4.1172,-4.1172,-4.1172,-4.1172,-4.1172,-4.1172,0.0,0.0,0.0,-2.0926,0.0,0.0,0.0,0.0,-2.8608,0.0,0.0,0.0,0.0,0.0,0.0,0.0,0.0,0.0,0.0,0.0,0.0,0.0,0.0,0.0,0.0,-3.209,-3.1777,0.0,-3.1016,-3.0664,-3.1504,-3.1152,-3.0386,-2.9143,-2.7412,-2.5514,-2.3604,-2.2298,-2.1563,-2.1563,-2.1563,-2.1724,-2.2004,-2.2285,-2.2432,-2.2458,-2.2752,-2.306,-2.362,-2.5491,-2.6538,-2.7266,-2.9223,-3.1409,-3.3502,-3.5812,-3.6953,-3.7363,-3.7793,-3.8223,-3.8711,-3.957,-3.9277,-3.8906,-4.0625,-4.0566,-4.0098,-4.0937,-4.1172,-4.1172,-4.1172,-4.1172,-4.1172,-4.1172,-4.1172,-4.1172,-4.1172,-4.1172,-4.1172,-4.1172,-4.1172,-4.1172,-4.1172,-4.1172,-4.1172,-4.1172,-4.1172,-4.1172,-4.1172,-4.1172,-4.1172,-4.1172,-4.1172,-4.1172,-4.1172,-4.1172,-4.1172,-4.1172,-4.1172,-4.1172,-4.1172,-4.1172,-4.1172,-4.1172,-4.1172,-4.1172,-4.1172,-4.1172,-4.1172,-4.1172,-4.1172,-4.1172,0.0,0.0,-2.1697,-2.1109,0.0,0.0,0.0,0.0,0.0,0.0,0.0,0.0,0.0,0.0,0.0,-2.9283,-2.9355,0.0,0.0,0.0,0.0,0.0,0.0,0.0,0.0,0.0,0.0,0.0,-2.9922,0.0,-3.0195,-3.0351,-3.0258,-2.9792,-2.7383,-2.5855,-2.5146,-2.2566,-2.1256,-2.1256,-2.1256,-2.1416,-2.171,-2.1804,-2.2058,-2.2432,-2.2525,-2.2859,-2.3313,-2.3763,-2.4428,-2.5296,-2.7024,-2.8397,-2.9838,-3.3767,-3.6142,-3.7441,-3.8418,-3.8867,-3.9082,-3.9707,-3.9687,-3.9551,-4.0156,-4.0312,-4.0371,-4.0664,-4.0957,-4.1172,-4.1172,-4.1172,-4.1172,-4.1172,-4.1172,-4.1172,-4.1172,-4.1172,-4.1172,-4.1172,-4.1172,-4.1172,-4.1172,-4.1172,-4.1172,-4.1172,-4.1172,-4.1172,-4.1172,-4.1172,-4.1172,-4.1172,-4.1172,-4.1172,-4.1172,-4.1172,-4.1172,-4.1172,-4.1172,-4.1172,-4.1172,-4.1172,-4.1172,-4.1172,-4.1172,-4.1172,-4.1172,-4.1172,-4.1172,-4.1172,-4.1172,-4.1172,-2.1336,-2.1603,0.0,-2.1483,-2.2323,0.0,-2.342,0.0,0.0,0.0,0.0,0.0,0.0,0.0,0.0,-2.793,-2.8258,-2.8363,0.0,-2.8457,0.0,0.0,0.0,0.0,0.0,0.0,0.0,0.0,0.0,0.0,0.0,-2.9512,-2.9883,-3.0176,-2.7955,-2.6591,-2.5984,-2.3311,-2.1727,-2.1109,-2.1109,-2.1203,-2.1403,-2.151,-2.1764,-2.2124,-2.2325,-2.2645,-2.2993,-2.2899,-2.3327,-2.4165,-2.5215,-2.6354,-2.8,-3.1871,-3.4612,-3.678,-3.8662,-3.9101,-3.9082,-3.9687,-3.9687,-3.9492,-3.9805,-4.0078,-4.0332,-4.0488,-4.084,-4.1172,-4.1172,-4.1172,-4.1172,-4.1172,-4.1172,-4.1172,-4.1172,-4.1172,-4.1172,-4.1172,-4.1172,-4.1172,-4.1172,-4.1172,-4.1172,-4.1172,-4.1172,-4.1172,-4.1172,-4.1172,-4.1172,-4.1172,-4.1172,-4.1172,-4.1172,-4.1172,-4.1172,-4.1172,-4.1172,-4.1172,-4.1172,-4.1172,-4.1308,-4.1621,-4.1328,-4.1328,-4.1621,-4.1328,-4.1172,-4.1172,-4.1172,-4.1172]}]]